GFSSGP_sfc_thetae_000.txt.gz
Theta_e
323 318 317 311 298 293 289 293 293 294 294 297 300 299 299 299 300 295 310 321 325 327 332 335 342 342 343 345 346 346 347 347 345 344 342 341 341 342 340 339 340 342 342 343 342 341 339 340 342
316 317 312 303 294 288 289 293 294 295 297 298 299 299 296 298 304 307 312 320 325 326 327 330 339 339 339 339 340 341 341 340 339 339 337 336 337 338 337 335 334 335 337 340 339 336 334 334 336
314 313 306 298 291 289 289 293 294 296 297 297 296 298 298 299 303 307 309 317 322 321 324 328 337 338 338 338 338 338 337 337 337 334 335 334 333 331 329 327 326 326 330 331 329 326 325 324 326
310 305 300 293 291 294 293 294 295 296 296 298 297 295 298 302 305 308 312 318 318 318 322 330 335 336 336 335 337 336 336 334 333 331 331 328 327 324 323 322 322 322 323 322 322 321 321 320 320
304 301 294 290 291 294 294 295 296 295 294 295 297 295 296 300 304 307 314 316 315 316 320 324 333 332 332 332 333 331 333 329 327 326 325 323 321 320 320 319 319 319 319 320 319 319 318 318 318
300 298 290 288 290 296 294 296 296 295 295 294 294 293 296 299 303 306 311 311 315 315 316 320 327 330 329 328 327 327 328 326 324 322 321 320 319 318 318 317 317 317 317 317 317 317 316 316 317
298 296 291 289 292 293 295 296 294 295 294 296 296 294 296 296 300 303 307 309 311 312 312 313 316 321 326 326 325 324 324 323 321 320 319 317 315 314 314 314 315 316 316 316 316 315 313 313 313
299 295 291 289 290 293 295 295 295 296 296 296 299 295 294 297 299 299 301 306 308 309 309 308 309 310 310 314 322 322 322 320 319 317 315 314 312 309 310 310 312 314 314 313 312 311 310 309 310
300 290 288 290 292 294 295 294 296 295 294 296 299 296 296 298 297 295 294 296 303 306 307 305 305 305 305 306 312 318 319 317 316 314 313 307 298 300 301 308 310 310 310 310 309 308 306 305 305
297 290 291 295 297 293 295 295 295 293 293 293 295 295 296 297 296 295 293 294 300 302 302 304 303 302 300 306 306 305 305 302 301 300 301 297 295 296 301 306 307 306 305 306 306 304 302 299 295
297 292 296 298 298 297 296 294 296 294 293 295 296 297 296 294 295 295 295 295 296 301 301 302 301 300 298 301 300 298 298 297 297 295 296 295 296 296 294 294 294 293 296 292 294 293 293 292 293
294 298 298 300 300 297 295 295 294 295 300 299 298 296 295 294 295 295 295 295 294 294 298 299 299 298 297 296 298 296 296 294 294 294 295 293 292 292 292 291 291 290 290 289 289 290 291 291 292
296 297 299 300 299 297 297 297 296 296 298 298 298 297 295 296 296 297 297 296 294 292 295 296 297 297 297 294 295 294 294 295 294 293 294 293 292 291 291 290 289 288 288 288 288 288 289 289 290
295 297 297 298 298 298 297 295 296 300 297 298 298 298 295 296 297 295 293 295 294 295 294 295 296 296 295 294 294 295 294 294 293 291 292 293 291 290 290 289 289 288 288 287 288 287 288 288 289
296 294 294 296 296 295 296 293 293 301 296 297 296 296 296 296 296 296 297 296 296 296 295 293 295 295 294 294 294 294 294 294 292 290 290 291 290 289 288 288 287 287 287 287 287 287 287 286 288
291 291 287 293 294 295 295 290 296 298 295 297 296 295 295 297 297 299 299 297 296 296 294 294 296 294 294 294 294 294 293 293 291 289 289 290 289 289 287 287 286 287 286 286 286 285 285 285 285
286 284 285 290 295 294 292 290 296 295 294 295 296 295 296 297 296 298 299 297 295 296 295 293 294 293 294 293 293 292 291 291 291 289 288 288 288 288 287 286 286 286 286 285 286 284 284 284 284
284 283 286 287 291 291 289 291 296 297 293 293 294 293 292 294 298 301 297 298 297 296 296 294 293 293 293 292 290 289 289 289 289 288 287 287 287 287 286 285 285 286 285 284 284 283 284 284 284
286 285 285 288 293 290 290 292 295 298 295 292 294 297 298 299 302 298 297 297 296 295 294 292 292 292 293 291 290 289 289 288 286 286 287 286 286 286 285 285 284 285 284 284 283 284 283 283 283
289 288 288 291 293 289 290 290 294 294 297 298 297 297 297 299 300 294 294 293 294 295 293 292 292 291 293 293 292 290 288 285 287 286 286 286 286 285 285 284 283 283 283 283 283 283 282 282 283
289 287 288 288 289 288 286 287 287 292 294 296 295 297 299 300 300 296 293 292 292 292 292 291 292 291 292 292 289 286 285 284 283 284 284 284 284 285 284 284 283 283 283 282 282 282 282 281 281
288 291 290 287 284 283 286 282 285 289 291 293 294 295 296 298 297 296 292 290 291 292 291 291 291 291 292 291 289 287 289 286 286 286 284 283 284 284 284 283 283 282 282 281 282 283 281 281 280
290 289 288 285 283 282 282 281 284 288 287 291 295 295 296 298 294 293 292 293 292 290 290 291 291 291 290 290 290 288 288 288 283 283 282 283 282 283 283 282 281 281 281 281 282 281 281 281 280
289 288 286 283 282 279 284 283 284 284 288 289 293 295 296 298 293 292 292 291 288 287 289 289 289 289 289 289 288 288 287 284 283 283 283 282 282 282 282 282 281 281 281 281 281 281 280 280 280
288 285 278 275 274 278 284 280 288 288 292 291 293 295 296 296 290 290 290 290 288 287 287 288 288 288 288 288 288 288 287 285 285 283 284 282 282 281 281 281 280 280 280 280 280 280 279 279 278
286 286 282 273 276 282 279 279 286 291 293 293 293 294 292 292 292 292 290 291 289 288 287 288 288 288 288 288 288 288 287 286 286 284 284 284 283 283 282 281 280 279 279 279 279 278 278 278 279
283 282 288 281 270 273 283 285 290 289 291 291 291 291 291 291 291 291 289 289 288 287 288 288 288 288 288 288 288 287 287 286 286 284 284 284 283 281 280 280 279 279 279 279 278 278 278 278 278
287 288 281 280 275 273 279 281 285 288 290 289 290 291 291 290 289 289 289 289 287 288 288 288 288 288 288 287 287 286 286 285 285 282 282 282 281 280 279 279 279 278 278 278 277 277 277 277 277
284 284 284 284 283 280 279 283 287 287 286 288 290 292 290 290 291 291 290 289 288 287 287 287 288 287 286 286 287 286 285 285 284 282 281 280 280 279 279 279 278 277 277 277 276 276 276 276 275
286 287 288 283 280 280 281 283 295 295 294 295 294 293 291 290 291 291 292 290 288 287 286 287 288 287 288 287 287 285 285 284 283 282 281 280 280 279 279 278 277 277 276 276 276 275 275 273 273

GFSSGP_sfc_thetae_003.txt.gz
Theta_e
320 316 314 310 297 293 288 291 295 293 293 296 298 298 298 298 299 294 310 321 324 328 330 337 344 345 347 349 349 349 348 347 346 345 344 343 342 341 340 338 340 342 343 342 341 339 337 337 338
314 315 310 301 293 286 288 292 293 294 295 297 297 296 296 297 303 306 313 320 324 327 330 332 341 344 344 347 347 347 347 345 343 341 339 338 337 338 336 336 336 337 338 338 335 332 330 329 329
313 311 305 297 290 288 289 291 293 295 295 295 294 297 296 298 301 306 313 321 323 324 327 330 340 341 341 342 343 341 341 340 337 336 336 336 334 332 330 329 329 332 332 329 327 325 324 323 323
309 304 299 294 291 294 293 294 293 294 295 297 295 294 296 301 304 308 312 320 319 320 323 331 338 339 339 340 340 339 338 337 336 335 335 333 330 327 325 324 324 325 324 323 322 321 320 320 320
303 299 291 289 289 293 293 294 295 294 293 294 295 294 296 299 302 307 315 319 317 317 320 327 336 338 337 338 338 337 337 336 334 334 331 328 325 323 322 322 321 321 321 321 319 318 319 319 319
298 296 289 287 289 294 296 295 295 294 293 293 293 293 296 297 303 306 313 314 316 317 319 323 331 334 335 336 335 335 334 332 329 329 326 324 322 321 320 319 320 319 319 319 318 318 317 317 316
297 294 289 287 290 292 295 295 293 293 292 295 295 292 295 296 301 308 310 311 313 315 316 317 320 325 329 332 331 332 331 328 325 324 323 321 319 318 318 317 318 318 318 317 317 314 314 313 313
298 294 288 288 289 291 295 293 294 294 295 295 298 294 294 297 300 305 307 308 309 311 312 312 313 316 316 318 325 327 329 326 324 322 321 319 316 315 315 316 317 317 316 315 313 311 310 310 310
297 289 286 288 290 292 294 292 294 294 294 294 297 295 295 296 298 300 300 303 306 309 309 309 309 309 309 311 315 322 324 323 322 319 317 313 301 302 304 311 315 313 313 312 310 308 306 305 305
296 287 289 292 293 295 294 294 294 294 292 292 294 295 295 295 296 299 297 302 304 307 307 308 306 306 305 308 309 309 311 309 306 305 303 297 295 297 301 307 311 309 308 309 307 304 302 297 293
296 292 294 297 298 296 295 293 295 292 293 294 295 297 295 294 294 297 299 302 305 308 307 306 306 303 302 303 303 303 302 300 299 298 297 294 294 297 295 294 292 292 296 291 293 291 291 291 291
294 297 296 298 299 296 294 295 294 294 300 298 298 296 294 294 294 296 296 297 297 302 306 305 304 302 299 299 301 300 298 296 295 294 295 292 293 292 291 291 290 289 289 288 289 289 289 289 290
295 296 299 299 298 297 297 296 295 295 299 297 297 296 295 295 296 297 298 297 295 296 302 302 302 302 300 297 298 296 296 297 294 293 294 293 291 290 290 289 288 287 288 287 287 287 288 288 289
295 296 297 297 297 297 296 298 295 299 297 298 296 296 294 294 296 295 294 296 295 295 295 299 300 301 299 297 297 297 295 294 293 292 293 292 291 290 289 288 287 287 287 287 287 286 286 286 287
295 293 293 293 294 295 295 293 292 300 295 296 295 295 295 295 295 296 298 297 297 296 294 295 298 298 298 296 295 295 294 294 293 291 292 292 291 289 289 288 286 286 286 287 286 286 285 285 286
290 289 286 291 292 293 293 288 297 297 294 295 296 295 295 296 296 298 299 298 297 296 293 294 297 297 297 296 294 294 293 294 293 290 290 291 290 289 288 287 286 286 286 285 285 284 284 284 284
285 283 284 288 293 292 291 288 295 294 293 294 294 295 296 297 296 296 299 299 297 296 295 293 294 295 295 294 294 293 292 293 292 289 289 289 289 289 288 286 285 285 285 284 285 283 283 282 283
283 282 284 284 291 289 288 289 294 296 292 293 295 296 298 299 299 302 297 298 297 295 295 294 293 294 294 293 292 290 290 290 289 290 288 288 288 288 287 285 285 285 284 284 283 282 283 283 282
285 284 284 288 291 287 289 290 293 296 296 297 297 295 297 298 301 302 296 295 295 293 293 293 292 292 293 291 290 290 290 290 289 288 288 288 287 287 285 284 284 284 283 283 282 283 282 282 282
287 286 287 291 292 287 289 289 292 292 295 296 298 298 298 298 299 300 294 293 293 294 293 293 292 291 293 293 293 290 292 287 289 287 286 286 286 285 285 284 283 283 282 282 282 282 281 281 281
287 286 288 287 288 287 286 287 289 290 291 295 296 298 298 297 298 299 293 292 292 292 292 292 292 291 293 293 290 285 284 283 283 283 285 285 285 285 285 284 283 283 282 282 281 281 281 280 281
287 289 289 287 283 282 285 281 284 290 292 293 294 295 295 296 298 297 293 291 291 293 292 292 292 291 292 292 290 289 288 287 287 288 287 284 284 284 284 284 283 282 282 281 281 282 281 280 279
288 289 286 284 282 281 282 279 284 287 288 289 292 293 295 296 296 296 292 293 292 290 289 290 290 290 291 291 291 289 289 289 284 283 282 283 282 283 283 283 282 281 281 281 281 281 280 280 280
288 286 284 282 282 278 283 282 286 284 288 288 291 293 294 294 295 292 292 291 290 287 288 288 289 289 290 290 290 289 289 285 284 283 283 283 283 282 282 282 281 281 280 281 281 281 280 280 280
286 283 277 275 273 277 282 280 288 288 290 291 294 291 293 292 292 295 291 291 288 286 287 288 288 288 288 289 289 288 289 286 286 284 285 283 282 282 281 281 280 281 281 280 281 280 280 279 278
284 284 278 272 275 281 279 278 288 291 292 290 291 291 291 292 293 290 292 290 288 287 286 287 288 288 288 288 288 288 288 287 286 285 285 284 284 283 282 281 280 280 280 280 280 280 279 279 279
283 281 287 281 277 277 283 285 290 289 289 288 289 289 290 291 291 290 291 288 288 286 286 287 287 288 288 288 288 287 287 287 286 284 284 284 283 283 281 281 280 279 280 280 279 279 278 278 278
286 287 280 279 273 274 279 282 285 289 292 289 289 289 291 292 291 291 290 289 287 287 287 287 287 287 287 287 288 287 287 287 286 283 283 283 283 281 280 280 280 279 279 279 279 278 278 278 278
282 282 283 283 281 279 278 282 293 292 288 288 291 293 293 290 292 292 292 291 289 288 287 288 287 286 286 286 287 287 286 287 285 283 283 283 282 280 280 280 279 279 279 278 278 277 277 277 277
286 285 285 280 280 281 282 283 294 295 292 293 295 297 295 291 294 293 292 291 291 289 288 288 289 287 288 288 288 287 286 285 284 283 282 283 281 280 280 279 279 279 279 278 278 276 277 276 275

GFSSGP_sfc_thetae_006.txt.gz
Theta_e
319 315 312 308 296 292 288 290 293 292 294 294 297 296 297 298 298 293 308 320 323 327 332 339 347 349 349 350 350 349 348 349 346 347 345 345 344 342 340 342 343 344 344 343 340 338 337 336 335
312 313 308 300 293 285 286 291 293 293 294 296 296 296 296 297 302 306 311 320 324 328 330 334 344 347 348 350 350 349 349 348 346 345 343 341 341 341 339 337 338 339 340 337 334 331 329 328 328
311 309 304 295 288 285 287 291 292 293 294 294 293 295 298 297 301 305 313 320 323 325 328 331 342 345 346 347 347 348 347 346 343 340 339 338 337 336 335 334 336 336 334 331 329 326 325 324 324
307 303 298 293 289 293 292 294 291 292 294 295 294 294 295 300 303 306 313 320 321 322 325 333 341 342 343 343 345 343 344 341 338 337 338 337 335 333 330 329 330 329 327 326 324 322 322 321 321
302 298 290 287 288 292 293 294 293 292 294 292 294 295 294 298 301 306 315 319 319 318 321 327 339 341 340 340 342 341 340 339 337 336 336 335 331 328 326 324 325 324 323 322 321 321 321 321 319
297 295 288 285 287 292 294 294 292 292 292 292 294 294 295 297 302 305 314 315 317 317 319 324 333 337 338 339 341 340 338 338 336 335 333 329 326 324 323 322 321 321 321 320 320 319 318 317 316
296 293 288 285 287 291 294 293 291 291 294 294 294 294 295 296 300 307 311 311 313 315 317 320 323 329 332 335 336 337 338 335 334 332 329 325 323 322 320 320 320 320 320 320 316 316 315 315 314
297 294 287 287 287 290 293 292 292 293 294 293 295 294 295 298 301 306 308 309 311 313 314 315 317 319 320 322 329 331 332 332 330 328 326 324 322 320 319 320 320 319 319 316 314 313 313 312 310
295 289 285 288 288 291 293 291 296 294 294 293 297 295 296 295 302 304 302 304 306 310 311 312 313 314 314 315 318 324 328 327 325 323 321 313 304 306 306 310 319 317 316 314 312 310 308 307 307
295 287 289 291 290 292 293 293 294 296 293 291 294 295 294 295 299 302 302 305 305 307 309 310 309 310 310 313 312 313 315 314 311 309 306 300 298 299 302 309 316 315 314 311 309 307 303 296 291
294 291 292 295 295 295 294 292 294 292 293 294 295 296 294 294 295 301 303 306 308 310 310 309 308 307 306 307 307 307 306 305 304 302 299 296 295 298 298 297 296 295 299 293 294 291 290 290 290
293 296 295 296 297 295 294 295 293 294 300 299 297 297 294 294 295 298 300 302 304 305 308 308 307 305 304 303 305 304 304 301 300 298 296 292 292 293 293 291 289 289 288 288 288 288 288 288 289
293 295 297 298 296 297 296 296 295 293 298 297 297 295 295 294 295 296 299 300 299 300 306 306 306 306 305 301 302 301 301 301 298 295 295 292 292 291 290 289 288 287 287 287 287 287 287 287 287
293 294 295 295 296 296 296 297 294 297 296 297 295 295 294 294 295 294 294 296 295 299 302 306 305 306 304 303 301 303 301 297 295 293 294 292 292 290 289 288 287 286 286 286 286 286 286 286 286
294 292 292 292 293 293 294 292 291 299 295 296 295 294 294 294 294 295 298 297 298 297 297 301 304 305 303 303 300 300 299 296 294 293 292 292 291 290 289 288 286 286 286 286 285 285 285 284 285
288 288 285 289 291 292 293 286 294 294 291 293 294 294 294 296 296 296 298 298 298 298 295 296 302 303 302 302 299 298 296 296 295 292 292 291 291 289 288 287 286 286 285 285 284 283 283 283 283
284 282 283 287 292 291 290 287 293 292 292 293 293 294 295 298 299 297 297 298 297 297 296 294 297 299 301 301 297 296 294 295 294 291 291 291 290 289 288 287 285 285 284 284 284 283 282 282 282
283 281 283 283 289 287 287 288 293 295 293 293 294 296 297 298 299 302 298 295 296 296 296 295 294 297 297 298 293 291 290 291 290 291 290 290 290 289 288 286 285 285 284 283 282 282 282 282 282
283 283 283 286 290 286 289 290 292 294 292 295 296 296 296 298 300 300 297 295 294 292 293 293 292 294 295 293 291 290 292 290 290 290 290 290 289 288 287 286 284 284 283 283 282 282 282 281 281
286 285 286 289 291 286 287 288 292 293 294 295 296 297 297 297 298 298 294 292 292 293 292 292 292 292 294 294 294 291 294 290 291 290 288 289 287 287 287 286 284 284 282 282 282 282 281 281 280
284 283 286 285 287 286 284 285 286 290 290 294 294 296 294 294 297 298 293 292 291 291 290 292 292 291 293 293 291 285 285 284 284 285 286 286 287 286 286 286 285 284 283 282 281 281 282 280 280
285 288 288 286 283 281 284 280 284 288 289 290 293 291 292 293 293 293 293 291 292 292 291 291 291 290 292 292 290 289 289 288 289 290 290 287 286 286 286 285 284 284 283 281 281 281 280 281 279
287 287 286 283 282 280 280 278 283 285 286 289 291 292 291 292 292 292 292 292 292 291 290 289 290 289 291 291 291 290 290 291 286 286 286 286 285 285 285 284 283 283 282 281 282 280 280 280 280
287 285 283 281 281 277 282 281 286 283 285 288 291 296 292 292 292 292 292 290 290 288 287 287 288 288 289 290 290 290 290 284 285 284 285 284 284 283 283 283 283 283 282 281 281 281 280 280 280
285 282 276 274 273 276 280 279 286 289 292 290 291 291 291 291 290 291 291 290 289 287 285 285 286 286 287 288 289 289 289 285 287 285 286 284 283 283 283 283 282 281 282 281 281 281 280 280 279
283 284 278 274 272 280 278 278 288 290 291 291 289 290 289 290 290 290 291 289 288 287 285 286 286 286 286 286 287 287 287 286 287 285 286 285 285 285 283 282 282 281 281 281 281 280 280 279 279
282 281 286 281 282 276 283 284 289 292 288 289 286 288 289 291 291 291 291 289 287 286 286 286 285 286 285 285 286 286 286 286 286 284 284 285 285 284 282 282 281 280 280 280 280 280 279 279 279
285 286 280 279 275 273 278 281 284 289 292 290 289 289 291 291 291 291 292 291 288 287 286 286 286 286 285 286 287 287 287 287 286 284 284 283 284 282 281 281 281 280 280 280 280 279 279 278 278
284 282 282 283 282 278 277 282 289 291 293 289 289 292 292 289 289 290 290 291 291 289 287 286 285 285 285 284 286 285 284 285 284 283 284 284 282 281 281 281 281 280 280 280 280 279 278 278 277
286 287 286 282 280 281 281 281 293 292 294 290 287 287 288 288 287 288 289 289 290 291 292 291 288 286 286 285 285 284 284 283 283 283 283 283 282 281 281 281 280 280 280 280 280 279 278 278 277

GFSSGP_sfc_thetae_009.txt.gz
Theta_e
320 317 315 312 300 297 293 295 297 298 299 301 300 301 302 302 302 299 313 323 326 329 337 346 348 350 351 351 350 349 348 348 349 347 346 345 345 344 343 344 345 347 345 344 341 337 337 336 336
315 315 311 304 296 290 290 295 297 298 301 301 301 302 302 302 306 310 317 321 326 331 338 344 345 349 350 351 350 349 348 349 347 347 346 345 343 342 339 339 340 343 341 339 335 332 330 329 329
313 310 306 298 292 289 291 296 297 299 300 301 301 302 303 303 306 310 317 324 326 331 337 339 345 349 350 350 350 350 349 349 347 346 343 340 339 338 336 336 337 337 337 333 330 327 326 325 325
310 306 301 297 293 295 295 299 297 298 299 300 301 299 301 305 308 311 317 323 327 330 333 337 344 347 347 349 349 348 349 348 344 342 339 339 338 335 333 333 335 333 331 329 325 324 324 324 323
304 300 293 291 292 295 296 298 299 298 298 299 300 299 300 305 307 311 319 323 326 328 331 335 342 344 345 345 347 346 347 343 342 338 338 338 335 333 330 329 329 328 326 323 323 323 323 320 320
300 298 291 289 290 294 296 298 298 297 298 298 298 299 301 304 305 310 318 322 324 326 327 331 335 339 342 340 343 344 344 343 340 338 336 335 333 329 327 326 325 324 323 322 322 321 319 319 317
299 295 291 290 291 293 297 297 297 298 298 298 300 299 302 301 304 310 317 319 321 323 324 328 333 335 334 336 338 340 341 340 339 336 335 333 329 326 324 323 323 323 322 321 319 318 318 317 315
299 297 292 291 291 292 297 296 297 297 299 299 300 298 300 304 305 311 314 317 318 319 322 324 328 329 333 335 331 334 336 337 337 335 332 327 326 325 324 324 323 322 322 319 317 316 316 314 312
299 292 288 291 290 293 296 295 297 298 298 297 299 300 302 300 307 309 311 313 314 315 318 320 323 325 326 328 328 329 331 331 330 328 324 321 318 318 318 317 323 321 319 316 315 314 312 310 308
297 290 291 293 292 294 296 296 298 297 297 296 298 299 299 300 304 306 308 311 312 314 315 316 319 321 321 320 324 326 327 327 324 321 318 312 311 311 310 313 320 320 317 314 312 309 304 298 297
296 293 294 295 295 296 296 295 297 296 296 298 298 300 299 298 300 304 307 310 312 315 315 315 316 318 317 318 318 319 321 320 317 315 310 307 306 308 308 310 309 309 307 305 304 299 297 297 296
294 296 296 298 298 296 296 297 296 296 302 302 300 300 299 298 298 300 304 307 309 310 313 315 314 314 314 315 315 316 316 314 313 311 307 304 302 304 304 304 303 302 300 298 296 296 296 295 294
295 296 298 298 297 297 297 297 296 296 300 299 299 298 298 297 298 299 302 306 307 307 311 312 313 314 313 311 313 313 313 312 311 307 304 302 300 301 301 300 297 297 295 295 294 294 294 294 293
295 295 295 295 296 296 296 297 296 298 299 299 297 298 297 296 298 297 297 300 301 306 307 311 311 313 313 312 311 312 312 311 307 306 304 300 299 300 299 296 294 294 294 293 294 293 293 293 293
294 292 293 292 293 293 295 293 292 299 295 297 298 296 296 296 297 297 300 299 301 302 305 308 310 312 311 311 310 310 310 306 306 304 302 299 298 297 297 295 293 293 293 293 292 291 291 291 291
290 289 287 291 292 292 294 289 295 296 293 294 295 297 296 299 298 298 299 300 300 301 300 303 308 309 310 310 310 309 307 306 306 303 301 299 297 296 295 294 293 292 291 292 291 291 290 290 291
286 284 284 287 292 291 291 289 293 294 293 293 295 297 299 300 301 302 299 300 300 300 300 299 304 307 308 309 309 308 305 305 304 301 299 298 296 295 295 294 292 291 291 290 290 289 290 289 289
283 282 283 284 291 288 288 288 293 295 294 296 297 297 297 298 299 302 300 299 299 299 299 299 299 304 306 307 306 304 300 303 301 299 298 296 296 294 294 293 292 291 290 289 289 289 288 289 289
285 283 283 287 290 287 290 290 291 294 293 294 296 297 298 298 301 300 299 299 298 297 296 296 295 299 302 302 299 297 297 299 297 298 297 296 296 294 294 293 291 290 290 289 289 288 288 287 288
286 285 285 288 290 286 287 289 293 294 295 296 296 297 296 296 298 299 297 297 297 297 295 295 295 296 299 301 301 299 300 298 298 297 295 296 295 294 293 292 290 289 289 288 288 288 287 287 287
285 284 286 285 286 287 285 285 287 292 291 293 295 295 295 294 295 296 296 296 296 296 295 294 294 294 297 298 297 290 291 290 291 291 292 292 293 292 293 292 291 289 289 288 287 288 289 287 286
284 288 287 285 283 280 286 280 284 290 290 291 292 292 292 293 295 294 293 294 294 295 295 294 294 293 295 296 295 295 294 293 293 295 294 292 292 292 292 291 290 289 289 288 287 287 288 288 286
287 287 285 284 282 281 281 278 284 286 287 289 292 294 294 293 293 294 294 294 294 292 292 293 292 292 294 294 295 294 294 295 292 293 292 291 290 291 290 290 289 288 288 288 287 286 286 287 287
287 285 283 282 282 277 282 281 283 284 288 288 291 294 293 293 293 296 293 293 292 291 289 290 290 290 291 293 293 293 293 291 290 290 290 289 288 288 288 288 288 288 288 287 286 287 287 286 286
286 283 278 276 274 277 281 279 285 288 292 291 293 292 291 292 292 293 292 291 290 290 288 288 288 288 289 290 291 292 292 289 291 290 291 288 287 287 287 287 287 287 287 286 286 286 286 285 285
283 284 280 274 275 281 277 280 289 289 292 291 290 290 292 292 291 290 290 291 290 290 288 288 287 288 288 288 289 290 290 290 290 289 290 289 288 288 288 287 287 287 286 285 285 286 286 285 286
282 281 287 281 279 278 282 285 292 293 289 289 289 288 287 288 288 289 289 290 291 291 290 288 287 287 288 287 288 288 288 288 288 287 288 289 289 288 288 286 285 285 285 284 284 284 284 284 285
286 287 281 279 274 275 280 282 284 289 286 286 286 285 285 286 286 287 288 289 290 291 291 291 290 288 288 288 287 288 288 288 287 286 286 286 287 286 285 285 285 285 284 284 284 284 283 283 283
282 282 282 283 282 278 277 281 289 283 284 283 283 283 283 283 285 286 287 289 289 290 290 289 290 289 289 289 289 287 287 287 287 285 285 286 285 285 284 284 284 283 283 283 283 283 282 282 282
286 286 286 282 280 281 282 282 292 283 283 281 280 281 282 283 285 286 287 288 289 288 289 288 289 288 288 289 288 288 287 286 285 286 285 285 284 284 284 284 283 283 283 283 282 282 282 282 281

GFSSGP_sfc_thetae_012.txt.gz
Theta_e
325 324 327 323 307 305 300 301 304 304 304 306 307 307 307 308 305 302 320 329 331 333 344 349 350 352 351 351 351 349 348 349 349 348 346 345 346 346 346 346 347 346 345 344 342 339 337 337 335
322 321 324 317 302 297 298 303 303 305 306 307 306 307 306 306 312 314 320 327 331 333 343 347 347 350 351 351 351 349 348 348 349 348 347 346 344 342 340 342 345 344 341 340 337 333 331 330 328
319 318 313 308 303 297 299 303 304 304 306 306 306 308 308 308 311 316 323 328 331 333 341 345 345 350 350 351 351 349 348 348 348 348 347 345 341 338 337 337 337 337 337 335 331 329 327 325 325
320 317 312 302 298 302 302 305 306 306 305 305 306 305 308 312 313 317 322 330 332 333 338 342 346 349 350 350 350 349 348 349 348 347 343 340 338 338 334 335 337 336 334 331 327 326 325 323 322
318 313 303 299 298 301 304 305 305 304 305 305 305 305 306 310 313 316 324 330 332 333 338 342 344 347 349 349 350 349 348 349 347 343 341 340 339 336 334 333 334 332 329 326 325 325 322 321 319
310 310 299 297 298 301 304 306 304 304 305 305 304 305 308 311 311 315 323 329 332 333 338 341 338 341 344 346 348 348 349 347 344 341 338 339 336 334 331 330 330 328 325 324 324 322 320 319 317
306 304 298 298 299 301 304 304 304 305 304 305 307 304 309 310 311 315 322 328 331 334 336 339 341 340 336 340 341 343 344 343 343 341 338 338 335 331 329 327 326 325 323 323 321 320 319 317 315
311 307 299 300 299 298 304 303 305 305 305 306 307 305 306 311 312 317 322 326 329 332 334 336 338 340 340 340 332 335 339 339 339 337 334 332 330 329 327 325 325 323 323 321 320 319 317 315 312
308 302 298 298 298 300 304 303 304 306 305 305 307 308 312 309 312 316 319 322 325 326 330 333 335 337 337 337 333 330 332 334 333 332 328 325 328 325 322 322 325 323 321 319 318 316 314 311 308
306 301 300 303 303 302 304 303 305 304 305 306 306 310 310 308 311 312 315 317 321 324 326 329 331 333 334 333 336 337 337 337 336 334 332 329 325 323 320 318 321 324 320 317 315 313 308 302 304
305 301 304 303 303 303 303 303 304 304 303 307 306 309 311 308 309 310 312 315 318 322 325 325 327 330 331 331 332 334 335 336 335 333 330 326 321 319 318 318 319 320 315 314 311 307 303 303 303
301 305 305 305 304 303 302 305 303 304 306 309 310 311 310 309 308 309 310 313 315 318 322 324 325 326 329 330 330 331 332 333 330 329 326 321 319 317 315 316 317 317 314 311 307 303 303 302 300
301 303 305 305 304 304 305 303 303 304 308 309 309 308 307 308 309 310 311 312 314 315 318 321 324 324 326 327 327 328 328 329 328 325 322 320 317 314 313 314 314 313 311 307 302 302 301 300 299
302 302 302 303 302 303 300 302 301 304 307 306 307 307 308 307 308 308 309 308 310 313 315 318 321 323 324 325 325 326 326 327 327 323 320 318 316 312 310 311 311 309 306 302 302 301 300 300 299
301 298 301 301 301 300 301 298 298 305 305 304 305 307 307 307 308 307 309 309 310 311 313 315 318 320 322 322 324 324 324 323 324 321 319 315 314 310 308 308 308 305 302 301 300 299 299 298 297
297 296 294 300 298 299 300 294 302 305 302 302 304 305 306 307 308 310 310 309 310 310 310 312 314 317 319 321 322 322 322 321 320 320 318 314 311 309 306 306 304 302 300 299 299 298 297 297 297
296 292 293 295 299 297 298 295 301 303 301 301 303 304 305 306 307 309 310 310 309 310 309 309 311 313 316 319 320 321 320 319 318 318 316 313 310 307 305 304 303 300 298 298 298 297 297 296 296
293 293 293 292 298 297 295 294 298 300 300 300 301 303 304 305 306 308 308 308 309 309 309 309 308 310 313 316 318 318 317 317 317 316 314 312 309 305 304 302 302 299 298 297 297 296 296 297 296
294 293 292 295 298 295 295 295 297 300 300 300 301 303 304 304 306 307 307 307 306 307 306 306 306 306 310 311 312 314 313 313 313 314 312 311 309 305 303 302 300 298 297 297 297 296 294 294 295
294 292 292 296 297 293 294 294 297 299 299 301 301 302 303 303 303 304 304 304 304 304 305 305 304 304 307 309 311 311 311 311 311 311 310 309 307 304 302 302 300 298 297 297 296 295 294 295 294
293 291 292 292 294 295 293 294 295 300 299 301 300 302 301 301 300 301 301 300 300 300 300 301 302 303 304 307 308 308 305 306 306 306 306 305 306 304 302 301 300 298 298 296 296 296 296 294 293
290 296 293 291 290 289 293 287 295 298 298 298 300 301 301 301 300 298 297 297 297 297 298 299 300 300 301 303 304 303 302 301 302 303 303 303 303 302 301 301 299 299 297 297 297 296 297 298 293
293 293 291 290 290 288 291 287 295 294 294 297 299 299 299 298 297 296 296 296 297 296 296 297 298 298 299 300 301 301 301 302 303 301 302 301 301 301 300 299 298 298 297 297 296 295 295 296 297
292 292 290 290 290 285 291 289 291 293 294 296 296 296 295 295 296 295 296 297 296 296 296 295 295 295 296 298 299 299 299 299 299 298 298 299 299 298 298 298 298 297 296 296 295 295 295 295 295
291 290 287 286 285 284 289 286 291 296 296 293 293 293 293 294 294 294 293 294 295 294 294 294 294 293 294 294 295 296 297 298 297 298 297 298 297 295 296 296 296 296 296 295 295 294 294 294 294
291 291 287 280 282 285 285 285 291 296 294 293 293 292 292 292 293 293 293 293 293 293 293 294 293 293 293 293 293 294 294 295 296 296 297 297 297 296 296 295 295 295 295 294 294 293 293 293 293
290 287 293 286 287 283 287 292 297 297 291 292 291 290 288 289 290 291 292 293 292 292 292 292 291 291 292 293 293 293 293 293 293 294 295 295 296 295 296 294 293 294 294 293 293 291 291 291 291
291 293 286 285 278 278 283 286 288 290 289 289 287 286 287 288 288 289 290 291 291 292 292 291 292 290 290 292 292 293 293 292 292 293 292 292 293 293 293 293 292 293 293 292 291 291 291 290 290
289 286 286 286 285 280 279 284 292 291 288 286 285 285 285 286 287 288 289 291 291 290 290 290 290 289 289 289 290 291 292 292 291 291 292 291 292 291 291 291 291 291 291 291 290 290 290 288 289
291 289 289 283 282 284 283 283 289 287 286 284 282 283 284 285 286 288 288 288 289 288 288 288 288 288 288 288 288 288 289 289 289 290 290 291 290 291 290 290 289 289 289 289 289 288 288 287 287

GFSSGP_sfc_thetae_015.txt.gz
Theta_e
327 326 326 322 308 305 301 302 307 305 306 309 310 308 307 309 306 303 323 329 331 334 342 348 351 352 352 351 351 350 349 349 350 349 347 348 347 346 347 348 348 347 346 344 342 341 338 337 334
323 322 323 314 303 299 299 305 303 306 308 310 309 309 308 306 313 315 321 329 332 333 342 346 348 351 351 351 351 350 348 349 349 348 346 346 346 343 342 346 346 344 342 340 338 335 333 331 329
322 320 313 307 303 299 299 304 306 307 310 308 308 311 309 309 314 317 326 330 332 333 342 346 347 351 351 351 351 349 348 348 349 348 347 345 344 341 340 338 339 339 338 336 333 330 329 327 325
319 317 313 303 300 303 303 306 307 307 309 308 309 306 312 315 315 320 325 331 331 332 340 344 347 350 351 351 351 349 348 348 349 348 348 344 339 337 335 335 336 337 335 333 329 327 326 324 321
318 312 304 301 301 303 305 307 308 306 308 308 308 306 308 314 316 319 325 330 331 331 336 344 345 348 349 350 351 350 348 348 350 350 347 344 339 336 334 334 336 335 332 329 326 326 323 321 319
310 310 301 299 300 303 307 308 308 307 308 308 306 307 309 316 314 317 323 329 332 332 336 338 340 343 346 348 349 349 349 350 350 347 344 340 339 336 334 333 333 332 329 326 326 323 320 319 317
308 305 301 301 300 302 305 308 306 306 306 307 310 305 310 313 315 317 322 327 331 334 335 338 341 342 337 342 344 346 347 348 346 343 341 339 338 335 333 331 331 329 326 325 324 321 319 317 315
311 307 301 302 300 300 306 307 308 307 306 310 311 305 307 315 315 318 322 325 329 332 335 337 338 340 341 343 335 338 341 341 341 339 335 334 333 332 331 328 328 326 324 324 322 320 318 316 312
312 302 300 301 300 302 307 304 308 310 307 309 310 309 313 313 315 317 320 322 325 328 333 335 336 338 338 339 336 331 334 336 335 334 329 328 333 330 326 324 327 326 325 322 320 318 316 313 309
307 303 302 306 305 303 305 305 306 306 306 307 309 313 314 314 313 313 315 317 321 324 328 332 334 335 337 336 337 337 337 337 337 336 335 332 332 328 323 320 324 326 323 321 319 317 312 309 306
307 302 305 306 307 307 305 304 307 304 303 307 306 309 312 312 313 312 313 315 317 322 325 328 331 333 334 335 335 337 336 336 334 336 335 332 331 326 322 322 320 322 317 316 315 311 305 306 306
303 306 306 307 307 305 304 306 304 305 306 310 310 311 311 310 311 311 312 313 315 317 321 326 328 330 332 333 333 334 334 336 337 336 335 332 329 324 321 319 320 322 318 316 314 308 308 305 304
303 304 306 307 307 306 306 304 304 304 308 310 310 310 310 310 311 312 313 314 315 315 318 322 327 327 329 331 332 332 332 333 335 334 334 331 326 321 319 318 319 320 317 314 311 306 305 305 302
305 304 304 305 304 304 302 303 304 305 309 308 308 308 309 310 310 311 312 312 313 315 316 320 323 327 326 328 331 330 331 332 333 332 331 328 324 320 317 316 317 317 315 311 307 305 304 303 303
303 299 302 303 304 302 303 299 300 306 308 306 306 307 308 309 310 310 311 312 313 314 315 318 321 324 325 326 327 329 330 329 330 330 329 326 323 319 316 314 314 314 312 308 305 304 304 302 301
299 300 295 302 301 302 301 295 303 306 305 304 305 306 307 308 309 311 312 312 313 313 313 315 316 319 324 324 326 327 328 328 328 328 327 323 321 318 314 312 312 312 307 304 303 302 301 301 299
299 293 296 298 303 300 299 296 302 305 304 302 304 305 306 307 309 310 310 310 311 311 311 312 314 316 319 323 324 325 326 326 326 326 325 323 319 317 312 310 310 309 304 302 301 300 300 300 299
295 296 297 296 301 300 298 298 301 304 303 303 305 306 306 307 306 307 307 308 308 309 310 310 311 312 315 318 322 323 324 324 324 323 322 321 318 315 311 309 308 305 302 301 301 300 300 300 299
298 296 295 298 301 299 297 297 299 303 304 304 305 306 306 305 306 305 304 304 304 304 304 306 307 309 310 313 315 317 318 320 320 321 321 319 317 314 311 307 306 303 301 300 300 300 299 299 298
296 294 294 298 301 296 296 296 299 302 302 305 303 304 303 303 302 301 301 301 300 300 301 302 304 306 307 310 313 314 315 317 317 318 318 317 316 313 309 306 304 302 300 300 299 299 297 298 297
295 294 294 294 297 298 297 295 300 303 305 305 303 303 302 299 299 299 299 299 299 298 299 300 301 303 305 307 309 311 312 308 310 312 313 313 313 312 309 306 304 302 300 299 299 298 297 295 296
292 298 296 294 292 290 296 287 295 300 301 300 300 300 299 298 299 298 298 297 297 298 299 299 299 300 301 304 305 305 305 303 306 306 309 309 310 310 308 306 304 302 300 299 299 298 298 298 293
294 295 294 294 292 292 293 291 294 299 297 299 298 298 298 298 297 297 297 297 297 298 298 299 298 297 298 300 301 301 301 303 305 304 303 305 306 306 307 305 303 301 300 299 298 297 297 298 296
295 294 294 294 293 287 293 291 292 294 295 295 296 296 296 296 297 296 297 297 296 297 297 298 297 296 297 297 297 298 298 299 300 301 300 302 303 304 304 303 302 301 300 298 298 297 296 296 297
293 291 287 286 287 286 294 289 292 298 299 297 295 294 295 296 296 295 295 294 294 294 295 294 294 294 296 296 296 295 295 296 297 298 299 300 300 300 300 301 300 299 299 298 298 297 295 296 295
294 294 288 281 283 287 292 286 292 296 296 296 295 294 294 293 294 294 294 293 293 293 293 293 292 291 293 294 295 295 295 294 295 295 296 297 298 299 301 299 299 298 298 297 297 296 295 295 295
292 289 293 286 287 284 288 292 297 297 294 293 292 291 290 291 292 292 293 293 292 292 292 291 291 290 290 291 293 293 293 294 293 294 294 294 295 295 296 298 297 296 297 296 295 294 293 293 294
293 297 287 287 278 278 284 286 288 294 294 291 289 289 289 290 290 291 291 292 291 291 291 291 290 289 289 289 290 290 291 291 292 293 292 293 293 293 293 294 295 294 294 294 294 293 292 292 292
291 288 289 288 286 280 278 284 293 292 292 289 287 288 288 288 288 290 289 290 289 289 289 289 288 288 287 288 289 289 289 288 288 288 289 291 291 291 291 291 291 292 292 293 292 291 291 290 290
294 290 290 283 282 285 283 283 296 291 289 288 286 286 287 287 285 287 288 287 287 287 287 286 287 287 287 286 287 287 288 287 286 286 286 288 288 290 290 290 290 290 290 291 291 289 289 289 289

GFSSGP_sfc_thetae_018.txt.gz
Theta_e
327 324 321 317 304 302 297 299 300 302 302 303 305 303 301 302 301 298 316 325 328 334 342 347 351 352 352 352 351 351 351 350 349 349 348 349 348 347 347 348 350 348 346 345 343 341 340 336 333
320 319 317 311 299 294 294 298 301 302 303 303 304 303 302 301 308 313 317 325 327 332 342 345 349 351 352 351 351 351 351 351 350 349 348 348 347 346 347 348 347 345 343 341 339 337 335 331 330
320 318 309 303 298 294 294 300 301 303 306 303 302 304 301 303 309 312 321 327 327 329 342 345 347 352 352 351 351 350 350 351 351 349 347 347 345 343 342 342 342 341 340 337 335 333 330 329 325
317 313 308 297 296 298 298 300 302 303 303 304 303 301 303 307 309 316 323 328 325 328 340 343 348 351 351 351 351 350 349 349 350 349 347 346 345 338 338 338 337 339 337 334 331 330 328 324 322
314 309 299 296 297 299 299 303 303 301 301 301 302 301 302 307 314 316 322 326 324 326 334 344 346 349 350 351 351 351 349 349 350 350 348 346 342 338 334 334 335 335 333 331 329 328 324 322 319
306 304 296 294 296 300 302 304 302 301 301 301 298 299 301 309 309 312 318 322 326 326 332 343 341 343 347 348 350 350 349 349 350 350 349 346 342 340 335 333 334 334 332 328 328 324 322 320 317
304 302 296 295 296 297 301 302 299 300 300 301 302 296 301 305 310 311 314 319 324 327 330 334 340 340 338 342 344 346 348 348 349 349 345 343 341 339 335 334 333 332 329 327 326 322 320 319 316
306 302 295 294 295 296 301 301 301 300 300 303 302 297 300 305 310 310 314 317 321 325 329 330 336 338 340 339 336 339 342 344 345 342 338 335 335 334 332 330 333 330 327 326 323 321 319 317 313
309 297 294 297 296 297 302 298 301 303 300 302 304 302 305 310 311 310 313 315 318 322 327 329 330 334 337 338 337 333 336 337 336 334 330 328 328 327 326 325 329 328 327 325 322 321 318 315 310
302 297 298 301 300 299 301 300 300 299 299 300 301 305 307 307 306 307 308 310 314 318 322 327 329 330 333 336 334 336 336 337 336 335 331 329 327 325 325 320 324 327 326 325 322 319 316 311 300
303 297 302 302 304 303 301 300 301 298 297 301 300 303 305 304 303 305 306 307 309 317 321 324 327 328 330 331 329 334 335 332 334 334 332 329 327 322 317 314 316 316 317 313 314 310 304 301 298
299 303 303 304 304 302 300 302 300 300 301 305 304 305 304 303 303 304 304 306 306 309 315 321 325 326 327 329 328 327 329 328 329 330 331 328 325 318 314 313 312 313 310 309 307 303 300 299 298
300 302 304 304 302 301 303 300 299 300 303 305 305 305 303 303 304 305 306 307 306 307 309 316 322 323 325 326 326 326 326 328 329 328 330 327 325 315 313 311 311 313 310 307 305 300 299 298 297
301 301 301 301 301 301 299 299 298 300 303 302 303 302 302 302 303 302 304 306 306 308 308 311 318 322 322 324 325 325 325 325 327 330 329 326 322 314 311 309 310 311 309 306 302 298 297 296 296
301 295 298 300 300 299 300 295 296 301 300 300 300 300 301 302 303 302 303 304 305 307 308 310 312 319 319 320 322 323 323 324 324 324 324 323 319 314 311 308 309 309 306 303 299 297 297 295 296
296 295 290 298 298 298 296 290 298 301 299 300 301 299 301 302 303 303 304 304 305 305 305 307 310 312 317 318 319 322 322 321 321 322 321 321 318 314 309 306 307 307 303 299 296 295 294 293 293
293 288 291 295 299 297 294 291 298 301 299 299 300 299 300 300 300 301 301 301 301 301 302 304 306 308 311 316 317 318 320 319 319 320 320 318 317 314 308 305 305 304 300 296 296 294 293 292 291
290 290 292 291 296 296 293 292 297 299 299 299 299 300 299 298 298 299 299 299 299 299 300 301 303 304 308 311 313 314 316 317 317 317 317 318 315 313 307 303 303 301 297 295 294 293 293 292 292
294 292 291 294 298 294 293 293 295 299 299 299 298 297 297 297 298 298 298 297 297 297 298 298 299 301 303 306 307 309 310 312 313 314 315 315 313 311 306 302 301 298 297 295 294 293 292 291 290
293 290 290 294 297 293 292 292 296 299 299 300 297 296 296 296 296 297 296 295 295 295 295 296 298 298 300 302 306 307 307 308 310 312 312 313 313 310 307 302 299 297 294 294 293 293 291 291 291
292 290 290 290 294 292 291 289 293 299 298 298 297 296 296 295 294 294 294 294 294 294 294 295 295 297 298 300 303 303 304 301 301 302 306 308 311 309 307 303 299 296 294 294 293 293 292 288 289
289 295 293 291 288 284 292 282 290 295 293 295 294 293 293 293 294 294 293 293 293 293 294 294 295 295 296 297 297 297 298 297 298 300 300 302 306 306 306 303 300 296 295 293 294 294 293 290 289
292 293 290 289 287 286 287 284 288 294 290 292 292 293 292 292 293 292 292 292 293 292 292 293 294 294 294 294 294 294 294 295 296 296 296 296 300 302 302 301 299 297 295 293 293 292 292 292 289
293 290 290 289 287 280 287 287 286 288 290 290 292 292 292 292 292 292 293 292 291 291 290 290 291 292 293 293 293 291 290 291 291 292 292 294 295 297 299 299 297 297 295 293 292 291 291 291 290
290 287 281 279 278 279 289 285 287 291 293 293 291 290 291 291 290 290 289 289 289 288 289 289 288 288 290 291 291 291 290 290 289 290 290 290 291 293 294 295 295 294 294 294 293 291 290 290 291
290 290 283 276 275 279 285 281 288 292 293 292 291 290 289 289 289 289 289 288 288 288 288 287 287 286 287 288 289 289 289 290 290 290 289 289 289 290 291 292 293 294 294 293 292 290 289 289 289
288 286 292 283 281 278 283 288 294 292 290 289 288 288 287 287 288 288 289 288 287 287 287 286 285 285 285 286 286 286 286 286 287 288 289 289 289 290 289 289 289 290 291 291 290 288 287 288 288
291 292 284 284 277 274 280 281 283 288 288 287 286 286 286 286 286 286 286 287 286 286 286 285 285 284 284 285 285 286 285 285 285 285 284 286 288 288 288 288 288 289 288 289 288 287 287 287 286
287 285 287 287 283 276 275 278 288 288 288 285 285 286 285 285 283 286 285 284 285 286 285 284 284 284 283 284 285 285 284 285 284 283 283 284 284 285 286 287 286 286 287 287 287 286 287 286 286
289 288 289 282 280 282 282 281 288 286 285 286 285 286 287 286 284 286 287 285 285 284 284 283 284 284 284 283 283 284 284 283 282 282 282 282 283 284 284 285 286 285 285 286 285 285 286 285 284

GFSSGP_sfc_thetae_021.txt.gz
Theta_e
324 316 315 309 298 295 290 293 295 298 297 300 301 300 298 299 299 295 314 322 334 339 344 348 351 353 353 353 352 352 352 350 349 348 347 347 348 347 346 348 350 349 347 346 344 342 340 335 334
314 317 310 303 294 288 289 293 296 298 300 300 301 300 298 298 305 312 314 324 329 339 343 346 348 351 353 352 351 351 352 351 349 349 349 349 348 347 347 349 348 346 344 343 341 339 335 332 329
317 314 302 296 291 288 290 293 294 299 301 300 299 301 299 301 306 313 319 325 327 338 341 346 347 351 352 351 351 350 351 351 351 350 349 348 347 346 347 346 344 343 341 339 337 335 332 328 325
310 307 301 293 290 293 292 293 297 298 299 301 299 297 300 303 308 315 322 325 323 336 340 344 348 351 352 351 351 350 350 351 352 349 347 347 345 345 341 342 342 341 338 336 333 332 329 325 322
307 301 293 291 292 294 295 298 298 297 297 299 300 297 298 306 313 318 321 324 321 326 338 343 347 350 351 351 351 350 350 350 351 351 349 348 346 341 337 337 336 338 335 333 331 329 325 322 319
301 297 290 288 290 295 296 299 298 297 297 297 296 297 297 305 306 311 320 322 323 325 339 343 341 344 347 349 349 349 349 349 350 350 350 349 343 340 335 334 335 334 333 330 330 325 323 320 317
300 295 290 291 291 293 297 298 295 295 296 297 299 294 299 301 307 310 315 319 322 324 336 340 342 341 340 343 344 346 347 347 348 349 348 346 341 340 338 335 334 333 333 330 328 323 321 318 315
300 295 291 291 291 292 297 297 299 296 297 300 299 294 297 303 309 310 311 314 318 322 326 335 337 339 339 340 336 339 342 343 344 344 341 337 336 336 333 331 333 333 331 328 326 322 321 318 313
301 291 289 291 292 293 298 296 299 299 297 298 301 299 301 305 308 307 310 311 314 319 324 327 333 335 337 336 336 333 336 337 338 337 332 329 329 328 327 326 330 332 329 327 324 322 319 316 310
297 291 293 296 294 294 297 296 295 296 296 296 298 300 300 306 304 305 305 308 310 313 318 325 327 332 334 339 336 334 335 336 336 334 332 330 326 324 324 321 326 328 327 327 323 321 318 309 298
298 293 297 300 300 299 298 298 298 295 294 298 297 299 301 301 301 303 303 305 308 312 316 323 326 327 331 334 331 334 336 332 332 334 330 329 327 324 320 317 318 317 319 316 317 313 306 303 299
294 300 299 301 301 299 297 299 298 297 300 301 301 301 300 301 301 300 301 302 303 306 315 319 324 325 326 329 328 332 333 331 327 332 331 328 326 322 314 313 312 312 310 308 306 304 301 298 296
295 298 301 301 300 298 299 297 297 298 302 302 302 302 299 299 299 300 302 303 303 303 306 316 321 325 326 325 325 324 329 329 329 325 328 330 327 322 312 311 311 310 308 306 304 302 297 296 295
297 297 297 298 299 298 297 296 296 298 298 299 299 297 298 298 298 299 300 300 301 302 303 307 318 323 323 325 323 323 323 324 324 325 325 323 324 321 314 310 310 310 308 305 303 299 296 295 294
297 293 295 296 296 296 297 293 294 299 298 297 297 296 299 298 298 297 298 298 299 300 301 302 308 318 319 320 322 321 322 322 322 323 324 324 321 317 312 309 309 310 307 304 299 296 295 293 294
293 290 288 295 296 296 294 288 296 298 296 297 297 295 295 296 296 297 297 297 297 298 299 300 303 311 317 317 318 321 320 320 320 321 321 323 320 316 310 307 307 307 305 302 297 295 293 292 291
288 285 287 291 297 295 292 288 296 299 296 297 294 294 295 295 295 296 296 296 296 296 297 298 300 301 309 315 315 316 319 318 318 319 318 321 318 314 312 307 306 305 301 298 296 292 292 290 290
286 285 289 288 294 293 290 290 293 297 296 295 292 292 293 293 293 295 295 296 295 295 296 297 298 300 303 308 310 311 313 314 315 316 317 319 318 313 310 305 305 303 299 295 293 292 291 290 290
288 288 287 290 295 291 291 290 293 296 295 295 292 292 293 293 294 294 294 294 294 294 294 295 296 297 299 302 305 306 307 309 311 315 317 317 316 314 308 304 303 300 299 296 293 291 291 289 288
290 288 287 291 294 291 291 290 294 295 295 294 293 292 292 292 292 293 293 293 292 292 293 293 294 295 296 299 301 303 302 301 304 309 312 314 313 313 309 304 301 298 295 293 292 292 289 290 289
289 287 287 288 291 290 288 287 291 295 293 294 293 293 293 291 291 291 291 290 291 291 291 293 293 294 294 295 297 299 299 298 299 300 304 307 310 310 308 305 301 299 298 294 293 291 291 289 288
287 292 291 290 285 282 288 280 288 291 289 291 290 290 290 290 291 290 290 290 289 289 290 291 293 293 293 293 292 292 292 292 294 295 296 297 300 304 306 305 302 299 297 295 292 293 291 289 287
289 291 289 288 285 283 284 281 286 289 287 288 288 289 289 289 289 289 289 290 290 289 287 288 290 291 292 292 291 290 289 290 291 292 292 293 295 299 300 300 302 299 297 295 294 293 290 289 289
292 289 288 286 284 278 284 284 284 285 288 288 288 289 289 289 288 289 290 289 288 288 287 287 287 288 290 290 289 289 289 289 289 289 289 290 291 293 293 295 296 298 298 295 294 294 293 292 289
288 285 280 277 276 277 285 282 286 288 290 290 288 287 287 288 287 287 287 287 286 285 285 287 285 285 286 287 287 286 287 288 288 288 288 287 288 289 289 289 290 292 294 293 292 290 289 290 291
287 288 281 274 274 276 284 280 286 288 289 288 288 287 287 287 287 287 286 286 286 285 285 284 284 284 285 285 285 285 285 285 285 285 286 286 287 287 288 288 288 289 290 291 291 289 288 288 289
288 285 289 282 276 276 281 285 287 288 286 286 286 286 285 286 285 287 286 285 285 285 284 283 283 283 283 284 284 284 284 283 282 282 283 284 284 286 286 286 286 287 287 287 288 287 286 286 286
290 292 283 282 271 272 279 280 282 284 283 284 284 283 284 285 285 285 285 284 284 284 284 284 284 282 282 283 284 284 284 283 282 282 281 281 283 283 283 284 285 285 285 285 285 285 285 285 285
286 284 286 286 282 275 272 277 286 286 285 283 283 284 284 283 283 284 283 283 283 284 284 283 283 284 283 283 284 284 284 283 282 280 281 281 281 282 282 283 282 282 283 284 284 284 284 284 285
289 287 287 279 277 278 280 280 287 286 285 285 284 285 284 284 282 286 285 284 284 284 284 283 283 283 284 284 283 283 283 283 281 281 280 280 279 280 281 282 281 282 282 282 282 283 283 284 284

GFSSGP_sfc_thetae_024.txt.gz
Theta_e
319 312 312 308 298 292 289 292 293 295 295 298 300 298 296 297 297 293 312 322 330 337 344 348 350 354 354 353 353 351 350 348 347 347 347 346 345 346 347 349 350 349 347 344 343 342 339 336 334
314 314 308 300 292 287 288 292 294 296 298 298 299 299 297 296 304 309 313 321 335 338 343 346 348 352 353 352 352 352 351 350 348 347 347 347 347 346 346 349 348 346 343 342 341 338 335 332 330
314 310 300 294 288 287 289 292 293 297 299 298 297 299 297 299 305 311 317 323 335 338 342 345 347 352 353 352 351 351 351 351 349 348 348 349 347 346 348 347 345 344 342 340 338 334 332 328 325
308 305 299 292 289 290 292 293 295 296 298 299 298 295 298 302 306 314 320 324 333 336 341 343 348 351 353 352 351 351 350 350 350 350 350 348 346 345 345 345 344 342 339 336 335 332 328 324 322
304 298 291 290 290 292 294 296 296 296 295 297 298 295 296 305 312 315 320 321 331 333 337 342 347 349 351 351 351 351 350 350 351 351 349 347 345 345 341 341 339 340 335 333 332 329 325 321 318
299 295 289 287 289 293 295 296 296 294 294 296 295 296 296 304 307 314 319 319 322 332 335 342 341 344 347 349 349 349 349 349 349 350 349 349 346 340 337 336 336 336 334 332 330 326 323 319 315
297 292 288 289 288 291 296 297 294 293 293 295 297 295 299 301 306 310 317 319 320 326 334 338 341 342 340 342 344 346 347 348 348 349 348 347 342 340 338 335 334 334 332 331 329 324 320 318 314
298 293 290 289 289 290 296 297 296 295 294 299 299 294 295 303 306 306 312 316 317 320 332 335 337 339 341 342 337 339 342 343 344 343 342 339 337 337 335 332 334 333 332 330 328 323 320 317 312
298 290 287 290 290 291 296 295 297 296 295 296 299 301 298 303 306 307 307 309 312 317 323 331 334 337 337 337 335 333 336 338 338 337 334 331 331 330 328 327 331 334 333 330 327 323 320 316 309
294 288 290 294 294 293 296 295 295 295 295 293 294 298 298 302 305 304 304 306 308 312 318 324 330 333 334 339 334 332 338 339 339 337 333 331 330 326 324 323 327 331 329 330 326 323 320 309 296
296 291 295 297 298 297 297 296 296 293 294 296 296 297 299 298 302 302 302 303 305 308 314 321 327 331 332 335 334 331 331 330 330 330 329 328 328 325 323 319 320 319 320 318 319 316 306 298 295
293 298 298 300 300 297 295 298 297 296 298 300 299 298 298 298 297 297 297 298 298 301 307 314 323 326 330 332 331 333 334 335 328 328 328 328 326 324 322 319 316 314 312 310 308 306 303 299 297
294 296 298 300 299 297 297 296 295 297 300 299 299 298 295 296 296 297 298 298 298 298 299 302 316 322 326 327 326 329 331 332 330 325 326 326 326 323 320 317 313 311 309 307 304 303 300 296 294
295 296 296 297 297 296 295 293 295 298 296 298 297 294 295 295 295 295 296 296 296 298 298 299 305 319 322 325 323 325 327 327 325 325 325 324 324 324 318 315 313 309 308 305 304 302 297 294 293
296 293 294 294 295 295 295 292 293 298 296 295 294 292 294 294 294 293 294 294 295 296 297 298 301 308 318 321 321 320 321 322 322 323 322 322 321 318 315 314 312 311 307 305 302 299 295 293 292
291 289 286 293 294 294 293 289 295 297 294 294 291 290 292 293 293 293 294 294 294 294 295 297 300 302 313 315 317 319 319 319 319 320 321 323 324 320 314 313 313 312 307 304 300 296 293 292 290
287 283 285 290 295 293 290 288 295 298 294 291 290 291 292 291 292 293 293 293 293 293 294 295 298 298 304 312 314 315 316 316 316 317 318 323 322 319 317 313 312 310 308 302 300 293 293 291 289
284 284 286 287 292 291 290 290 293 296 295 291 290 290 290 290 291 292 293 293 293 293 293 294 296 296 300 305 308 309 311 312 313 314 317 320 318 315 313 311 310 308 305 300 295 294 291 290 290
287 286 286 288 293 289 290 289 292 295 293 290 290 290 290 290 292 292 292 291 292 292 292 293 293 294 296 297 301 303 304 304 305 313 314 316 317 313 311 310 308 305 303 302 298 292 291 289 288
288 286 286 289 292 290 290 289 293 292 291 291 290 290 289 289 289 290 289 289 289 290 291 292 292 292 293 295 296 299 298 298 299 303 305 305 311 313 310 307 305 303 300 298 295 294 289 289 288
288 286 286 288 289 288 287 286 290 290 291 291 291 290 290 288 287 287 288 287 287 287 289 290 291 292 292 292 293 294 294 294 294 294 296 297 300 305 307 307 303 301 300 298 296 294 293 290 288
287 291 290 288 285 282 287 279 286 288 288 288 288 287 287 287 287 288 287 286 286 285 287 289 290 290 291 291 290 289 289 288 289 290 291 292 293 294 296 299 303 301 298 298 296 295 294 292 290
289 290 288 286 283 281 282 279 283 287 285 286 286 287 286 286 286 286 286 287 286 285 285 285 287 287 288 288 289 289 288 288 289 289 289 289 290 291 290 291 292 296 299 297 295 294 292 292 291
291 288 287 284 283 277 283 282 282 284 286 285 286 286 287 286 286 286 287 286 285 284 283 284 285 285 285 285 285 285 285 285 285 285 285 286 288 289 288 289 289 290 291 293 295 294 293 293 292
287 285 279 277 275 277 284 280 284 285 287 287 285 285 286 285 285 285 285 284 284 283 282 284 284 283 284 284 283 283 283 282 282 283 283 283 283 285 285 286 286 287 288 289 290 291 292 292 292
286 286 279 273 274 277 282 279 283 285 286 287 287 286 286 286 286 285 285 284 283 283 282 281 282 282 283 283 283 283 282 282 282 282 282 282 282 283 284 284 285 285 286 286 287 287 287 287 289
286 284 287 281 271 274 280 281 284 285 284 284 284 285 284 285 286 285 284 283 283 282 282 281 281 281 282 283 283 282 282 281 280 280 280 281 281 283 282 282 282 283 283 284 284 284 284 284 284
288 291 282 281 270 271 277 279 280 282 282 283 283 283 283 284 284 284 283 283 283 283 282 282 281 280 281 281 282 282 282 281 281 280 279 279 279 280 280 281 281 282 281 281 281 282 283 283 283
285 284 284 285 280 273 270 276 284 284 284 283 284 284 283 283 283 283 282 282 282 281 281 281 281 281 281 281 281 281 281 282 281 280 280 280 279 279 280 280 280 280 280 280 280 280 280 281 282
286 285 285 278 276 278 278 279 287 287 285 285 284 285 283 283 282 283 281 281 281 281 281 281 281 281 281 281 281 280 281 280 279 280 280 279 280 281 279 279 279 279 279 280 279 279 279 279 280

GFSSGP_sfc_thetae_027.txt.gz
Theta_e
317 311 309 306 296 292 288 290 295 293 293 297 298 296 295 295 296 292 309 322 326 333 340 347 350 353 354 353 353 351 350 348 348 347 346 345 345 345 346 348 349 348 345 343 342 341 337 335 333
313 312 305 298 290 286 288 290 292 294 296 297 298 297 296 296 301 307 314 321 332 336 341 346 348 352 353 353 352 350 350 349 347 347 346 345 345 344 348 349 347 345 342 341 340 337 335 331 330
311 307 299 293 287 286 288 291 292 296 297 297 295 298 298 297 303 307 313 320 333 336 341 345 347 352 353 352 352 351 350 350 348 347 347 348 346 345 347 348 346 343 341 340 338 334 331 328 326
306 303 297 290 289 289 293 294 293 295 297 298 296 295 298 301 303 310 318 325 331 334 339 342 348 352 353 352 351 350 349 349 349 348 348 349 346 347 347 346 344 342 339 336 335 332 327 324 321
301 296 290 288 288 291 295 294 295 294 294 295 296 294 296 301 310 316 319 326 329 332 336 339 346 350 351 351 351 351 350 349 350 350 349 347 346 345 344 344 341 338 334 333 332 329 324 321 318
298 294 288 286 288 292 293 294 294 293 292 294 298 297 295 302 308 313 318 318 328 331 334 338 339 343 347 349 350 350 350 350 350 351 350 349 346 345 340 337 338 335 333 330 330 326 322 319 315
295 290 287 286 287 290 294 296 298 292 292 293 298 297 298 300 304 307 316 315 319 329 332 335 339 340 338 342 344 345 347 348 348 349 348 346 345 342 340 338 336 335 333 331 330 324 321 317 312
296 292 288 287 287 288 295 295 294 293 293 298 297 294 296 301 303 307 310 313 313 320 330 333 336 340 340 341 336 338 341 342 344 343 341 338 337 337 335 333 335 335 333 331 330 324 320 317 311
296 288 286 288 288 291 295 295 295 295 293 294 296 301 297 302 304 306 305 308 310 316 323 329 332 336 340 340 336 334 336 337 338 337 334 332 334 332 328 327 332 335 334 331 329 324 321 316 309
293 286 288 292 293 292 295 293 295 295 295 292 293 298 297 300 303 302 301 302 304 307 314 321 328 332 335 339 335 333 337 339 339 339 337 334 331 330 327 323 327 331 331 331 329 324 321 309 296
293 289 293 296 296 296 295 294 295 292 292 295 294 297 297 297 295 295 295 295 296 302 307 315 322 327 330 336 333 329 329 331 335 336 335 332 328 326 324 324 324 322 321 318 321 315 307 299 292
294 296 295 298 298 296 294 296 295 294 297 298 296 295 294 294 295 295 295 295 295 296 297 299 306 322 326 328 333 331 328 328 328 331 330 328 326 325 322 322 321 320 318 312 310 307 304 299 297
293 295 297 299 297 296 296 295 293 295 298 296 296 296 294 293 293 294 295 295 295 295 296 297 298 314 323 325 325 326 332 331 333 327 327 326 323 324 322 320 319 318 314 310 306 305 303 298 294
294 295 295 296 296 294 294 292 293 296 296 294 295 292 292 292 292 292 293 293 293 295 295 297 299 301 319 323 321 323 324 333 329 324 324 323 322 320 320 318 317 315 313 310 306 304 301 297 293
294 292 293 293 293 293 294 290 292 297 294 292 291 290 291 292 292 291 292 292 292 293 294 296 299 302 313 318 319 320 320 321 322 322 322 322 321 321 319 318 315 315 312 309 305 301 298 294 292
290 288 285 291 293 293 292 288 294 295 292 290 289 288 289 291 291 291 292 292 292 292 293 295 298 299 307 314 316 318 318 318 318 319 321 324 323 322 318 316 314 314 311 309 305 300 297 294 291
286 282 284 289 293 292 290 288 294 295 292 289 288 289 289 289 290 291 291 291 291 292 292 293 295 296 301 309 312 313 313 313 315 318 319 321 323 321 319 315 314 312 310 308 306 299 298 293 290
283 283 285 285 290 290 288 289 292 294 293 288 287 287 288 288 289 290 290 291 291 291 292 292 294 294 298 303 306 305 304 303 309 309 309 315 318 316 316 314 312 310 309 304 302 300 295 294 291
285 285 285 286 291 288 289 288 292 293 290 287 287 287 287 288 289 289 289 289 289 290 291 291 291 292 294 295 298 300 297 297 297 299 299 302 307 311 311 311 310 308 308 305 302 297 295 293 291
286 284 284 288 291 289 289 289 290 289 289 288 288 287 287 286 286 287 287 286 286 287 289 290 290 291 291 292 293 295 294 294 293 295 295 295 296 298 303 305 305 304 303 301 299 296 294 293 291
286 285 285 287 288 287 286 285 287 288 289 289 288 288 287 285 285 285 285 284 284 284 285 288 288 289 290 291 292 292 291 290 290 290 291 291 292 292 294 295 300 301 301 300 298 296 295 294 291
285 290 289 288 285 281 285 279 284 286 285 286 286 284 284 285 285 285 284 283 283 283 284 285 286 286 288 289 289 288 287 286 287 287 288 289 289 289 290 291 292 293 297 297 297 297 294 293 292
289 289 288 285 283 281 282 279 282 285 283 284 284 284 284 284 284 284 283 284 283 283 282 283 284 284 284 284 285 285 283 284 284 284 284 285 286 286 286 287 288 288 289 290 293 294 294 293 292
290 287 286 284 282 277 282 282 280 283 285 284 285 284 285 284 284 284 284 284 282 282 282 282 283 283 283 283 283 282 281 281 281 281 281 282 283 284 284 285 285 286 286 287 288 289 291 292 292
286 285 279 277 275 277 282 279 283 284 285 286 285 284 284 284 283 283 282 281 281 280 281 282 282 282 282 282 282 281 280 280 280 280 280 280 281 281 282 283 283 283 284 284 285 285 286 287 288
285 286 280 274 273 276 281 279 283 283 285 287 286 285 284 283 284 283 283 282 281 280 280 281 281 281 281 281 281 280 280 280 280 279 279 280 280 280 281 281 281 281 282 282 282 282 282 283 283
285 283 286 280 269 273 280 281 283 284 282 283 284 284 283 284 284 283 283 282 281 280 280 279 280 280 281 281 280 280 280 279 279 279 279 278 279 281 280 279 279 280 280 280 280 280 279 280 281
287 290 282 280 272 271 277 278 280 280 281 282 282 283 283 284 284 283 282 282 282 281 280 280 280 279 280 280 280 280 280 280 279 278 278 278 278 278 279 278 278 279 279 280 280 279 279 279 279
285 284 284 284 280 273 269 277 283 284 284 283 283 284 283 283 282 283 281 282 281 281 280 280 280 280 280 280 280 279 279 279 279 278 278 278 278 278 279 279 279 278 278 278 278 278 278 278 278
285 285 285 281 277 277 277 279 286 285 286 285 284 285 284 283 283 282 281 280 280 280 280 280 281 280 280 280 279 280 279 278 278 278 278 278 278 278 278 279 278 278 278 278 277 277 277 277 277

GFSSGP_sfc_thetae_030.txt.gz
Theta_e
315 310 307 304 295 291 287 289 293 292 294 295 297 295 297 297 295 291 305 319 326 331 338 346 351 353 354 353 353 352 351 349 348 347 346 346 346 345 346 350 349 347 344 342 340 340 338 335 334
311 309 303 296 289 285 287 291 291 293 295 298 296 296 296 294 299 306 312 320 328 332 341 345 348 352 353 353 352 351 350 349 347 346 345 345 345 347 348 349 347 344 344 342 339 337 334 332 330
310 305 298 291 286 285 287 290 295 295 296 295 299 298 300 295 300 308 313 321 331 333 339 343 347 352 353 353 352 351 350 349 347 347 346 346 345 345 348 347 345 343 341 340 337 335 331 329 326
305 301 296 289 287 289 291 294 292 295 296 297 296 297 296 301 301 308 317 326 329 332 337 342 347 352 352 352 352 350 348 348 348 347 347 347 346 345 348 346 344 342 340 337 335 332 328 325 322
299 295 289 287 288 290 292 293 293 294 297 296 296 294 295 299 311 314 316 325 326 330 335 338 346 350 351 351 351 351 350 349 350 348 348 348 346 347 345 345 342 340 334 332 332 329 326 322 318
297 293 287 285 288 290 294 293 295 291 291 295 298 296 295 300 308 311 316 313 324 329 333 337 339 344 347 349 350 350 350 350 350 350 349 348 346 344 342 338 340 337 333 330 331 327 324 320 316
294 289 286 285 287 289 292 294 296 295 295 296 298 295 297 303 302 304 313 313 316 324 330 332 336 339 338 343 344 346 348 348 347 348 347 346 345 345 341 338 337 333 333 330 330 326 322 319 314
294 291 287 286 286 287 292 293 293 298 293 297 298 293 295 300 303 307 312 313 315 317 326 328 333 340 338 339 335 338 342 343 343 343 341 339 339 338 336 333 335 333 334 330 329 325 321 318 313
293 287 284 288 288 290 293 293 294 294 293 294 295 299 296 300 304 304 303 303 306 311 316 324 329 336 339 341 335 332 335 336 337 337 334 333 333 334 330 328 332 336 335 332 329 324 321 317 311
291 285 287 290 294 294 293 293 293 294 293 295 293 296 297 295 295 295 294 294 295 297 301 310 322 330 336 338 338 336 335 339 338 338 337 336 333 331 329 324 327 331 331 332 328 325 319 308 294
292 287 290 294 294 294 293 292 293 295 291 292 294 294 293 294 294 294 293 293 293 294 296 298 299 317 333 335 336 334 332 331 335 337 336 334 332 328 327 325 325 326 323 321 320 313 307 302 292
292 294 294 297 296 295 293 295 293 293 293 295 293 293 293 292 292 292 292 292 292 293 295 297 297 299 321 333 335 334 331 329 330 328 333 331 328 326 324 323 323 323 321 318 315 310 305 301 296
293 293 295 296 296 295 295 294 292 294 294 294 294 293 291 291 291 292 292 292 292 293 294 295 297 299 307 324 330 331 331 329 327 328 326 329 327 325 323 323 321 320 318 316 313 309 304 302 297
292 293 294 295 294 293 293 291 291 291 292 292 292 290 290 290 290 290 291 291 291 293 293 295 297 301 306 318 322 326 329 330 331 329 327 326 325 323 322 319 318 317 316 315 312 309 304 301 295
293 290 291 291 291 292 293 289 291 291 292 290 289 288 289 290 290 289 290 290 290 291 293 294 298 302 310 316 320 321 323 325 325 325 323 324 322 322 321 320 318 318 315 313 309 306 304 300 294
289 287 285 289 291 291 292 288 292 292 291 289 288 287 288 289 289 289 290 290 290 291 291 294 296 300 310 313 315 315 316 317 318 319 321 322 323 323 321 319 317 316 313 312 309 305 301 300 297
285 283 283 288 291 290 289 288 292 292 291 287 286 287 288 287 288 288 289 289 290 290 291 292 294 295 302 304 304 304 304 304 303 304 307 311 314 315 318 317 315 314 313 309 307 303 302 301 298
283 282 283 284 288 289 287 289 292 292 290 286 285 285 286 286 286 287 287 288 289 289 290 291 293 293 296 302 300 298 297 297 298 297 298 299 302 307 310 310 310 310 309 306 304 302 298 296 296
285 284 284 285 290 287 288 288 291 289 287 285 285 285 285 285 286 286 286 286 286 288 289 289 290 291 293 293 295 295 292 293 293 295 295 295 296 298 300 304 304 305 304 303 303 299 298 298 293
285 284 283 287 289 288 287 288 288 288 287 287 286 285 284 284 284 285 285 284 284 284 286 287 288 289 291 291 291 291 291 290 290 292 290 290 291 292 294 296 298 299 300 300 299 297 296 295 293
284 284 283 286 286 287 284 284 285 286 287 287 286 286 285 284 283 283 283 282 282 282 282 284 285 286 288 289 290 290 289 287 286 286 286 286 286 288 289 290 291 293 295 295 296 296 296 294 294
283 288 288 286 284 282 284 279 283 284 284 284 284 283 283 283 283 283 282 281 281 281 282 283 283 284 285 286 285 284 283 282 282 282 283 284 284 285 285 286 287 288 288 288 290 294 294 293 291
287 289 287 285 283 280 281 278 282 284 283 283 283 283 283 283 283 282 281 282 281 281 280 281 282 282 282 282 283 282 281 281 281 281 281 282 282 283 284 284 284 284 285 285 286 287 288 291 290
289 287 285 283 282 276 282 282 280 282 284 283 284 283 283 283 282 282 282 282 281 281 281 281 281 281 281 281 281 280 279 279 280 279 280 280 281 281 281 282 282 282 282 282 283 283 284 285 287
286 284 279 276 275 277 281 279 282 285 285 285 285 283 283 283 282 282 281 279 279 280 280 281 280 280 280 280 280 279 279 279 278 278 278 278 278 279 279 280 280 280 280 281 281 281 281 281 282
284 285 280 274 273 276 280 278 284 283 284 285 286 284 284 283 283 282 281 280 279 279 279 280 280 279 280 279 279 279 279 278 278 278 278 277 278 278 278 278 278 278 279 279 279 279 279 279 279
284 282 285 279 269 274 280 281 283 283 282 282 282 283 282 282 283 283 282 280 279 279 279 279 279 279 279 279 279 278 278 278 277 277 277 277 278 279 278 278 277 278 278 278 278 277 277 277 278
287 289 282 280 271 271 277 278 281 282 282 281 282 282 282 283 283 282 282 281 280 280 279 278 279 279 279 279 279 278 278 278 277 277 277 277 278 278 278 278 277 277 277 277 277 276 277 276 277
285 283 283 283 280 274 270 278 283 284 283 282 283 284 284 283 284 283 282 282 281 280 279 278 278 278 278 279 278 279 278 277 278 277 277 277 277 277 278 278 277 277 277 276 276 275 276 276 276
284 284 284 281 277 276 276 281 283 284 284 285 284 285 284 284 283 283 282 281 280 280 280 279 279 279 279 279 278 279 278 278 277 277 277 277 277 277 277 277 277 276 276 276 275 275 275 275 275

GFSSGP_sfc_thetae_033.txt.gz
Theta_e
317 312 311 307 300 296 292 296 298 299 300 303 303 302 302 302 299 298 312 320 329 335 340 350 351 354 354 354 353 352 352 350 349 349 348 347 346 346 350 349 349 346 344 341 341 339 337 334 334
313 311 306 299 293 290 292 295 297 299 302 302 302 302 302 301 306 310 317 322 329 335 342 348 348 353 353 352 352 352 351 350 348 346 346 346 347 348 350 348 345 344 344 342 339 337 334 332 330
311 306 303 295 290 290 292 296 298 300 301 301 301 304 303 304 307 312 318 325 334 336 343 347 347 352 353 352 352 351 351 350 348 347 346 346 345 348 349 346 344 343 342 340 338 335 331 328 326
308 304 299 292 292 294 295 297 298 300 301 301 301 301 303 307 309 314 321 330 334 336 342 345 348 352 352 352 352 350 349 348 348 347 346 347 345 346 348 346 344 342 339 337 335 333 329 325 323
301 299 293 291 294 295 295 298 299 298 299 300 300 301 302 306 314 320 323 330 331 335 340 344 346 350 352 351 352 351 349 349 349 348 347 348 346 347 347 345 342 339 335 332 333 331 327 323 320
299 296 290 289 292 295 297 298 299 297 297 299 299 299 303 305 308 315 322 324 331 334 337 341 338 343 347 348 349 350 350 350 350 350 349 347 346 345 343 339 341 337 334 332 330 328 325 321 318
296 292 290 289 290 293 297 297 296 297 297 299 301 299 303 303 306 313 320 320 324 332 335 338 341 341 336 342 343 346 347 347 347 347 347 345 345 345 342 338 339 334 333 332 331 327 323 320 316
295 293 290 290 291 292 297 297 298 298 298 300 302 298 299 300 305 309 311 305 309 310 319 331 336 340 344 346 335 338 342 343 343 342 340 338 338 338 336 332 335 333 333 331 331 326 323 320 314
297 289 287 290 290 293 297 297 299 299 298 299 299 298 296 298 300 300 300 300 301 302 303 306 316 334 338 341 339 332 335 337 338 337 334 335 343 339 333 329 332 335 334 332 330 326 322 316 309
293 288 289 293 293 294 296 296 297 298 297 297 299 297 297 297 297 296 296 296 297 298 300 301 303 307 330 338 340 339 341 344 344 341 339 339 339 336 331 326 328 331 331 332 329 325 318 311 304
294 290 292 295 297 297 296 296 298 296 295 298 298 295 295 295 295 294 295 294 295 296 299 300 301 303 307 333 338 338 338 341 338 339 338 337 334 332 330 328 327 329 324 325 323 318 315 311 304
293 295 295 299 298 297 296 297 296 296 297 295 294 294 293 293 292 292 293 294 294 296 297 299 300 303 307 322 334 336 335 334 333 332 336 338 333 330 328 327 326 326 325 322 320 317 316 311 305
295 295 296 297 297 296 296 295 295 294 293 294 294 293 291 291 292 293 293 294 294 295 296 298 300 303 307 318 331 332 332 332 331 330 330 330 333 331 327 327 326 328 325 322 318 315 311 313 308
294 295 295 295 295 295 294 293 294 293 293 292 291 290 290 290 291 292 292 292 293 294 295 297 301 307 314 322 328 328 329 330 329 327 326 326 327 326 325 323 323 321 320 321 320 315 314 313 307
294 292 293 293 293 293 294 291 292 293 293 290 289 289 290 290 290 289 291 291 292 293 294 296 302 312 317 321 321 320 320 320 319 320 319 320 323 323 323 323 322 321 319 316 313 311 309 307 305
290 289 288 292 293 293 293 290 292 292 293 290 289 288 288 289 288 289 290 290 291 292 293 296 300 306 308 309 309 307 306 306 307 309 311 313 315 318 318 316 315 316 315 313 311 308 306 305 303
287 285 285 289 293 292 292 291 292 292 292 288 288 288 288 288 288 288 289 289 290 291 292 294 297 300 303 302 301 301 300 300 301 300 301 303 308 312 312 311 311 313 311 308 307 305 303 303 302
285 284 285 286 290 290 289 290 291 292 290 288 287 286 286 286 286 287 288 288 289 290 291 293 295 296 300 300 299 297 297 296 295 295 296 297 299 303 306 306 306 308 307 306 305 304 301 299 297
287 285 286 286 290 290 289 289 292 289 287 286 286 286 286 286 287 287 287 287 287 288 289 290 292 293 296 297 297 295 292 292 291 291 291 292 294 296 298 301 301 304 302 302 302 302 301 300 297
285 285 285 287 289 289 288 288 290 289 288 288 286 285 285 285 285 285 285 285 285 285 286 287 288 290 292 293 293 293 291 289 288 288 288 288 289 291 292 293 294 295 296 297 298 299 300 300 297
285 284 284 286 287 288 286 286 287 287 287 287 287 286 285 285 284 284 284 283 284 283 283 285 286 287 288 290 291 290 288 287 286 286 286 286 287 287 289 288 289 290 291 291 292 295 295 295 297
283 287 287 286 285 282 286 281 285 286 285 285 285 284 284 284 284 283 283 282 282 282 283 284 284 285 285 287 286 285 284 282 283 284 284 285 285 285 286 286 286 287 287 286 288 289 291 294 292
287 288 286 286 284 283 283 281 283 285 284 284 284 284 284 284 283 282 282 282 282 283 282 283 283 283 283 284 285 284 282 283 283 283 283 283 284 284 284 284 284 284 285 285 285 285 285 287 287
288 287 285 283 282 277 283 283 282 283 286 284 285 284 284 284 283 283 283 282 282 282 282 282 282 282 282 282 282 282 282 282 282 282 282 282 282 282 282 283 283 283 283 283 283 283 284 284 284
285 285 279 278 277 278 281 280 284 286 287 287 286 284 284 284 283 282 281 281 281 281 282 282 282 281 281 282 281 281 281 281 280 280 281 281 281 281 281 281 281 282 282 282 282 282 282 282 282
284 285 280 274 274 277 280 279 285 285 285 286 287 286 285 283 283 283 281 281 281 281 282 281 281 280 281 281 281 281 281 281 280 280 280 280 280 281 281 281 281 281 281 281 281 281 281 281 281
284 283 286 279 269 275 280 282 286 284 284 284 284 284 284 283 283 283 282 281 280 280 281 281 280 280 281 280 280 280 280 280 279 280 280 280 280 281 280 280 279 280 280 280 279 279 279 280 280
286 288 282 280 273 271 278 280 283 283 283 282 282 283 284 284 283 283 283 282 281 280 280 281 281 281 280 280 280 280 279 279 280 280 279 279 279 280 279 279 279 279 279 279 278 278 278 278 279
285 283 283 284 281 276 273 278 284 285 285 283 283 284 285 284 284 284 284 283 282 281 280 280 280 280 280 280 280 280 280 280 280 279 279 279 279 279 278 278 278 278 277 277 277 277 277 277 277
285 285 285 281 277 277 277 281 285 285 285 285 285 285 285 286 285 285 284 283 281 281 280 279 279 280 280 280 280 280 280 280 279 278 279 279 278 278 277 276 276 276 276 276 275 275 276 276 276

GFSSGP_sfc_thetae_036.txt.gz
Theta_e
322 320 324 320 308 307 299 300 304 302 303 307 307 306 306 307 304 301 322 328 334 339 346 351 352 354 354 353 353 352 352 350 350 349 348 348 346 349 349 347 346 345 342 341 340 337 336 334 333
320 318 320 314 303 297 298 302 301 304 306 307 307 307 306 305 311 315 322 327 334 339 346 350 349 352 353 352 352 352 351 349 348 347 346 346 347 349 349 346 344 344 344 342 339 335 333 330 330
317 314 314 309 304 297 298 302 304 305 306 306 306 308 307 307 313 317 326 329 337 340 346 349 348 352 352 352 351 351 350 349 347 346 346 345 347 349 348 345 343 341 341 340 338 334 331 328 327
317 316 310 304 298 300 301 303 305 305 306 307 306 305 308 314 316 323 329 333 337 340 344 346 348 352 352 351 351 349 349 349 348 347 347 346 345 348 347 345 341 339 336 334 335 333 329 325 324
315 313 305 300 298 300 303 304 305 304 304 306 306 303 306 311 318 326 330 333 335 339 344 348 346 350 351 351 351 350 349 348 348 347 347 347 345 347 345 343 340 337 334 333 332 330 327 322 322
311 310 301 297 298 300 303 305 305 303 303 305 304 304 306 312 314 321 327 331 336 339 343 344 340 344 348 349 349 349 350 349 349 349 348 346 345 345 343 340 338 336 335 334 332 329 325 321 320
307 306 300 300 299 300 302 304 303 303 304 304 306 303 307 308 311 322 321 324 327 334 340 344 345 344 336 342 343 346 347 347 347 347 346 346 345 344 341 340 338 335 335 333 331 327 324 320 317
308 307 299 299 298 299 303 303 304 304 303 306 307 302 304 306 308 313 313 313 313 313 317 322 337 340 345 348 335 337 342 343 344 343 341 339 339 340 335 333 336 335 334 333 330 327 323 319 315
305 301 298 299 298 301 304 302 305 305 305 305 304 303 302 304 308 310 310 310 310 310 311 312 316 324 337 341 341 334 335 338 338 338 335 335 344 343 337 331 334 336 335 333 330 326 322 315 307
304 300 298 302 303 302 303 303 304 303 303 302 303 303 303 304 305 305 305 305 306 307 308 310 311 314 320 337 341 342 344 346 345 344 342 341 342 341 335 328 329 331 332 332 330 326 319 319 317
302 299 299 301 303 304 303 303 304 303 301 303 303 302 301 302 302 302 303 303 303 305 308 309 310 311 315 334 340 342 342 345 344 343 341 340 338 336 335 333 331 332 326 329 329 324 325 322 319
300 301 301 303 304 303 302 304 303 303 302 300 301 300 300 300 300 300 301 302 303 305 307 310 312 314 314 326 337 339 339 341 343 336 339 340 339 337 334 334 330 330 330 329 325 323 322 323 317
302 302 302 304 303 303 302 302 302 301 299 300 299 299 299 299 299 299 300 302 303 304 307 309 314 318 318 319 336 336 336 335 333 332 331 334 334 336 338 336 331 331 331 331 329 322 317 320 320
301 301 301 302 301 301 300 300 301 298 299 298 298 298 297 297 297 299 300 301 302 304 306 311 311 319 322 329 331 329 328 327 326 326 327 327 328 328 328 327 327 328 326 326 321 318 316 313 311
300 298 301 301 300 300 301 296 298 299 299 297 296 296 295 295 297 297 298 299 300 304 307 303 308 314 317 316 314 314 314 315 316 317 318 320 324 325 324 321 320 319 318 317 317 312 312 312 310
298 297 296 299 299 298 299 297 298 299 298 297 296 295 295 294 295 296 297 298 300 303 304 304 306 307 306 306 306 305 305 308 309 310 312 313 315 317 316 314 314 315 315 314 313 312 311 309 306
296 295 294 297 298 298 298 298 299 298 298 297 296 295 294 294 295 295 296 296 298 301 303 302 303 303 302 302 301 300 300 301 304 304 305 304 310 311 311 312 312 313 311 310 310 309 309 309 308
295 293 293 295 297 297 297 298 297 297 297 297 295 294 294 293 292 293 294 296 298 300 303 303 302 303 302 301 300 299 298 298 298 300 301 303 303 307 309 309 310 311 310 308 310 309 309 307 305
296 295 295 295 296 296 297 298 298 297 296 295 295 294 293 292 292 293 294 295 297 298 300 301 303 304 307 306 304 301 298 297 295 296 297 298 299 301 302 302 302 304 303 304 305 308 307 306 305
294 294 294 295 295 295 296 295 299 296 297 297 295 293 293 292 292 292 292 293 294 295 297 298 298 300 301 301 300 297 294 293 293 293 292 293 293 294 294 296 296 298 298 298 300 301 303 303 303
293 293 294 293 293 294 293 294 296 295 293 293 294 294 293 293 291 291 291 291 293 292 293 294 295 296 297 296 295 293 293 293 291 290 290 290 291 291 292 292 292 292 292 291 292 295 297 298 300
291 295 293 292 291 290 293 289 294 295 292 291 291 291 292 291 291 290 290 290 290 290 291 291 293 293 294 295 294 294 292 288 288 289 289 289 289 289 290 290 290 290 290 289 290 290 290 291 289
294 294 293 292 291 290 290 288 294 291 291 290 291 291 292 292 290 288 288 287 287 289 289 290 290 290 290 291 291 290 289 288 289 288 288 288 288 288 288 288 288 288 288 288 288 288 288 289 288
294 293 291 291 290 285 290 289 292 292 293 293 291 291 291 290 289 288 288 287 287 288 288 289 288 287 289 289 290 289 288 288 287 287 287 287 287 287 287 287 287 287 287 286 287 287 287 287 287
293 292 287 284 284 284 286 287 293 296 292 294 291 290 291 290 288 287 286 286 286 286 287 287 287 286 287 288 288 288 288 288 287 287 287 286 286 286 285 286 285 285 285 285 286 286 286 285 285
291 293 289 282 282 285 284 284 291 291 291 291 294 292 291 289 289 288 287 287 286 286 287 286 286 285 286 287 286 287 287 287 286 286 286 286 285 285 285 285 284 284 284 284 284 284 284 284 284
290 287 293 284 278 284 288 289 293 289 289 289 290 290 289 289 289 288 288 287 286 286 286 286 286 286 286 286 286 286 286 286 285 285 286 285 285 284 284 283 283 283 283 283 283 283 282 283 283
292 294 286 287 282 281 286 287 291 288 289 288 288 289 290 290 289 289 288 287 287 287 287 286 286 286 286 286 286 285 285 285 285 285 284 284 284 283 283 283 282 282 282 282 282 282 282 282 282
288 288 289 290 288 285 284 288 294 295 293 290 290 291 291 290 290 289 289 288 287 287 286 286 286 285 285 286 286 285 285 285 285 285 284 284 283 282 281 281 281 280 280 280 280 280 280 280 280
293 291 290 287 283 284 284 288 290 292 294 293 292 291 292 291 291 290 290 289 286 285 285 285 286 285 286 286 285 285 285 285 284 284 283 283 282 281 280 279 279 279 279 279 278 278 279 278 278

GFSSGP_sfc_thetae_039.txt.gz
Theta_e
326 323 324 322 309 307 300 300 306 303 305 309 310 308 306 308 305 302 325 334 335 342 349 351 352 354 354 353 352 352 352 350 350 349 349 348 347 350 348 346 346 344 343 340 338 336 334 333 334
323 320 322 316 304 298 299 304 302 305 307 310 309 308 307 305 313 317 323 331 335 340 347 350 349 352 353 352 352 351 351 350 349 347 346 346 350 348 347 344 343 344 343 341 337 335 332 330 331
321 318 315 309 304 299 299 304 305 306 308 308 307 310 309 308 316 319 328 332 337 340 346 349 348 351 351 351 351 351 350 349 347 346 346 347 348 348 346 343 341 339 338 338 337 334 329 327 327
319 318 313 304 300 302 303 305 307 306 308 309 309 305 311 316 319 326 333 333 336 340 346 347 349 351 351 351 350 349 349 348 347 346 346 345 348 347 345 342 339 337 335 335 334 332 328 325 326
318 314 305 302 300 302 305 307 308 306 305 307 308 305 308 314 322 327 330 332 335 339 344 349 348 350 350 350 350 349 348 348 348 347 347 346 345 346 343 341 338 337 335 334 333 330 326 323 324
311 312 302 299 300 303 305 308 307 305 305 306 305 306 307 314 318 326 328 334 337 340 343 346 342 343 347 349 348 348 349 347 346 347 347 345 345 345 341 339 338 337 336 334 332 329 325 320 321
309 306 302 301 301 301 304 308 305 305 305 305 308 304 308 309 313 322 322 324 327 336 342 343 344 344 336 339 344 345 346 347 346 346 344 344 344 344 341 341 338 336 335 334 331 328 325 320 318
310 307 301 302 300 301 306 306 307 306 305 309 309 304 305 307 311 317 317 318 318 320 324 328 339 340 345 346 336 337 342 344 344 343 342 340 339 339 336 334 337 336 335 333 330 327 324 319 313
309 302 299 300 301 303 306 304 307 308 307 307 306 306 306 308 311 313 314 314 314 313 314 316 320 332 339 342 339 334 336 338 338 339 335 334 343 342 334 331 335 337 335 333 330 328 323 317 310
306 301 300 304 305 304 306 306 306 305 305 304 305 306 307 308 309 309 309 309 309 310 312 313 315 317 327 336 340 343 344 345 345 344 343 342 342 341 338 329 329 332 332 333 330 325 321 321 322
305 301 302 303 305 307 305 305 307 305 303 306 305 305 305 306 306 306 307 307 307 309 311 313 315 315 317 331 340 342 344 344 343 343 342 340 340 339 338 334 332 334 326 330 330 325 326 326 323
302 303 303 305 306 305 304 306 304 305 304 305 305 305 305 304 304 304 304 305 307 309 311 314 317 319 318 323 337 340 340 341 341 339 340 339 339 338 338 335 335 333 331 332 330 327 324 323 321
303 303 304 306 305 305 305 304 304 304 304 304 303 303 303 303 303 304 304 306 307 308 312 315 318 321 320 321 337 336 331 329 329 330 332 335 335 335 335 336 333 332 332 330 329 325 322 321 320
304 304 304 305 304 304 302 303 303 305 304 302 302 301 301 300 301 303 303 304 306 309 312 311 314 321 323 321 320 321 321 320 321 320 322 325 328 327 326 325 324 323 323 322 323 320 319 315 314
303 300 303 303 303 302 303 300 299 304 302 301 301 301 300 299 300 300 301 302 305 310 308 308 310 314 313 311 311 312 314 314 314 315 317 318 320 320 320 318 318 318 318 317 317 315 313 313 312
300 300 298 303 302 301 302 298 303 302 301 300 300 300 299 298 298 300 300 302 306 310 305 306 307 307 306 305 305 306 308 310 311 312 313 315 314 315 316 314 314 314 313 313 313 311 312 312 310
300 296 298 300 302 301 300 300 301 302 302 301 301 300 299 298 298 299 300 302 305 307 305 304 305 304 303 302 301 301 302 304 307 308 309 309 312 314 314 313 313 314 314 313 314 314 313 311 310
297 297 298 298 300 299 299 299 300 300 301 302 301 300 299 298 296 297 299 301 305 307 304 304 304 302 301 301 300 300 300 302 303 303 303 305 305 307 307 307 308 309 307 307 308 311 312 308 306
300 298 298 301 300 298 299 299 302 300 300 301 301 299 298 297 297 297 299 301 304 306 306 304 305 304 304 304 304 303 300 299 297 298 299 299 299 301 302 301 302 303 301 301 303 305 306 305 304
298 296 297 301 298 296 298 298 302 302 300 301 301 300 298 296 295 296 298 300 302 303 304 305 306 307 307 305 302 299 297 296 295 295 294 295 295 295 295 296 295 296 295 295 296 297 301 301 302
297 296 296 297 296 297 296 295 298 302 301 301 301 301 299 296 295 295 296 298 299 299 301 301 302 301 300 299 298 296 296 296 293 292 291 292 292 292 294 293 293 293 293 291 292 293 292 292 295
294 300 297 296 294 291 297 289 298 301 298 297 297 298 297 297 296 295 295 295 296 295 296 298 297 298 298 299 298 297 295 291 291 290 290 290 291 290 291 292 291 292 291 291 291 291 291 291 289
296 298 297 296 294 294 294 289 296 301 297 296 296 296 296 296 295 294 294 293 292 293 294 294 294 294 295 295 296 294 291 291 290 290 289 289 289 290 290 290 290 290 290 290 289 289 289 289 288
298 296 294 294 294 287 292 292 294 295 296 299 296 295 295 294 294 293 292 291 290 291 292 292 291 291 292 293 293 292 291 290 289 289 288 288 288 288 288 288 289 288 287 288 288 289 288 288 287
296 294 289 286 285 285 292 292 295 300 297 299 295 294 295 294 293 291 289 289 289 290 290 290 290 289 291 291 291 291 290 290 289 288 288 287 287 286 286 287 286 286 286 286 287 286 286 286 285
293 295 290 284 285 288 286 286 292 298 298 296 298 295 295 293 292 291 290 289 288 289 289 288 289 288 289 289 289 290 290 289 289 289 288 288 287 286 286 286 285 285 285 285 285 285 285 285 285
293 290 298 289 283 285 290 292 297 292 291 292 295 294 293 292 292 291 290 290 289 288 288 288 288 288 288 288 288 288 288 288 287 288 288 287 287 285 285 285 284 284 284 284 284 284 284 284 285
295 297 287 289 283 283 289 291 292 290 290 291 293 292 292 292 292 291 291 290 289 289 289 289 288 287 287 287 288 287 287 288 287 287 286 286 285 285 284 284 284 283 283 283 283 283 284 282 283
290 290 291 292 291 286 285 289 299 298 296 292 292 293 293 292 292 291 291 290 289 289 289 288 288 287 287 287 287 287 287 287 287 286 286 285 285 284 283 283 282 282 281 281 281 281 281 280 281
296 293 292 288 285 287 287 290 294 300 300 297 294 294 294 294 293 292 291 290 289 288 288 287 287 287 287 287 287 287 287 286 286 285 285 285 284 283 282 281 281 280 280 280 279 279 280 279 279

GFSSGP_sfc_thetae_042.txt.gz
Theta_e
325 321 319 318 306 302 295 296 300 301 300 303 304 303 302 304 303 300 323 329 332 344 349 352 352 353 353 353 352 352 353 352 350 350 349 348 349 348 346 345 345 343 341 339 338 335 334 334 335
317 319 318 313 299 293 293 299 299 301 303 304 303 303 302 302 313 317 319 330 333 343 347 349 350 352 351 351 352 352 352 351 348 347 346 350 349 347 345 343 342 342 340 339 337 333 331 330 330
320 318 310 305 299 294 294 299 299 302 302 302 301 305 305 306 315 318 322 330 334 339 346 347 348 350 351 351 350 350 350 350 348 346 347 348 348 346 344 341 338 337 337 336 335 332 329 328 329
315 314 309 298 297 298 299 300 302 302 303 304 303 301 307 316 316 323 328 329 334 337 346 345 348 350 350 350 350 349 348 349 347 346 345 347 347 346 343 340 338 337 336 335 333 329 326 326 327
313 310 301 297 296 298 301 303 301 301 299 301 300 301 303 310 321 322 326 329 333 334 346 346 347 349 349 349 349 349 349 348 348 348 346 346 346 344 342 340 338 337 336 334 331 328 324 324 324
308 307 297 293 295 299 301 302 301 300 300 299 299 302 301 310 317 320 326 329 335 337 342 346 341 341 343 348 348 348 348 347 346 346 346 345 345 345 342 339 338 337 336 334 332 328 323 321 320
305 302 297 296 296 296 300 302 297 299 299 300 302 299 301 303 308 315 316 320 322 326 336 339 343 341 335 338 341 344 346 346 346 345 345 344 344 343 342 340 339 337 335 334 331 328 324 318 316
305 301 295 293 296 296 301 301 302 301 299 303 303 298 297 300 305 312 312 312 312 314 317 319 333 339 340 342 334 338 342 343 343 342 340 338 338 336 336 334 338 337 335 333 331 328 324 318 313
306 296 294 295 296 298 302 299 301 302 301 301 302 300 300 303 307 308 308 308 308 309 309 311 313 321 336 338 336 332 337 338 338 337 334 332 338 334 332 332 335 337 336 333 330 327 323 317 314
301 296 297 300 300 299 301 300 302 298 300 297 299 301 303 303 304 304 303 303 303 304 306 309 310 311 316 332 337 339 342 340 339 339 337 338 338 337 333 327 330 332 332 333 330 326 324 321 313
301 296 298 300 303 303 302 299 301 298 297 299 300 300 302 302 301 302 301 302 301 303 307 310 311 312 312 325 335 337 337 337 338 336 337 336 335 331 331 326 326 328 326 328 325 322 320 319 315
297 300 300 304 304 302 300 302 299 299 297 302 301 302 301 300 300 299 300 301 302 304 308 312 315 316 312 314 335 335 333 330 331 331 332 334 333 331 331 328 328 328 328 328 325 322 319 318 316
299 300 302 303 302 301 303 300 299 298 300 300 301 302 299 299 299 300 301 302 304 305 309 309 314 317 315 316 331 327 326 325 324 324 326 329 329 326 326 326 326 324 326 325 322 320 319 315 315
301 302 301 302 302 301 299 299 299 299 299 298 300 298 297 297 297 299 299 300 303 307 306 310 312 315 316 317 318 318 318 319 317 317 318 321 322 321 320 319 318 318 319 318 316 315 314 313 311
301 296 299 300 300 298 299 296 296 300 299 298 297 296 296 296 297 296 297 299 302 305 307 308 309 311 309 309 312 312 313 314 313 314 314 315 317 316 315 313 312 313 314 313 313 313 312 311 310
296 295 291 299 300 298 296 292 299 299 297 296 296 295 295 295 296 296 297 300 304 304 305 306 307 305 304 304 306 308 309 310 309 309 310 312 312 311 311 312 311 312 312 312 310 308 308 307 306
295 289 292 295 299 297 295 293 297 298 298 296 295 295 296 294 295 295 297 300 303 303 305 304 304 302 301 301 301 302 304 305 305 305 304 305 308 309 307 306 306 306 305 304 306 306 304 301 300
291 291 294 293 296 296 293 293 296 297 297 296 296 295 294 294 294 295 296 300 303 304 304 303 302 301 300 300 300 301 299 299 298 297 298 300 301 302 301 301 300 300 299 298 298 302 302 298 297
296 293 292 294 296 294 294 294 297 296 296 295 296 295 294 294 294 295 297 299 302 304 304 303 302 302 303 302 301 298 295 293 293 294 294 294 295 296 295 294 295 293 292 291 292 296 296 295 294
295 293 292 296 296 293 293 293 297 297 296 297 297 295 294 292 291 294 295 298 300 302 303 304 304 303 304 301 298 294 291 290 290 290 290 291 291 291 291 290 289 289 289 288 288 288 290 289 290
294 292 291 292 293 292 290 289 293 298 298 297 298 297 296 292 291 292 294 295 296 297 300 301 300 298 296 294 293 292 291 289 287 287 287 288 289 289 289 289 288 288 287 286 286 286 286 285 286
291 296 295 294 290 285 291 283 292 296 297 296 297 295 293 292 292 292 293 293 294 293 294 295 296 295 294 293 292 291 289 286 286 285 286 287 287 287 288 287 287 286 286 285 285 286 285 284 282
293 296 293 292 289 288 288 286 290 296 295 296 295 294 293 292 292 291 291 292 290 291 291 291 291 291 292 292 291 289 286 286 286 285 285 285 285 286 286 286 285 285 285 284 284 283 283 283 282
296 293 292 290 289 282 289 288 288 293 295 296 295 294 293 292 291 290 290 289 288 288 288 288 288 289 290 289 289 287 286 285 285 284 283 283 283 284 284 285 284 283 283 283 283 283 282 282 282
293 290 283 280 279 280 288 287 291 295 295 296 295 294 293 292 290 288 286 286 286 286 287 287 286 286 287 287 287 287 286 285 284 284 283 282 282 282 282 282 282 282 282 282 282 281 280 281 280
290 291 284 278 279 281 282 281 289 293 293 294 297 295 294 291 290 287 286 286 286 286 285 285 285 285 286 286 286 286 286 285 284 284 284 283 282 282 282 281 281 281 281 281 281 280 280 280 279
290 287 295 285 278 278 285 287 292 290 289 290 292 292 292 291 289 287 287 286 285 285 285 285 284 285 285 285 284 284 284 284 283 284 283 282 282 283 281 281 280 280 280 280 280 279 278 278 279
291 294 285 284 274 275 283 286 287 287 288 289 290 291 291 291 289 288 287 286 286 285 285 285 285 284 284 284 284 284 284 284 283 283 282 281 280 281 280 280 280 279 279 278 278 278 278 277 277
287 286 288 289 285 279 278 284 292 293 292 289 291 292 291 290 289 288 287 287 286 286 285 285 284 284 284 284 284 283 283 283 283 282 281 281 280 280 279 279 279 278 278 277 277 277 277 276 276
292 290 290 283 281 284 282 286 292 292 293 292 292 292 291 291 290 289 288 287 285 285 285 284 284 284 283 284 283 283 283 282 281 281 281 280 279 279 278 278 278 278 277 277 276 276 276 276 276

GFSSGP_sfc_thetae_045.txt.gz
Theta_e
319 313 311 311 300 293 289 292 294 296 296 299 301 305 303 302 304 298 320 327 343 346 350 350 350 354 353 352 353 353 352 352 351 349 349 349 348 345 345 344 344 341 339 339 336 334 333 334 338
313 316 311 304 294 286 287 291 295 296 299 301 302 301 301 303 312 316 317 329 344 346 349 350 348 351 352 351 351 352 351 351 348 347 350 349 347 344 341 339 338 338 338 338 335 333 331 332 333
316 313 303 298 291 288 289 292 295 298 300 299 299 303 302 304 314 317 321 329 341 344 348 348 347 350 351 350 350 351 351 350 347 347 349 348 346 343 340 339 338 336 336 335 332 331 329 329 329
308 307 302 293 290 293 294 294 298 298 299 302 301 299 305 312 315 321 325 332 335 341 346 344 348 351 351 349 350 350 350 348 347 346 348 348 346 342 340 339 338 336 334 332 329 327 326 326 326
306 302 295 290 291 294 294 297 298 297 297 298 300 298 301 309 318 321 326 331 332 341 344 345 346 348 349 349 349 349 349 348 348 347 347 346 345 342 340 339 338 337 335 334 330 325 323 322 322
302 299 291 288 289 295 295 298 299 295 295 297 299 298 299 306 315 315 321 321 327 337 344 345 338 340 342 347 347 347 347 347 346 346 345 345 344 343 340 339 338 337 336 334 332 327 321 319 318
298 294 290 289 290 292 297 298 294 296 295 296 300 295 297 301 306 314 316 316 316 318 322 339 342 338 335 337 341 344 345 346 345 345 344 343 343 342 341 340 339 337 335 334 332 327 322 317 315
299 294 290 292 291 291 298 298 298 298 295 300 299 295 294 299 305 310 309 308 308 309 311 313 319 337 338 339 332 339 340 341 341 339 338 336 337 337 336 334 338 337 335 333 331 327 323 318 316
298 290 288 290 292 294 297 296 299 299 299 298 299 297 298 302 305 306 304 304 304 306 307 308 309 312 327 337 332 333 336 336 336 335 332 331 333 334 332 332 335 337 335 332 330 327 323 317 316
295 290 291 295 295 295 298 297 299 296 296 295 295 298 300 301 302 301 300 299 300 302 305 308 308 309 312 329 337 340 339 338 338 338 335 336 337 334 332 327 329 332 332 332 329 328 325 319 311
295 291 294 297 300 299 298 297 298 297 293 296 297 298 299 299 299 299 299 299 299 302 307 311 313 313 310 319 333 336 335 334 334 335 337 334 332 328 326 324 324 327 324 325 323 320 319 315 312
292 296 297 301 301 299 297 298 296 296 296 298 298 299 298 298 297 298 298 299 301 304 307 310 312 314 313 312 333 331 329 328 327 328 333 333 329 328 326 328 329 327 328 324 320 317 319 316 316
295 296 299 300 299 298 300 297 296 295 296 298 299 299 297 297 297 298 299 301 303 304 304 308 311 313 316 326 327 325 322 321 321 323 326 327 324 324 324 322 322 321 321 321 319 315 315 313 312
297 298 298 300 299 298 297 296 296 295 296 296 297 295 295 296 297 296 298 299 304 305 304 307 309 311 316 318 318 318 318 316 318 318 319 320 320 319 318 317 316 315 317 317 315 311 313 309 309
298 293 295 296 298 296 297 293 295 296 296 295 294 293 294 295 296 295 297 299 303 304 305 305 307 307 309 312 312 313 313 313 313 313 314 314 314 312 311 310 310 311 310 309 309 310 311 307 307
293 291 288 295 297 296 294 289 296 296 295 293 293 292 293 294 295 295 297 300 302 302 302 304 306 305 305 305 308 309 309 309 308 310 310 310 310 309 308 308 307 305 305 307 305 304 301 299 299
289 286 288 293 296 295 292 290 294 295 295 293 292 291 292 292 293 294 297 300 301 302 302 303 302 302 301 302 303 303 302 302 302 302 301 302 304 303 302 301 300 300 299 299 303 300 297 294 295
287 286 290 290 294 293 290 291 294 295 294 293 292 291 292 291 292 294 297 300 301 301 302 302 302 300 300 301 300 298 297 296 296 296 295 296 297 297 297 295 294 294 293 293 297 295 294 291 290
291 289 288 291 294 292 291 291 294 294 293 292 291 292 292 292 292 294 296 299 300 301 302 301 301 300 301 300 298 295 293 292 292 291 291 292 292 292 291 291 290 289 289 288 289 292 288 287 287
292 289 289 292 293 292 291 291 294 294 294 295 294 294 293 290 290 292 294 297 299 300 302 302 302 302 303 300 297 294 291 289 288 288 288 289 290 290 289 288 288 287 287 286 286 286 286 285 286
291 289 288 290 291 290 288 287 290 294 295 295 296 296 294 291 290 291 293 295 297 298 302 303 303 300 297 294 292 290 289 287 286 286 286 287 288 288 288 287 287 286 286 285 284 283 284 282 284
288 293 293 292 288 284 288 283 289 292 293 293 295 293 293 290 291 292 293 293 294 295 298 299 297 295 294 293 290 289 287 285 284 284 285 285 286 286 287 286 286 285 285 284 284 284 282 282 280
291 293 291 290 287 285 285 283 287 293 293 296 295 294 293 291 291 291 293 294 292 291 291 294 294 292 291 291 291 288 285 285 285 284 284 284 284 285 285 284 284 284 284 283 282 282 282 282 280
294 292 291 289 287 280 286 286 285 291 294 297 295 292 291 290 290 291 291 290 289 288 288 288 289 289 290 289 287 286 285 284 283 283 282 283 283 283 283 283 282 282 282 282 281 281 280 280 280
292 288 281 279 278 280 287 284 290 293 295 296 295 291 290 290 289 289 288 288 287 286 286 286 287 286 287 287 286 285 285 284 283 283 283 282 282 281 281 281 281 281 281 281 281 280 280 279 278
288 289 282 277 277 279 283 281 288 295 296 292 295 294 291 289 289 288 287 287 286 286 285 285 286 285 285 286 285 285 285 285 284 284 283 282 281 281 281 280 280 280 280 280 280 279 279 279 278
288 286 293 285 273 276 283 286 291 290 290 290 291 292 290 289 288 286 286 286 286 285 285 285 285 284 285 285 285 285 284 284 284 283 282 282 281 282 280 280 279 279 279 279 279 278 277 277 277
291 292 284 283 274 273 280 283 287 287 290 289 289 290 289 288 286 286 285 285 286 286 284 284 285 285 284 284 285 284 283 284 283 283 281 281 280 280 279 279 279 278 278 278 278 277 277 276 276
288 286 287 288 283 278 277 283 290 292 292 289 290 290 290 288 287 286 286 285 285 285 284 284 284 283 283 284 283 283 283 283 282 282 281 280 280 279 279 279 278 278 277 277 276 276 276 276 276
289 289 288 284 281 281 280 287 290 290 290 291 290 291 291 290 288 287 286 285 285 284 283 283 284 283 283 283 283 282 282 282 281 281 280 279 279 279 278 278 278 277 277 277 276 276 276 275 276

GFSSGP_sfc_thetae_048.txt.gz
Theta_e
318 312 309 309 297 292 287 290 292 294 294 298 303 304 301 302 302 294 318 336 343 345 347 348 350 353 352 352 351 351 351 351 349 350 349 346 344 342 340 339 338 339 338 337 335 334 335 335 336
316 314 309 300 290 285 286 290 294 294 298 301 301 300 302 304 311 314 317 338 345 346 348 347 347 351 352 351 351 351 351 349 348 350 348 346 343 340 339 338 337 337 336 334 333 332 331 331 332
313 310 302 295 288 286 288 291 295 297 299 297 298 302 302 304 313 315 319 338 344 345 347 346 347 350 351 351 351 351 350 349 347 349 348 345 343 340 339 338 336 334 332 330 329 328 328 327 328
307 305 300 291 287 289 292 293 295 297 297 301 300 299 305 310 314 319 325 340 341 343 346 343 347 350 350 350 350 350 349 347 347 348 347 345 342 340 339 338 337 336 334 331 326 324 324 324 325
304 300 292 288 289 292 291 294 296 295 294 296 299 297 301 310 318 323 327 333 338 341 343 343 345 348 349 349 349 349 349 347 346 347 346 345 342 340 340 339 337 336 335 333 327 322 321 321 322
300 296 289 286 287 293 294 296 296 293 294 297 298 297 299 305 314 317 320 320 329 339 344 344 338 341 345 347 347 347 348 347 346 347 345 344 342 341 340 338 337 336 335 333 328 323 319 318 320
296 292 289 286 288 291 295 298 294 294 294 294 300 295 297 302 310 315 313 311 313 317 325 338 340 335 335 340 341 343 345 345 345 345 345 344 342 342 341 339 337 336 335 332 328 324 321 318 318
297 293 287 288 289 290 295 295 296 295 294 298 297 294 295 300 309 308 306 306 306 308 310 313 318 338 339 337 334 337 340 341 341 340 338 336 337 337 337 335 337 336 335 332 328 325 321 318 317
295 288 286 289 290 292 295 295 297 296 297 296 297 296 297 302 306 303 302 302 304 307 307 308 311 315 331 338 335 333 334 335 335 334 331 330 332 333 333 332 335 335 334 331 329 326 322 317 318
294 288 290 293 293 293 296 295 297 295 294 293 294 296 298 300 302 301 299 299 299 301 306 309 309 309 313 328 336 339 338 336 336 335 333 333 332 333 331 326 330 332 331 331 330 326 322 316 308
293 290 292 295 298 297 296 294 296 295 292 295 295 297 297 298 298 298 298 298 299 301 308 310 311 313 310 318 333 335 334 333 334 337 334 335 333 329 326 323 323 326 322 321 320 317 317 312 310
289 294 295 299 299 297 296 296 295 295 295 297 298 297 297 297 297 297 298 299 301 304 304 308 310 312 313 312 332 330 329 328 328 330 334 332 330 328 324 328 327 327 326 319 316 315 313 312 312
292 294 297 298 298 296 298 295 295 294 294 296 297 298 296 296 296 297 298 300 303 303 302 306 309 311 314 326 326 324 322 322 322 324 325 328 328 325 323 321 321 321 321 319 313 312 311 309 310
296 296 296 298 297 297 296 294 295 294 294 295 296 295 295 295 296 296 297 300 303 304 303 305 307 315 320 319 319 318 318 318 318 318 319 321 321 320 318 316 315 315 316 314 312 311 309 306 306
296 291 293 295 297 295 296 292 294 295 294 294 293 292 293 295 296 295 297 299 303 303 304 304 306 310 313 312 314 314 314 315 315 315 315 314 315 314 312 312 312 312 312 309 308 304 303 299 300
291 290 287 293 295 295 293 287 294 294 293 292 292 291 292 293 295 294 296 300 302 302 302 303 306 305 305 310 310 310 309 310 310 311 312 310 309 308 305 303 301 302 303 302 299 297 295 295 297
288 285 286 291 295 293 291 289 293 293 293 292 290 290 291 291 292 293 296 300 301 301 301 300 302 302 302 304 303 302 302 302 303 304 304 303 301 301 300 298 296 297 298 298 294 291 292 291 295
285 285 287 288 292 291 289 290 292 293 293 293 290 290 290 291 292 293 295 300 300 300 300 299 301 301 301 300 299 298 297 296 297 297 297 296 296 295 293 291 291 293 293 292 290 288 287 287 292
289 287 287 289 294 291 290 290 293 293 291 291 290 291 291 292 291 293 296 299 299 299 299 299 299 300 301 299 297 296 293 292 292 293 293 291 291 291 290 289 289 288 288 287 288 287 285 285 286
289 287 287 290 293 291 290 289 292 292 292 294 294 293 293 290 290 292 294 297 297 298 299 299 299 300 301 300 295 293 291 290 290 290 289 289 289 288 288 287 286 286 286 285 285 286 284 284 283
289 287 287 289 289 289 287 285 289 293 293 293 295 296 295 292 290 291 293 296 297 297 297 299 299 301 298 294 291 289 289 289 288 287 286 286 287 287 287 286 286 285 285 283 283 283 283 281 282
287 292 291 290 287 283 288 282 287 290 292 292 295 294 294 292 291 292 293 295 297 297 298 299 299 295 294 293 291 290 287 285 284 284 284 284 285 285 285 285 285 284 284 283 283 283 282 282 280
290 293 290 288 285 283 284 282 285 289 289 292 297 294 293 292 291 291 293 296 296 296 296 296 295 294 293 292 291 289 285 285 284 283 282 282 283 283 284 284 283 283 283 282 282 281 281 281 280
293 291 289 287 285 279 286 284 283 288 293 294 297 297 292 291 291 292 293 295 293 291 291 295 294 292 292 291 289 287 284 283 283 282 281 281 281 282 282 283 282 282 282 281 281 280 280 280 279
291 288 280 279 277 280 284 282 289 291 294 296 298 295 291 291 290 290 290 293 292 290 289 291 293 290 290 289 286 285 284 284 283 282 281 281 280 280 280 281 281 281 281 281 281 280 279 279 278
289 287 281 276 276 279 282 281 287 293 296 293 293 293 289 288 289 290 291 292 291 289 288 289 290 289 287 285 284 284 284 283 283 282 282 281 280 281 280 280 281 280 280 280 279 279 279 278 277
288 285 291 284 271 276 282 286 290 291 291 292 292 290 287 287 288 289 290 290 289 288 287 287 286 287 286 286 284 284 284 283 282 281 281 281 280 281 280 279 279 279 279 279 278 278 277 277 277
289 292 284 282 274 273 280 281 286 287 290 292 292 288 287 286 286 287 288 288 288 288 287 286 286 286 285 285 285 284 284 283 282 282 281 280 280 280 279 278 278 278 278 278 277 277 277 276 276
287 286 287 287 282 277 274 282 289 292 292 292 292 290 288 286 286 286 286 287 286 286 284 284 284 283 283 284 284 283 283 283 282 281 280 280 279 279 279 279 278 278 277 277 277 276 276 276 276
288 287 287 282 279 280 280 286 291 291 291 292 292 290 289 288 286 286 285 285 284 284 284 284 283 283 284 284 283 283 282 282 281 280 280 279 279 279 279 278 278 277 277 277 276 276 276 275 276

GFSSGP_sfc_thetae_051.txt.gz
Theta_e
318 311 309 306 295 291 285 288 290 292 294 299 302 300 299 302 299 291 316 330 337 343 345 347 349 352 351 351 351 351 351 351 350 347 345 342 340 339 338 338 338 336 335 335 334 333 333 336 336
315 311 307 297 289 285 286 291 292 293 299 301 300 300 303 303 310 313 317 338 343 344 345 346 347 351 351 351 351 350 349 350 349 347 344 341 340 339 338 335 333 332 331 331 331 330 330 333 333
311 307 301 292 286 285 287 290 292 296 300 296 298 302 302 303 312 313 319 340 343 343 345 344 347 350 351 351 350 350 349 350 349 346 344 342 341 340 338 337 335 332 329 327 327 327 328 330 332
306 303 297 290 286 288 290 292 292 296 295 299 300 300 306 310 312 318 324 340 341 342 344 343 347 349 350 350 350 348 347 347 348 347 344 342 341 340 339 338 336 335 331 325 324 324 326 327 328
302 298 290 288 287 290 290 293 294 294 293 294 296 297 302 310 318 322 329 338 338 341 342 342 345 347 349 349 349 349 348 347 347 346 344 342 341 340 338 337 336 335 332 327 322 321 323 324 324
298 295 288 285 287 291 292 294 295 292 293 296 297 298 301 305 316 317 324 327 333 341 342 342 338 342 344 347 347 348 348 348 348 346 345 342 341 340 338 337 336 335 332 329 326 321 321 321 321
295 292 288 286 287 290 294 295 292 293 293 293 299 294 297 303 313 314 312 313 316 323 332 338 337 337 337 340 341 344 345 345 345 345 345 343 341 341 339 338 336 334 333 330 327 323 322 319 319
294 292 286 286 288 290 294 294 294 294 292 296 296 293 297 302 311 307 306 306 308 310 312 316 328 338 337 336 334 336 339 340 341 341 339 336 337 337 336 333 336 334 333 330 326 324 322 319 318
292 288 285 288 289 291 295 293 295 294 295 294 295 295 296 304 304 303 303 304 306 308 307 309 315 319 336 339 333 331 334 335 335 333 331 330 332 333 333 331 334 334 332 331 328 324 320 316 316
291 286 290 293 291 292 294 293 296 294 293 291 292 295 298 303 301 302 302 303 302 303 307 310 310 313 317 332 338 335 336 335 334 334 331 331 331 331 332 326 329 330 329 330 327 323 318 312 306
290 289 291 294 296 296 295 292 294 293 291 294 295 296 297 299 299 299 298 299 300 302 307 310 311 312 311 318 333 336 334 333 337 336 333 329 329 328 327 326 323 323 319 318 317 315 313 310 308
291 292 293 296 297 295 294 295 293 293 295 295 296 297 296 298 299 298 297 298 299 303 303 306 309 311 312 311 332 330 330 329 330 333 332 331 329 327 325 327 326 326 323 316 313 311 310 309 309
291 292 295 297 296 295 296 293 293 294 293 294 296 297 296 296 297 296 297 298 301 302 302 305 307 310 312 323 326 325 324 324 325 326 329 331 328 326 324 322 321 320 319 317 315 313 311 311 311
294 295 294 296 295 295 295 293 294 294 293 293 295 295 295 295 296 295 296 298 301 303 303 305 307 312 317 322 321 320 320 320 321 321 322 324 324 321 319 317 316 315 315 314 312 310 307 306 305
294 290 292 293 295 294 295 292 293 293 293 293 293 293 294 294 295 295 296 298 301 302 303 304 307 312 316 316 316 316 317 317 317 317 317 318 319 317 315 313 312 312 311 308 305 301 299 299 302
290 289 286 291 294 293 292 287 293 293 293 292 292 291 292 294 295 294 296 297 301 301 302 303 308 309 311 311 311 310 310 311 312 313 312 312 312 312 309 308 306 306 303 299 296 295 295 296 298
287 284 285 290 294 292 290 288 291 291 292 292 291 290 291 291 292 293 294 296 300 301 301 300 305 305 306 304 303 302 302 303 305 307 306 305 304 304 303 301 299 299 296 292 291 290 292 296 296
284 284 285 286 290 290 288 289 292 291 291 292 290 290 290 291 293 293 293 297 300 299 300 300 302 303 301 299 300 299 298 297 298 300 301 301 298 296 296 295 294 294 290 288 288 288 288 291 293
287 285 285 288 292 290 289 289 292 292 290 290 290 290 291 292 293 292 293 297 298 298 298 298 299 300 300 298 299 298 294 294 294 294 295 295 293 291 291 290 289 288 288 286 286 286 290 286 286
287 285 286 289 291 290 289 289 291 290 291 293 293 293 293 293 289 291 292 296 297 298 298 298 298 299 300 302 296 294 293 290 291 291 291 291 290 289 288 287 286 285 285 284 284 284 283 282 282
287 286 286 288 288 287 286 285 288 293 292 293 294 296 295 294 292 291 291 295 296 297 297 298 298 300 301 295 292 290 290 290 289 289 288 288 287 287 286 285 285 284 284 282 282 282 282 280 281
286 291 290 288 286 282 286 281 286 289 291 292 295 294 295 294 292 292 292 294 296 298 298 299 298 297 293 293 292 292 289 287 288 288 287 286 285 285 285 284 283 283 282 282 282 282 281 281 280
289 291 289 287 285 282 283 281 285 287 289 293 295 296 296 293 293 291 292 295 297 298 298 298 298 293 293 293 293 292 290 285 285 286 285 282 282 283 283 283 282 282 282 281 281 281 281 281 280
293 290 288 286 284 279 285 284 283 287 291 292 296 297 294 292 291 291 293 294 296 297 297 297 295 292 292 292 292 290 287 285 283 282 282 281 281 281 282 282 281 281 281 281 281 281 281 280 280
290 288 280 278 276 279 283 281 289 290 292 294 296 295 292 290 288 288 289 293 294 294 296 296 294 291 292 292 290 288 287 286 284 282 282 281 280 279 280 280 280 280 281 281 280 280 279 279 278
288 287 281 275 275 278 282 280 286 291 294 293 294 293 291 288 288 288 290 293 294 294 294 295 293 291 290 290 289 288 287 286 284 283 282 282 281 280 279 280 280 280 280 279 279 279 279 278 278
287 285 290 283 271 275 281 284 289 291 291 291 292 291 289 289 287 287 289 292 293 293 293 294 292 290 289 289 287 286 286 285 283 281 281 280 279 280 279 279 279 279 279 279 279 278 277 277 277
289 292 284 282 273 271 279 281 285 289 290 294 293 293 289 288 286 287 289 291 293 293 292 291 290 289 287 287 287 285 284 283 282 281 280 279 279 279 279 279 279 278 278 278 278 277 277 277 276
286 285 285 285 282 277 274 282 288 292 292 292 293 292 291 288 286 286 287 288 289 289 287 286 286 286 285 285 285 283 282 282 282 281 280 279 279 279 279 279 279 279 278 277 277 277 277 276 276
287 286 286 280 278 279 279 285 289 291 292 292 293 293 289 288 286 286 286 286 286 286 285 285 285 285 285 284 283 282 282 281 281 280 279 279 279 279 279 279 279 278 278 278 277 276 276 276 276

GFSSGP_sfc_thetae_054.txt.gz
Theta_e
320 310 308 302 294 290 285 287 292 291 292 298 301 297 296 301 296 289 314 325 338 341 343 344 347 350 352 352 351 350 350 350 346 343 341 340 338 338 337 336 335 335 334 334 334 338 338 341 341
314 309 304 295 289 284 285 287 291 292 300 301 300 300 302 301 310 314 317 335 340 342 344 344 346 350 351 351 351 350 350 350 346 343 342 340 339 337 335 333 331 331 331 331 332 335 336 338 338
309 305 300 291 285 284 286 289 291 295 300 294 298 302 302 304 311 312 320 339 342 342 344 344 346 350 351 351 349 349 350 349 346 343 342 341 340 339 338 336 332 328 328 328 329 332 334 334 334
305 302 295 289 286 288 289 291 292 297 295 297 300 300 304 309 311 316 322 339 340 341 342 343 346 349 349 350 349 348 349 348 346 344 342 342 340 339 338 337 334 329 325 325 327 329 330 331 330
300 296 289 287 286 289 289 292 295 294 291 294 295 296 301 310 316 319 325 338 337 339 341 341 345 347 347 349 348 348 348 348 346 344 342 341 340 339 337 336 334 331 327 324 325 326 326 327 325
297 294 287 285 287 290 291 292 293 291 292 294 297 300 302 304 314 316 329 331 332 338 341 341 339 341 344 346 347 348 348 348 346 345 342 341 340 338 337 336 334 332 330 326 324 322 322 323 322
295 291 286 286 287 289 292 294 290 292 293 294 300 297 298 303 313 313 316 318 321 328 337 337 338 338 337 340 342 344 345 345 345 344 343 342 341 340 338 338 335 333 331 328 326 323 321 320 319
293 291 284 284 287 288 293 293 292 293 291 295 295 293 296 304 312 308 309 310 312 314 320 330 334 336 336 337 334 337 340 341 341 340 338 336 336 336 335 332 335 333 331 328 325 323 321 319 317
291 287 285 287 288 290 293 292 292 293 294 293 294 294 297 305 306 306 307 308 309 309 309 312 321 332 339 338 333 332 334 335 335 334 331 329 332 331 331 330 333 332 331 329 325 321 317 315 314
289 286 288 290 289 290 292 292 294 293 292 293 294 294 298 303 303 308 309 312 308 307 308 310 311 317 321 337 337 334 335 334 334 333 331 330 329 330 331 326 327 328 327 326 324 320 315 309 304
288 286 290 292 294 294 293 291 293 292 290 294 295 295 299 300 301 307 308 309 308 304 308 309 310 312 315 320 334 335 332 332 336 334 333 328 327 327 327 326 323 319 317 315 314 311 309 307 306
291 290 291 295 295 293 292 293 292 292 294 294 295 296 298 300 300 300 302 302 301 303 305 307 309 310 311 311 329 333 331 330 332 333 332 330 326 323 326 326 325 322 319 313 310 309 309 308 307
291 290 293 295 294 295 295 292 293 293 294 294 294 297 297 299 299 298 298 297 298 301 302 305 306 309 311 311 326 324 327 328 329 331 332 329 327 326 326 323 322 320 318 316 314 312 311 310 308
292 293 293 294 294 293 293 294 295 295 292 292 294 294 295 297 298 296 296 297 298 301 302 304 306 309 312 319 324 321 322 322 323 324 328 329 327 324 321 318 317 316 315 314 311 309 308 305 302
293 290 291 290 293 292 295 291 293 294 292 293 292 292 293 294 295 297 297 296 298 301 302 303 305 309 311 314 317 318 318 319 317 317 319 321 323 320 317 315 313 312 311 307 304 303 302 300 299
289 288 286 289 293 292 291 286 292 292 292 293 292 291 292 294 295 294 296 296 299 300 301 302 308 307 310 311 313 312 313 313 313 314 314 315 316 316 313 311 310 307 305 302 300 299 298 297 295
286 283 284 289 293 290 289 287 291 290 291 292 291 291 291 292 293 293 294 295 298 300 300 301 304 306 308 306 303 306 307 308 309 310 310 310 309 309 309 306 303 300 296 295 295 293 297 294 292
283 283 284 285 289 288 287 288 291 291 290 291 290 290 290 291 294 294 293 294 298 299 300 300 302 304 303 302 301 300 300 299 301 303 304 304 303 303 303 301 297 292 290 290 291 293 291 293 289
286 284 284 286 290 288 288 288 291 292 289 290 290 290 292 293 296 293 293 293 297 298 298 299 301 301 302 301 300 300 297 296 296 297 298 298 298 298 298 294 290 288 289 289 292 292 290 286 286
286 285 285 287 289 288 288 288 292 291 291 292 294 293 293 293 291 291 291 293 296 298 298 298 301 299 302 301 298 294 294 292 292 293 293 293 294 294 292 290 287 286 287 287 288 288 283 281 282
286 285 284 286 287 287 285 285 287 291 290 291 293 295 294 295 294 291 290 292 295 297 298 299 299 301 302 296 292 290 292 291 290 290 290 289 291 290 288 286 285 284 285 286 284 284 283 280 280
284 289 288 287 285 281 285 279 285 289 290 291 294 293 294 295 294 292 291 291 295 297 299 299 298 298 299 294 292 294 291 291 289 289 288 287 288 287 285 284 284 283 282 282 282 282 281 281 279
288 290 288 286 284 281 281 281 284 286 288 292 295 296 294 295 293 292 292 293 295 297 297 298 298 297 293 294 295 297 295 288 287 287 286 285 285 285 283 283 282 282 281 281 281 280 280 280 279
291 289 287 285 283 279 283 283 285 286 290 291 294 296 295 293 291 291 290 291 294 296 297 297 297 295 292 292 293 295 290 287 287 285 285 284 284 282 281 281 281 281 281 281 280 280 280 280 279
288 287 280 277 276 278 281 281 288 287 291 292 294 294 292 291 290 288 288 290 293 294 296 297 296 294 293 292 292 291 291 289 288 285 285 283 282 280 280 280 280 280 280 280 280 280 279 279 279
287 287 280 274 273 277 281 279 285 290 292 292 292 292 291 290 290 288 288 290 293 294 296 297 296 295 293 291 289 289 289 289 288 286 285 284 283 281 280 279 279 279 279 279 279 279 279 279 278
287 284 289 282 270 275 281 282 288 290 291 292 292 291 291 290 290 288 287 290 292 294 295 297 295 294 292 291 289 289 289 288 286 285 284 283 280 281 279 279 279 279 279 279 279 279 278 278 278
288 290 283 281 273 270 278 279 284 289 290 292 291 293 291 290 289 287 287 289 291 293 294 296 295 293 291 290 288 288 288 287 285 284 282 282 279 280 279 278 278 278 279 279 279 278 278 277 277
286 285 285 285 281 275 273 281 287 291 292 292 293 292 292 291 289 287 287 288 290 291 292 293 292 288 287 288 287 287 285 285 284 283 282 280 280 279 279 279 279 279 278 278 278 278 278 277 277
285 285 285 280 277 278 278 284 289 290 290 291 293 292 290 289 289 286 286 287 287 288 288 288 289 288 288 286 285 286 284 284 283 282 281 279 279 279 279 279 279 279 279 278 278 278 277 277 276

GFSSGP_sfc_thetae_057.txt.gz
Theta_e
322 313 312 306 299 295 291 294 296 296 298 302 301 300 300 305 298 295 319 336 341 341 344 345 348 351 351 351 350 350 350 347 343 341 340 339 337 336 335 335 335 334 335 339 340 343 343 340 338
315 311 307 299 294 290 291 294 295 297 304 305 304 306 306 307 314 318 328 335 342 343 345 346 346 350 351 350 350 349 349 346 343 342 341 339 338 336 333 332 331 331 333 336 339 340 338 337 335
312 306 305 295 289 289 290 294 296 300 302 300 303 307 307 309 315 318 325 339 344 344 345 346 346 349 350 350 350 349 349 347 343 342 342 341 340 339 336 331 329 329 331 334 336 337 335 332 330
308 305 298 294 292 294 295 295 297 300 301 301 304 303 309 314 316 321 330 342 343 344 345 344 347 350 349 349 350 349 349 346 343 343 342 341 340 338 336 332 328 327 329 330 331 332 330 327 325
302 299 293 291 293 294 294 296 299 299 297 301 301 301 307 313 320 324 329 341 341 343 344 345 345 346 349 349 349 349 349 347 344 343 342 340 339 338 336 334 331 327 326 327 327 327 325 323 321
300 297 291 290 291 294 296 296 299 297 298 299 301 304 307 310 320 324 331 339 341 342 343 344 339 341 344 347 348 348 347 346 346 343 342 340 339 337 336 334 333 330 328 326 325 324 323 320 319
298 294 291 290 290 293 295 295 295 296 297 299 304 302 304 308 320 321 328 330 332 340 341 343 343 341 337 340 342 344 345 345 344 343 343 341 340 339 338 336 333 331 329 326 324 322 321 319 318
295 294 290 289 290 292 295 295 296 297 297 300 302 299 301 310 316 315 319 321 324 329 338 340 341 342 343 344 335 337 340 341 341 340 338 335 335 335 334 332 333 331 328 326 324 321 320 318 317
296 291 288 290 290 294 294 295 295 298 297 298 299 300 302 311 311 314 315 315 317 318 322 333 338 340 341 341 336 333 334 336 335 335 331 331 336 335 333 330 332 331 327 324 321 320 318 316 315
292 289 291 293 292 293 294 295 295 296 296 297 298 299 303 309 310 315 317 318 317 316 316 319 322 328 336 339 337 339 340 341 340 340 337 337 335 335 332 326 327 327 326 324 321 317 313 309 308
292 288 291 294 295 296 295 294 296 295 294 297 298 299 302 307 309 316 318 321 319 316 315 315 317 318 323 330 338 337 337 337 338 337 336 333 333 333 330 326 322 321 317 317 315 314 312 310 308
291 292 293 297 297 295 294 295 294 294 297 298 298 299 302 305 309 313 316 315 312 311 313 313 314 316 317 319 327 337 335 337 336 335 334 331 330 330 329 328 323 321 319 316 315 313 311 308 306
291 292 294 296 295 294 295 294 295 294 296 298 297 298 301 305 307 305 309 310 308 308 309 311 312 314 315 317 326 331 335 333 335 336 333 331 329 329 329 326 323 320 318 317 314 313 310 306 303
294 294 294 295 295 295 295 294 295 296 296 296 296 297 299 302 304 302 301 303 302 305 307 309 310 313 316 315 326 328 330 329 329 330 331 329 329 328 324 322 319 318 317 315 312 310 305 301 299
293 291 293 292 294 294 295 292 294 296 295 296 296 295 296 298 300 303 304 301 301 303 305 306 309 312 315 318 324 324 325 325 323 323 327 328 327 325 321 318 316 314 312 308 307 304 301 298 295
290 290 287 291 293 294 294 288 294 294 295 296 295 294 294 296 298 299 300 300 301 302 304 306 309 312 314 316 319 318 320 321 318 319 321 324 323 322 319 315 313 310 307 306 304 301 299 296 292
287 284 285 289 293 292 291 289 293 293 292 293 294 294 294 294 295 297 298 299 300 302 304 304 308 310 312 312 312 312 314 315 314 315 315 317 318 317 316 313 308 305 302 303 301 301 298 292 289
284 284 285 286 290 290 289 289 292 293 292 293 293 293 293 294 296 298 297 297 299 301 303 304 306 308 308 306 306 304 305 304 307 308 309 309 310 311 310 306 303 300 299 299 301 299 296 291 289
286 285 285 287 290 290 289 289 291 294 291 291 293 293 294 294 299 297 297 297 297 300 301 303 305 305 305 305 304 304 304 302 301 302 303 304 305 305 305 300 297 297 300 301 299 297 292 289 288
286 285 286 288 289 289 289 289 293 292 295 295 296 296 295 297 295 294 295 295 296 299 301 302 304 304 305 308 303 302 300 297 298 297 298 299 301 301 299 295 293 296 297 298 297 294 290 289 289
286 285 285 287 288 287 286 285 288 291 292 294 294 296 296 297 298 296 293 294 296 298 300 302 303 303 305 305 295 294 294 294 293 294 293 293 296 296 295 292 292 295 298 297 296 293 291 288 286
284 288 288 286 286 282 286 280 286 289 290 292 294 294 295 297 296 295 293 293 294 297 300 302 302 302 303 298 298 298 298 295 295 296 293 291 293 292 291 289 291 293 296 294 293 292 290 289 286
287 289 287 286 285 283 283 282 285 287 289 291 295 296 296 296 295 295 293 295 295 297 299 301 301 302 302 299 301 300 298 295 294 292 290 289 289 289 288 287 289 290 291 292 290 287 287 288 286
290 288 287 285 284 279 283 283 284 285 289 291 294 295 296 294 294 293 293 293 293 296 299 300 300 300 298 299 299 300 299 291 291 289 288 287 287 286 286 285 287 286 287 287 287 287 287 286 285
288 286 279 277 276 279 282 282 288 289 291 292 294 296 294 294 294 293 291 291 292 295 297 299 299 298 296 298 298 299 295 293 293 290 289 286 285 284 284 284 285 285 285 285 285 285 284 284 284
286 286 280 274 273 277 281 279 285 290 292 292 292 292 292 293 293 293 292 291 292 294 296 298 298 298 295 295 296 295 294 294 293 292 290 288 287 285 284 284 284 283 283 283 284 284 283 283 283
286 284 288 282 270 275 280 282 287 290 291 291 293 292 291 292 293 293 291 290 291 294 295 297 298 298 295 295 294 293 292 292 292 290 288 287 286 284 283 284 283 283 282 283 283 283 282 283 282
288 290 283 281 273 271 278 279 283 287 291 291 291 292 293 293 293 291 290 289 291 293 295 297 298 297 295 295 294 292 292 291 290 288 286 285 284 283 282 282 282 282 282 282 282 281 281 282 281
286 284 284 284 281 275 273 280 286 289 290 291 292 293 293 293 293 292 289 289 291 292 293 296 296 295 293 293 292 290 289 289 288 287 285 284 283 282 281 282 281 281 281 281 281 281 281 281 280
284 285 286 280 277 278 278 284 288 290 292 291 292 292 292 292 292 290 289 288 289 291 292 294 294 292 292 292 291 290 289 287 286 285 284 283 282 282 281 281 281 281 281 281 281 280 280 280 279

GFSSGP_sfc_thetae_060.txt.gz
Theta_e
325 321 325 320 307 306 300 299 303 302 303 306 308 306 306 308 303 303 334 341 342 343 344 345 347 350 350 349 349 349 347 343 341 340 338 337 336 335 335 335 336 339 340 344 344 342 339 337 334
321 318 321 315 303 298 299 302 301 304 308 310 310 311 310 310 320 327 334 341 343 343 345 345 346 351 350 349 349 348 347 343 342 341 340 338 335 333 333 333 334 337 339 341 341 338 335 333 332
318 313 316 310 304 297 299 302 304 307 310 308 308 312 312 313 323 331 335 342 343 343 344 345 346 350 350 349 349 348 347 344 342 342 341 340 338 333 331 331 333 334 336 337 337 334 331 331 331
318 316 310 304 299 300 301 303 304 307 305 305 309 308 315 320 325 329 341 342 342 343 345 344 347 349 348 349 348 348 347 343 343 342 341 340 338 335 330 329 331 331 332 334 332 329 327 327 329
317 313 305 302 300 300 302 304 308 305 304 307 309 306 312 320 326 332 341 342 341 343 344 345 345 346 347 350 348 347 347 345 343 342 341 339 337 335 333 329 328 328 329 329 327 325 324 325 327
312 311 302 299 299 300 302 304 308 305 304 306 305 308 312 321 326 334 342 342 343 343 344 344 340 342 344 347 346 346 345 346 344 342 340 339 337 336 334 332 330 328 327 326 324 323 322 324 325
309 307 301 300 299 299 302 305 306 305 304 305 309 306 311 318 329 333 341 343 343 344 344 345 346 342 338 341 343 344 344 344 344 343 341 340 338 337 335 334 331 329 327 325 323 321 321 323 324
309 308 299 300 298 299 303 304 304 305 304 307 311 305 306 319 329 333 339 341 342 344 343 343 344 343 343 344 335 338 340 341 341 340 337 335 334 334 333 330 331 329 326 325 323 321 321 322 323
304 303 299 299 298 301 302 302 301 304 304 306 308 306 310 323 327 331 333 334 336 338 343 343 343 344 344 344 338 334 335 336 335 335 330 330 335 334 333 328 329 327 325 323 322 320 320 320 319
305 302 300 302 303 302 302 303 303 303 303 304 305 306 308 322 326 329 330 331 332 334 337 342 343 343 344 342 344 344 343 343 342 341 339 337 336 335 332 326 325 325 323 321 319 316 314 318 320
300 300 299 301 301 302 302 301 304 303 301 306 306 307 308 320 325 328 330 331 332 334 335 336 340 340 342 342 342 344 345 344 344 341 340 338 336 334 332 328 325 324 320 319 317 316 315 316 317
299 299 300 302 303 302 301 302 301 303 306 306 308 308 309 317 321 326 329 331 333 332 333 333 334 334 336 333 340 342 340 340 343 341 339 336 335 334 331 329 325 322 322 321 319 316 314 313 312
299 300 300 302 302 301 300 301 302 302 307 305 304 304 307 312 320 324 329 332 333 329 330 329 329 330 330 333 333 336 342 340 339 338 334 334 333 331 329 327 324 321 320 320 316 311 309 308 307
301 301 301 302 302 302 300 302 301 305 306 304 304 306 307 309 316 322 324 327 329 328 328 327 324 327 327 329 332 338 338 341 340 341 337 335 334 331 329 325 321 320 319 318 315 307 303 303 303
300 299 300 301 301 301 301 299 299 306 302 304 304 306 306 307 311 316 319 323 326 325 325 322 321 322 323 326 329 334 336 337 339 334 336 335 333 330 327 326 320 317 315 312 308 304 300 299 299
299 299 296 299 299 300 300 297 302 301 302 304 306 306 306 306 307 311 316 319 321 321 318 319 315 317 320 323 326 331 333 332 334 334 331 331 330 328 326 325 319 313 313 309 305 301 299 300 298
297 294 294 296 299 299 299 298 302 300 300 302 304 305 306 306 306 308 311 314 314 314 313 313 314 315 317 320 322 325 327 330 330 329 327 329 326 325 323 320 315 313 314 310 305 301 300 298 295
293 293 293 295 297 297 297 297 302 303 300 303 305 306 305 305 306 308 308 310 312 312 311 312 313 315 317 319 320 320 318 321 325 325 322 321 323 323 319 314 310 309 312 307 303 300 301 297 293
295 294 293 296 296 296 297 298 300 303 303 302 303 305 306 306 309 309 308 308 308 309 310 310 311 313 316 316 315 315 311 311 313 315 314 315 315 315 313 310 305 304 306 308 303 300 297 294 293
295 294 294 296 295 295 297 296 300 302 302 304 304 305 306 307 308 307 306 306 306 307 308 309 310 312 314 315 316 315 314 308 312 309 308 308 309 310 310 306 306 303 306 305 302 300 296 293 294
294 293 294 293 294 295 294 294 298 301 301 302 303 305 306 306 307 308 306 305 306 306 307 308 309 311 313 314 314 307 302 301 302 302 302 302 305 303 303 303 301 303 305 305 304 301 298 292 294
291 296 294 293 292 289 293 287 295 299 299 300 303 305 305 306 306 307 307 304 305 306 308 308 309 310 312 313 309 309 306 305 306 305 300 299 302 301 299 296 297 301 306 306 305 302 300 298 294
293 295 294 293 292 291 291 288 293 295 295 299 302 304 306 307 307 306 306 305 306 306 307 308 308 309 310 312 311 311 311 312 306 303 298 297 297 297 295 294 296 299 302 306 304 301 300 298 298
295 294 293 293 292 286 291 289 291 295 296 299 301 303 305 306 305 305 305 304 304 305 305 307 307 307 309 309 310 310 310 311 307 301 297 295 296 293 292 290 293 296 299 303 302 300 298 299 298
294 293 286 285 284 284 289 288 291 296 298 299 301 303 303 303 304 304 303 302 301 301 303 304 305 305 307 307 308 309 310 308 307 306 302 297 295 295 290 289 289 292 295 300 300 299 297 296 295
292 293 287 282 282 286 285 285 292 298 299 299 300 301 302 301 303 304 305 303 301 300 302 303 303 304 306 306 307 308 310 307 307 305 305 301 299 296 292 288 288 290 292 296 296 295 294 292 292
291 288 295 288 281 283 288 292 296 297 296 298 299 301 302 303 303 303 304 303 301 301 301 303 303 303 305 304 306 306 306 305 304 301 302 300 297 292 288 287 287 287 288 292 291 291 288 290 289
293 296 287 288 282 280 286 288 289 295 297 300 298 300 302 303 303 304 303 302 300 301 302 302 303 303 304 303 304 304 302 303 299 298 297 296 295 290 286 286 285 286 286 289 289 289 288 288 287
290 290 290 290 288 283 282 287 297 297 298 297 299 299 302 303 302 303 302 299 299 300 301 301 302 302 302 302 303 302 302 299 298 296 297 294 291 287 285 284 285 284 284 288 288 287 287 286 285
294 292 292 286 284 286 286 287 295 298 299 298 299 299 301 301 301 300 300 298 298 298 299 300 301 301 302 301 301 300 300 298 296 295 295 292 289 286 284 284 283 284 284 286 287 285 285 285 284

GFSSGP_sfc_thetae_063.txt.gz
Theta_e
330 324 325 322 308 306 301 301 306 304 306 310 312 309 308 310 305 307 337 341 340 339 341 343 348 348 347 347 348 347 344 341 340 338 337 337 336 336 337 339 342 345 344 342 340 338 336 334 334
323 320 322 316 304 299 300 304 302 306 310 310 311 311 310 311 321 328 334 341 342 342 343 343 345 349 348 348 347 346 344 341 340 339 337 335 334 334 335 338 339 342 342 340 337 336 334 333 334
321 317 315 310 305 299 299 303 306 308 311 310 309 313 312 315 324 332 340 341 342 343 344 345 347 350 349 347 346 346 345 342 342 341 340 335 333 332 334 336 337 338 338 336 334 333 332 333 334
319 317 314 304 301 303 303 305 307 309 307 309 311 308 316 324 329 334 341 341 341 342 344 344 348 350 349 348 347 346 344 343 342 341 340 337 332 331 332 333 334 335 334 332 330 330 330 331 332
319 315 306 303 302 304 305 306 308 307 307 308 310 307 312 323 330 337 340 341 340 341 344 344 347 348 348 348 347 347 346 344 342 341 339 337 334 330 330 331 331 331 329 327 327 328 329 330 329
311 312 302 300 302 304 305 307 308 307 307 309 307 308 313 326 329 335 340 340 341 341 343 342 339 342 344 347 346 345 346 345 343 340 339 337 335 332 331 329 329 329 327 325 325 326 327 328 328
310 307 302 302 301 302 304 308 307 307 306 306 310 306 314 321 328 335 338 340 340 340 342 342 343 341 338 341 342 342 343 344 343 342 340 338 337 336 333 332 329 327 325 324 323 325 327 328 328
311 308 303 303 301 300 306 307 309 308 305 310 313 306 307 319 329 335 337 338 338 339 340 340 342 343 342 343 336 338 340 340 341 339 336 334 334 333 332 329 329 327 325 324 323 324 326 327 326
310 303 300 302 301 302 306 305 306 309 307 308 311 309 315 322 329 332 333 335 336 337 340 341 340 341 341 341 338 334 335 336 335 333 330 329 332 331 330 327 328 326 325 324 324 324 324 322 322
307 302 302 305 305 304 305 305 306 304 305 306 308 310 315 324 326 327 328 329 333 336 338 338 340 341 342 340 342 342 342 341 340 338 334 334 333 332 329 323 324 325 324 322 321 322 322 322 321
306 302 304 304 305 305 305 304 307 304 303 307 307 309 311 321 323 324 327 328 331 334 337 339 338 341 341 341 343 343 343 342 342 339 337 336 332 332 329 325 322 320 318 316 316 317 318 319 319
300 302 303 304 305 304 303 306 304 305 307 309 311 312 311 318 320 322 325 327 329 332 335 337 339 340 341 342 341 342 342 343 341 340 339 338 336 331 329 327 326 324 323 321 320 317 317 316 316
301 302 302 304 304 304 303 303 304 306 309 309 308 308 310 314 319 323 326 328 330 330 333 335 338 339 339 340 340 341 341 342 343 342 340 339 334 332 330 329 325 322 323 321 318 316 313 311 311
303 303 303 304 304 304 302 303 303 306 310 309 307 307 309 311 315 320 324 326 329 332 332 335 336 337 337 337 338 339 339 340 341 342 339 336 334 332 329 325 323 321 321 318 314 310 306 307 307
303 300 302 302 303 302 303 300 301 306 306 306 307 308 309 310 312 316 322 325 329 332 333 333 333 334 335 333 335 336 339 339 340 341 340 335 334 332 328 324 321 320 317 314 309 305 304 303 302
300 300 296 302 302 303 302 296 304 306 306 305 307 308 309 309 310 313 319 323 327 331 331 332 330 330 331 332 333 333 336 337 338 339 340 338 333 332 327 323 320 319 313 308 305 303 301 300 300
300 294 296 299 302 301 301 299 305 305 304 304 306 307 308 309 310 311 314 319 322 327 329 330 328 326 327 329 331 332 334 334 336 337 337 336 335 331 327 324 319 315 311 307 305 304 302 299 298
295 295 296 296 300 299 299 299 303 306 305 304 306 308 308 308 309 312 312 315 319 324 326 326 325 323 324 325 325 327 330 328 332 333 331 331 329 328 325 322 316 315 311 310 307 304 301 298 297
297 296 295 298 299 297 298 298 301 304 305 305 305 306 307 308 312 312 313 313 316 318 318 319 319 319 320 319 319 320 319 319 323 326 325 327 326 324 323 317 313 312 309 307 305 302 298 295 296
297 295 295 298 299 296 297 297 301 303 303 305 305 306 307 308 310 312 312 312 311 314 316 315 315 315 316 318 319 319 319 317 317 318 318 320 318 320 317 314 311 309 307 305 303 299 296 294 295
296 295 295 295 297 298 296 295 298 302 304 305 306 307 307 308 309 310 312 311 312 311 313 313 314 314 315 317 317 317 316 315 311 311 311 310 313 314 313 311 308 308 308 304 301 298 296 294 294
292 298 297 295 293 289 296 288 296 299 300 303 305 306 307 308 309 309 311 311 311 311 313 313 313 313 314 316 315 315 310 308 311 313 309 307 307 307 309 308 309 309 308 304 301 299 298 297 293
295 297 296 295 294 293 293 289 294 299 298 300 303 306 308 309 310 310 310 311 311 312 313 313 312 313 313 315 315 314 310 312 314 314 308 307 304 304 302 299 301 304 306 304 303 300 300 299 296
298 297 296 296 294 286 292 291 292 296 298 301 304 305 307 308 309 309 310 311 310 313 312 312 311 311 312 313 314 313 311 312 313 311 309 304 302 298 299 299 300 301 303 304 304 301 301 300 299
296 293 286 285 286 285 292 290 293 298 300 302 302 304 306 307 307 308 307 306 306 308 309 309 309 309 311 312 312 313 312 313 313 310 307 304 299 296 294 295 297 300 302 304 303 300 300 300 300
293 293 288 282 284 287 289 286 292 301 303 303 303 304 305 306 306 306 308 309 307 306 306 307 307 308 309 310 310 311 312 312 313 313 308 303 302 300 296 294 294 296 298 300 301 298 298 299 299
293 289 296 289 287 285 288 293 298 300 299 301 302 303 304 306 307 306 307 308 307 305 305 306 306 306 308 308 309 309 311 311 311 310 312 308 305 302 298 294 292 292 294 296 297 296 294 296 294
294 297 288 288 283 281 286 288 290 297 298 301 301 302 304 306 306 307 307 307 306 305 306 306 306 305 306 307 308 307 309 310 311 310 309 308 307 300 296 292 289 289 291 291 292 291 289 292 290
291 290 291 291 289 283 283 287 298 298 299 300 302 303 304 305 306 305 307 305 304 304 305 305 305 305 305 306 306 306 307 308 308 307 305 303 300 295 292 290 287 287 288 288 289 288 288 288 287
296 292 292 286 285 288 286 287 300 300 300 301 301 303 304 305 305 305 304 304 302 303 303 304 304 304 305 305 305 305 306 305 304 304 302 299 296 292 291 289 288 287 286 286 287 286 286 286 285

GFSSGP_sfc_thetae_066.txt.gz
Theta_e
330 325 319 318 305 302 296 297 302 302 302 304 308 305 303 309 309 308 330 333 337 337 339 343 347 345 345 346 346 344 343 340 339 338 338 338 338 339 341 343 345 344 341 339 337 336 336 335 335
320 319 317 312 300 295 294 299 299 303 306 306 307 306 305 308 322 327 330 337 337 337 339 341 346 347 346 346 346 345 343 340 338 337 336 335 336 338 339 342 343 340 337 337 336 335 335 335 336
319 318 310 306 299 294 294 298 301 306 306 305 304 307 307 312 325 329 336 338 337 338 340 342 346 348 347 347 346 345 344 342 341 338 335 334 335 337 338 339 339 336 336 335 334 334 335 334 335
316 313 309 299 297 298 299 299 305 304 303 306 306 305 311 319 327 333 337 338 338 340 342 343 347 349 348 347 347 345 343 342 340 339 335 333 334 335 336 337 336 334 332 332 332 333 333 333 333
314 311 301 298 298 300 301 302 305 303 302 303 303 303 309 320 329 335 335 337 336 338 342 345 347 348 347 347 347 346 345 341 340 339 336 333 333 333 333 334 332 330 329 330 331 331 331 331 331
307 307 298 295 297 301 301 302 303 302 302 303 301 300 309 321 326 333 335 334 338 339 341 344 340 343 345 345 346 346 345 344 341 339 337 334 332 331 331 331 329 328 327 328 330 330 329 330 331
306 303 297 297 296 297 301 303 299 301 301 302 303 299 310 318 326 333 334 334 336 340 338 339 341 341 338 341 341 342 343 343 341 340 339 337 335 334 332 331 328 326 326 327 328 329 329 331 331
305 304 298 295 296 297 301 303 302 301 300 304 305 300 302 316 326 330 332 332 333 336 338 337 338 340 340 339 335 337 339 340 339 338 335 333 332 332 331 328 328 326 325 326 328 328 329 328 329
307 298 294 297 297 298 302 300 301 301 302 301 306 302 308 319 327 326 327 328 331 334 335 336 338 338 337 339 335 333 335 335 334 332 329 326 327 325 325 326 327 326 325 326 327 327 325 324 325
301 297 298 301 300 298 301 300 301 298 299 299 301 304 309 320 322 323 324 324 326 330 333 336 338 338 337 338 337 338 338 336 335 332 328 329 327 326 323 321 324 325 325 325 326 324 324 320 315
302 297 299 300 302 302 301 298 301 298 296 300 301 303 309 317 318 321 323 324 325 330 334 334 336 337 337 337 338 337 338 337 336 332 329 330 326 324 321 318 316 315 316 315 315 316 315 314 313
296 300 300 303 303 301 299 301 298 299 300 303 302 306 309 315 316 318 320 322 325 327 330 333 335 336 337 338 337 336 336 336 336 335 331 330 328 324 321 318 316 314 313 311 312 312 311 310 311
296 298 300 302 301 299 301 298 298 299 302 303 304 305 305 312 315 317 319 322 323 325 328 330 332 335 335 336 338 336 336 335 335 335 334 333 330 325 322 322 320 317 317 315 311 309 308 307 307
300 300 299 301 301 300 298 298 298 300 303 302 303 301 303 306 312 314 317 320 322 325 326 330 330 332 334 334 333 335 336 336 335 335 334 333 331 328 325 323 320 318 318 315 312 307 305 303 301
300 295 297 298 300 298 299 295 296 300 301 300 300 301 302 304 307 311 316 318 321 324 326 328 330 331 331 332 332 334 333 335 336 335 334 332 331 329 325 321 319 318 315 310 306 303 301 300 297
296 294 290 297 299 298 296 289 299 299 299 299 300 299 301 303 304 306 312 318 320 323 326 327 330 330 329 329 329 329 330 332 332 334 335 332 331 329 325 321 319 317 311 306 304 302 300 296 295
293 287 289 294 299 298 296 292 298 299 297 296 298 299 300 302 303 304 307 313 318 322 326 326 326 326 328 327 327 327 327 329 329 331 332 333 332 329 325 321 318 315 309 305 302 300 299 296 294
288 288 291 289 295 294 293 293 298 300 299 298 299 299 300 301 303 304 306 309 315 318 323 326 326 324 323 323 323 324 325 328 329 329 329 333 332 330 326 322 317 313 309 305 302 300 299 294 294
292 291 290 291 295 293 293 293 295 298 297 296 297 298 299 301 303 305 305 306 309 313 318 324 324 322 321 320 319 317 318 317 320 323 326 327 327 327 326 321 314 312 309 306 304 300 297 293 293
292 290 289 293 295 292 292 292 295 296 297 298 298 298 299 300 301 303 304 304 307 310 314 317 321 320 320 320 318 316 314 313 317 316 319 322 323 324 323 318 314 313 311 307 303 299 295 293 292
291 290 290 290 293 292 289 288 292 297 299 299 299 301 300 300 300 301 303 303 304 306 309 312 315 317 317 315 314 311 311 309 308 312 315 315 317 319 319 316 313 312 311 307 303 299 296 291 291
289 294 294 292 288 283 290 281 289 293 294 297 298 298 299 300 301 302 302 302 304 306 308 310 309 309 311 312 312 311 310 309 308 309 311 313 312 314 314 314 311 311 310 307 303 300 297 294 291
291 295 293 291 288 287 286 283 287 291 290 293 296 298 299 300 301 301 302 303 304 304 304 305 307 308 309 310 311 310 309 307 305 306 306 307 306 309 309 310 309 309 309 307 303 299 298 296 294
296 293 292 290 288 280 287 285 284 288 290 292 295 296 299 302 301 302 302 304 303 304 304 304 305 306 308 309 310 309 309 304 304 305 304 304 303 304 303 304 307 309 308 306 303 301 299 297 296
293 289 280 279 279 279 286 283 287 292 295 292 294 296 296 302 300 301 300 300 301 302 303 304 304 303 305 306 307 308 307 305 304 305 306 300 298 299 301 301 302 304 306 305 304 300 299 298 296
290 289 281 276 277 279 283 281 286 293 294 295 295 297 297 296 299 299 300 301 300 301 302 302 302 302 303 304 305 306 307 306 307 307 306 304 302 302 300 300 301 302 303 304 304 301 300 299 297
290 286 291 284 277 277 283 287 293 294 293 294 296 296 296 298 299 300 300 301 301 299 300 301 301 302 302 303 304 304 305 306 306 306 306 304 301 301 299 297 298 300 301 302 303 300 299 298 295
291 293 284 284 274 273 280 282 285 290 293 294 293 295 297 299 300 300 300 301 300 299 300 300 301 300 301 302 303 304 304 304 305 305 303 302 301 298 294 294 295 295 296 298 299 296 293 293 291
288 286 287 288 284 278 275 281 290 291 294 294 294 297 297 298 299 299 299 299 299 298 299 299 300 300 300 301 301 301 301 302 304 304 302 302 299 296 295 295 293 292 292 293 295 293 290 291 288
290 288 289 281 280 281 281 284 294 293 293 294 294 297 299 298 299 298 298 298 297 297 298 298 299 299 300 300 301 300 301 301 301 301 301 298 296 291 290 289 290 289 291 291 292 289 290 288 286

GFSSGP_sfc_thetae_069.txt.gz
Theta_e
322 316 316 310 299 295 289 292 296 299 298 301 303 303 306 307 310 304 328 333 336 336 339 343 346 345 344 347 345 344 343 340 339 339 339 340 341 344 345 343 344 339 338 337 336 336 337 337 338
318 315 310 303 294 288 289 293 296 298 300 303 305 304 305 308 321 324 324 334 336 336 339 343 345 346 345 347 345 344 342 339 337 337 337 338 340 342 344 341 341 337 336 336 336 337 337 337 338
316 313 303 299 292 288 289 294 299 300 302 302 302 305 307 311 324 326 332 335 336 336 339 342 345 347 347 347 345 344 343 340 337 336 336 338 339 340 340 339 337 336 335 335 336 336 336 336 336
310 307 301 294 290 292 293 298 300 299 301 303 304 304 311 315 328 331 334 335 335 336 340 342 346 347 347 347 345 344 342 340 338 336 335 337 337 338 338 336 334 333 333 334 334 335 335 334 337
306 302 295 293 292 294 295 300 302 299 299 299 301 302 307 321 332 333 334 336 336 337 339 344 345 347 347 347 346 345 341 340 339 335 335 335 335 336 335 333 331 331 332 332 332 333 332 334 334
301 299 292 289 292 295 295 299 302 298 299 300 299 303 308 322 329 331 333 333 339 339 342 344 340 342 344 345 345 344 342 341 340 335 334 334 333 334 332 330 329 330 331 331 331 332 333 334 334
299 297 290 292 291 293 296 299 298 297 299 300 303 299 309 317 327 331 331 333 339 340 341 342 342 341 338 340 341 342 342 341 340 339 336 335 334 334 331 330 328 329 330 330 330 332 332 333 332
300 297 292 291 291 292 297 298 299 298 296 302 302 299 305 315 326 331 330 330 337 335 337 338 338 340 340 339 335 336 338 338 338 336 334 331 332 331 330 328 328 328 329 329 330 330 330 330 329
299 292 289 292 293 294 298 296 298 299 300 299 302 302 307 319 326 327 326 325 333 335 335 335 335 337 338 338 334 332 333 333 332 330 327 325 324 323 323 325 327 328 328 328 329 327 326 325 326
295 290 292 295 294 295 297 297 298 296 296 296 298 301 313 322 322 321 322 321 325 327 333 336 335 335 336 339 334 335 335 333 331 329 326 325 323 322 323 321 325 327 327 327 326 325 323 317 313
296 293 295 296 299 298 298 295 298 296 293 297 299 301 315 318 318 320 321 321 325 327 330 334 336 335 334 336 336 336 335 333 330 327 326 325 322 320 319 317 316 317 318 320 320 315 313 312 311
292 296 297 300 301 298 296 298 295 296 297 300 301 304 314 315 317 319 320 321 323 327 328 332 336 335 335 336 337 336 335 334 331 328 327 325 322 319 316 315 313 312 311 309 310 309 309 308 308
292 294 297 299 298 296 298 295 296 296 299 299 302 305 313 315 315 316 319 321 322 324 328 330 333 335 335 334 335 336 335 334 333 331 330 328 324 319 316 315 315 313 310 311 308 307 307 304 304
296 296 296 298 297 297 295 294 295 298 299 298 300 301 306 311 314 313 314 320 319 324 326 328 330 333 335 335 335 334 335 335 334 332 331 330 327 322 318 317 316 314 316 314 310 307 304 301 301
297 291 293 295 296 295 296 291 294 297 298 298 298 297 300 305 310 313 316 317 321 323 326 327 329 330 330 333 333 334 335 335 334 333 331 331 329 324 321 320 319 318 314 312 307 304 301 299 297
292 291 286 293 296 296 293 285 294 297 296 297 296 295 297 299 303 310 313 316 317 320 322 327 330 329 330 330 331 333 333 334 334 333 333 331 329 326 323 321 319 317 311 308 305 302 298 296 295
289 283 285 290 296 295 292 288 296 297 295 294 295 296 297 297 299 302 308 315 316 319 323 324 328 328 328 327 328 328 329 331 333 334 333 331 330 327 324 321 319 314 309 306 303 301 297 294 292
284 285 287 286 293 293 291 290 294 297 296 296 295 296 296 297 299 301 303 309 316 317 322 325 326 328 328 326 324 323 323 326 330 330 332 331 330 328 325 321 317 312 307 304 302 300 297 294 292
289 287 285 288 293 291 290 290 293 295 293 292 294 295 296 297 301 300 302 305 310 315 318 323 323 324 326 324 322 321 324 323 321 325 329 331 331 329 326 321 317 312 308 304 302 300 295 293 291
289 286 285 289 293 290 290 290 293 293 295 296 296 293 295 295 298 300 299 300 305 313 317 322 324 323 325 326 326 325 320 315 320 316 320 330 330 329 327 322 316 313 310 305 302 300 295 293 291
288 286 286 287 289 289 287 285 288 293 294 295 295 296 296 297 297 298 298 299 303 306 312 318 322 322 323 323 316 311 311 309 311 311 313 318 324 326 326 321 317 313 312 306 303 300 297 292 291
286 290 291 289 286 281 288 279 286 291 293 292 294 294 295 296 297 297 298 298 299 305 310 315 318 319 320 318 316 317 317 315 317 318 317 310 315 320 322 319 316 314 313 309 304 301 299 296 291
289 292 290 289 285 284 283 280 285 287 287 291 292 293 294 296 296 298 298 299 300 302 303 306 308 312 315 315 315 315 314 314 303 304 306 307 306 312 313 315 314 313 313 311 306 302 300 297 295
294 292 291 288 285 278 284 283 281 285 288 289 291 293 295 296 301 300 301 300 300 299 300 302 305 305 307 312 310 311 311 303 302 302 304 304 303 306 309 309 312 313 312 310 306 303 300 297 297
291 286 278 278 277 277 283 281 284 289 291 291 292 292 293 296 298 298 298 298 299 299 300 300 302 303 303 305 307 305 306 305 305 303 304 303 305 306 307 308 308 310 310 310 307 303 301 298 297
288 286 279 274 276 278 282 280 286 291 293 292 293 294 293 294 295 296 297 298 298 297 299 300 300 300 301 303 304 306 305 307 307 305 306 305 304 305 306 305 308 308 308 308 306 303 301 300 298
287 285 289 282 273 276 280 284 289 292 292 294 293 294 295 297 298 298 298 298 298 297 298 300 300 300 301 302 302 303 305 304 305 303 305 306 303 302 300 302 303 304 304 305 305 302 300 299 297
289 291 283 282 273 272 277 280 284 288 290 293 294 294 294 296 297 297 297 298 298 298 298 298 299 299 300 300 301 303 303 304 303 302 302 303 301 300 297 297 300 301 302 303 303 302 300 299 297
286 285 286 286 282 276 274 280 287 289 292 291 293 295 295 297 297 297 297 297 298 298 298 298 298 298 298 299 300 300 300 301 301 302 302 301 299 298 296 295 296 298 299 300 301 301 299 297 297
288 286 287 280 279 280 279 283 291 291 292 293 293 295 295 296 298 297 297 297 296 297 297 297 298 298 298 298 299 299 299 299 300 301 301 299 299 296 295 294 293 294 296 296 298 296 295 295 292

GFSSGP_sfc_thetae_072.txt.gz
Theta_e
318 312 312 309 298 293 288 290 294 296 296 299 301 305 305 307 309 299 326 332 332 333 339 342 345 346 346 344 344 344 342 340 340 340 342 343 346 345 343 340 339 337 336 337 338 338 338 338 339
317 312 308 301 292 286 288 292 295 296 299 302 304 304 306 308 320 321 325 333 333 335 339 342 344 347 346 345 344 343 339 338 338 339 340 343 344 342 340 339 337 336 336 337 338 338 338 338 340
314 310 302 297 289 287 288 293 296 298 300 300 301 306 308 314 321 323 327 334 335 335 339 342 344 347 346 345 344 342 339 337 337 338 339 341 343 340 338 337 335 335 335 337 338 337 336 337 338
307 305 299 292 288 291 292 297 297 298 298 302 303 305 310 318 324 327 333 334 333 335 339 341 345 347 347 345 342 341 340 337 337 337 338 339 340 338 336 335 334 334 334 336 337 335 338 338 338
304 300 293 290 290 292 294 298 298 296 296 299 303 302 309 323 329 331 332 334 332 334 339 341 344 346 346 345 343 341 340 338 336 337 337 337 338 336 334 333 333 333 333 335 335 334 335 336 335
299 298 291 287 289 293 294 299 299 295 296 298 302 305 309 323 328 330 332 333 335 335 340 341 339 342 344 344 344 343 341 339 337 336 335 336 336 333 331 331 331 332 331 333 334 335 334 333 332
299 295 289 290 289 291 295 298 297 297 296 297 302 302 307 317 328 330 331 335 336 338 340 340 341 340 338 340 340 340 340 340 337 337 336 336 335 333 330 331 331 331 331 332 333 334 333 333 332
299 296 289 291 290 291 295 297 298 296 297 300 304 303 305 316 326 329 331 336 338 339 340 339 339 339 339 338 334 335 337 338 337 335 333 331 331 331 330 328 330 330 330 331 332 332 331 331 330
298 292 288 289 291 293 296 296 296 298 298 298 300 303 306 319 326 326 325 331 334 336 337 337 337 338 338 336 333 332 332 333 332 330 327 324 323 322 321 324 329 329 330 330 330 329 328 326 325
294 290 291 293 292 293 296 295 297 295 295 299 299 305 313 320 323 324 321 324 328 329 332 335 335 336 337 338 333 333 332 331 328 326 323 321 320 320 321 320 326 328 328 329 327 324 322 316 313
294 291 294 295 296 297 296 293 295 294 292 297 299 303 314 318 320 324 322 323 326 329 331 333 334 335 335 336 333 333 332 329 327 324 322 321 319 319 317 317 318 319 320 319 316 313 311 311 310
291 294 295 298 298 296 295 296 293 294 296 299 299 308 316 319 320 323 323 320 323 324 330 332 333 334 334 335 334 335 333 330 327 324 324 321 318 316 315 315 314 314 314 312 310 309 308 307 308
292 292 296 297 296 295 296 293 294 294 297 297 299 310 315 318 319 321 323 321 323 324 326 331 333 333 333 333 334 335 334 332 328 325 325 322 319 316 315 313 313 313 310 309 307 306 305 304 304
294 294 294 296 295 295 293 292 293 295 296 296 299 306 312 315 316 314 316 320 321 326 326 329 331 333 333 333 333 334 334 333 331 327 328 323 321 319 315 313 311 311 313 312 309 306 302 301 302
295 290 291 293 294 293 294 288 292 294 295 295 296 298 305 310 312 314 318 320 322 324 327 327 330 331 331 332 333 333 334 333 332 330 329 327 324 319 317 315 313 311 314 311 308 303 300 298 300
290 289 284 290 294 294 290 285 290 294 291 295 294 293 296 301 309 313 315 317 318 320 323 327 330 330 330 332 333 332 333 333 333 332 329 329 327 322 318 316 315 315 313 309 306 302 299 298 298
288 282 284 288 294 293 290 286 292 294 294 293 293 294 294 296 297 302 310 315 316 318 321 324 327 328 329 330 332 332 332 332 333 333 332 330 328 324 321 320 317 315 311 307 305 301 299 295 293
284 285 285 284 291 291 288 289 293 295 293 294 294 294 294 295 297 300 301 310 315 316 320 322 326 327 328 329 329 329 331 332 333 333 333 331 330 325 323 322 319 315 310 306 303 300 297 295 293
288 286 285 287 291 290 289 289 291 294 292 291 292 292 293 295 300 297 299 301 307 312 315 320 322 326 327 324 324 326 326 327 328 332 332 332 331 328 325 322 318 314 309 306 302 297 293 292 291
287 285 284 287 291 289 287 289 291 292 293 293 293 292 293 293 296 298 298 297 300 309 314 318 321 325 326 328 328 328 327 319 325 324 327 331 330 329 327 323 318 313 310 306 302 299 294 292 291
287 285 285 285 287 286 286 284 286 290 291 293 294 294 293 294 294 295 296 296 297 301 309 315 321 323 325 327 321 312 311 310 313 313 322 328 329 328 326 324 319 314 312 306 303 300 297 293 291
285 289 288 287 284 280 285 278 284 288 290 291 292 289 291 293 294 295 296 295 295 299 304 313 318 321 323 324 322 322 321 319 320 324 320 314 320 327 326 324 319 316 313 310 305 303 300 297 291
287 290 288 287 284 282 282 280 283 285 288 289 291 291 294 295 292 295 297 298 297 297 299 305 311 317 320 321 322 320 321 321 311 307 310 309 312 316 321 321 318 316 314 312 308 305 301 299 296
292 290 288 286 283 277 282 280 280 283 286 288 291 293 293 295 295 295 296 298 298 298 297 301 306 309 312 317 317 317 318 312 303 302 305 305 306 314 312 313 317 316 314 314 310 307 303 301 300
289 284 277 276 276 276 280 279 282 288 289 289 291 292 293 293 294 295 296 296 296 296 298 298 301 303 305 309 311 310 313 308 306 305 307 302 303 304 311 310 311 313 314 314 312 308 304 302 300
286 284 278 273 274 276 281 279 285 289 291 292 291 293 293 295 296 296 296 296 296 297 297 299 299 299 301 302 304 305 307 308 308 305 305 305 306 306 304 306 310 311 312 312 312 308 305 304 301
287 283 287 281 271 275 279 282 289 291 289 291 293 294 295 296 296 296 297 297 297 297 298 298 299 299 299 300 301 302 303 304 305 302 304 305 304 302 300 303 304 307 309 310 310 307 304 303 301
288 290 283 281 272 271 277 278 282 287 290 292 292 293 294 296 297 297 297 297 298 298 298 297 298 298 299 299 299 300 301 302 302 301 302 303 302 300 299 301 303 304 306 306 307 306 304 302 301
286 284 285 285 281 275 272 279 286 288 290 290 291 293 293 294 295 297 297 297 296 296 297 297 297 298 298 298 298 298 299 300 301 302 303 303 301 299 299 298 300 301 302 303 303 304 303 300 300
286 286 286 280 278 278 279 280 290 290 290 292 292 293 293 293 295 295 295 295 295 295 295 296 297 297 298 298 298 298 299 299 299 301 302 299 300 297 298 296 296 297 300 300 300 301 301 298 298

GFSSGP_sfc_thetae_075.txt.gz
Theta_e
317 310 309 307 298 291 287 289 297 295 295 298 300 302 301 305 302 294 323 331 331 331 338 343 345 347 343 344 343 343 342 340 341 343 345 345 344 342 340 338 336 336 338 338 337 338 339 338 336
314 311 307 299 290 286 287 289 294 296 298 305 305 304 305 305 318 319 325 331 331 334 339 340 344 347 344 343 342 341 339 339 340 342 345 345 343 340 339 337 336 336 338 338 338 339 338 337 335
312 306 301 295 287 286 287 291 294 296 299 298 299 306 308 311 316 323 326 330 333 335 338 341 344 346 343 342 341 339 338 338 338 340 343 343 340 338 337 336 335 335 337 337 336 338 338 337 336
307 304 298 290 287 289 290 294 295 296 297 300 302 304 309 319 321 325 331 332 332 335 339 340 345 345 343 343 340 339 338 337 338 338 341 341 338 337 335 335 335 335 336 336 334 337 337 337 337
302 299 292 289 289 291 293 296 296 295 295 297 301 302 307 319 326 329 331 332 330 334 337 340 344 345 345 343 342 341 338 337 338 338 338 338 336 334 334 334 334 333 335 334 336 339 338 336 335
298 296 290 287 288 293 295 297 296 294 294 297 303 306 310 321 325 329 331 330 332 334 338 340 338 341 343 343 342 342 340 338 338 337 337 337 335 333 333 333 332 332 334 333 335 336 334 332 332
297 293 289 288 288 290 294 298 293 295 296 296 307 302 306 315 325 328 330 330 331 335 338 338 339 339 337 339 339 339 340 338 338 338 338 337 334 333 332 332 331 331 333 333 334 334 333 333 331
298 295 289 289 289 290 293 296 296 296 296 298 306 301 305 318 326 327 330 331 332 335 337 336 337 338 338 337 332 334 336 336 336 335 333 332 331 331 331 330 331 331 332 332 333 332 332 331 330
296 291 289 289 290 291 294 293 294 296 297 298 299 305 307 322 325 326 327 329 333 335 337 337 337 337 337 335 331 330 332 332 331 329 326 324 322 321 321 325 330 331 331 331 331 330 329 326 325
294 291 292 293 292 292 295 293 296 296 294 298 299 305 311 322 323 324 326 328 329 331 334 336 336 337 336 337 331 331 331 329 327 324 322 320 318 318 320 322 326 329 329 330 329 327 322 316 312
293 292 293 294 295 295 295 292 294 294 294 296 298 303 313 317 320 323 324 326 328 331 333 334 335 336 337 335 333 331 329 326 324 322 320 319 318 317 317 318 319 319 320 317 316 313 311 311 310
291 294 294 297 296 295 294 294 292 293 295 296 299 306 314 318 321 322 322 320 323 326 330 332 333 334 335 336 334 334 331 326 324 321 320 318 316 315 315 315 315 316 314 311 309 309 308 309 308
290 292 295 296 295 293 295 292 292 293 296 296 297 311 314 319 322 324 324 321 322 323 327 330 332 332 334 334 334 333 332 329 325 322 321 319 316 315 314 313 313 313 311 309 308 306 306 306 305
292 293 294 295 294 294 292 290 295 292 294 293 297 306 312 315 319 315 317 319 320 325 326 329 330 332 333 333 333 332 332 331 326 323 322 319 318 315 314 313 312 311 310 309 307 305 304 303 303
294 290 290 292 293 292 293 287 291 293 292 293 294 296 307 312 312 315 320 321 322 324 326 327 330 331 331 331 331 333 332 331 330 324 323 321 319 316 316 315 313 310 311 309 307 303 302 300 301
289 287 283 288 293 292 289 284 289 292 292 292 292 292 295 303 309 312 315 318 320 320 323 326 330 330 330 330 331 332 333 331 330 329 325 323 321 320 317 315 314 313 312 309 306 303 301 301 301
286 280 282 287 293 292 289 286 290 293 292 292 291 292 293 294 297 303 311 313 317 319 320 324 326 328 328 329 330 331 332 332 331 331 328 326 325 322 318 316 315 314 312 308 306 302 301 299 296
282 282 283 283 289 290 287 289 292 293 292 292 292 292 292 293 296 298 301 310 313 314 318 322 325 327 328 329 329 329 330 331 332 331 330 328 326 324 320 318 316 314 312 308 305 301 297 294 293
286 285 284 286 290 289 288 288 291 293 291 291 291 291 292 293 297 296 297 298 306 310 312 316 320 325 326 326 326 328 328 329 330 331 330 329 329 326 322 321 318 315 311 308 305 299 295 292 291
287 284 284 286 290 289 287 288 290 291 292 292 292 292 291 291 293 294 295 294 297 305 311 314 318 322 325 327 328 328 327 329 331 331 331 331 330 328 325 323 319 315 311 308 304 300 295 292 293
285 284 284 285 286 285 284 283 285 288 289 292 291 291 291 292 292 293 293 293 294 296 303 311 316 319 323 326 323 312 313 311 317 320 327 329 330 329 327 325 321 316 313 308 305 302 299 294 292
284 289 288 286 283 279 283 277 283 286 288 289 290 288 290 292 292 293 295 295 294 294 296 304 310 316 320 323 322 323 323 322 321 325 323 326 328 328 327 326 323 318 315 311 306 305 301 300 291
287 289 286 285 283 281 281 279 283 284 285 287 290 291 291 292 293 294 294 296 296 296 295 296 306 312 316 320 323 322 322 324 316 313 314 314 320 324 326 325 322 318 315 313 308 305 302 302 299
291 288 286 284 281 276 280 278 279 282 284 286 288 291 293 293 295 296 296 296 296 295 296 298 302 307 312 315 317 318 320 316 308 306 310 309 314 319 316 319 321 319 316 315 311 307 303 303 302
286 283 277 276 275 275 279 278 282 284 287 287 289 292 293 294 295 295 296 296 296 297 296 298 299 301 306 310 311 312 315 313 309 307 309 304 305 309 315 313 313 317 316 316 314 309 306 304 302
285 283 278 272 272 275 280 278 283 288 289 289 292 292 293 293 294 294 295 295 296 297 297 297 298 298 299 302 306 307 308 308 309 306 305 307 307 309 308 312 315 314 314 315 314 311 308 306 304
286 282 285 279 269 274 278 281 287 288 289 291 292 292 292 293 294 295 295 295 295 296 296 296 297 298 298 299 300 301 303 304 305 304 303 306 304 303 302 304 307 312 313 313 313 312 309 307 304
287 289 282 279 271 270 275 277 281 286 288 290 290 291 292 294 295 296 296 296 296 295 295 296 296 296 297 297 298 299 299 301 302 302 302 302 302 300 298 299 301 302 304 306 309 309 309 307 305
285 284 284 284 280 275 272 278 284 288 290 290 291 292 292 293 294 294 295 296 296 296 296 295 296 296 296 297 297 297 298 298 299 300 301 300 300 298 298 298 299 300 300 302 304 305 305 304 304
285 285 285 280 277 278 278 279 289 290 290 291 291 292 292 292 293 293 294 294 295 294 294 294 294 294 295 296 297 297 297 297 297 298 299 298 298 297 297 296 296 299 301 302 302 302 302 302 300

GFSSGP_sfc_thetae_078.txt.gz
Theta_e
315 309 308 305 297 290 286 290 295 294 294 297 300 299 298 302 299 292 321 330 329 333 338 342 346 346 345 344 344 344 344 343 345 347 345 344 342 340 338 337 340 340 338 336 339 339 337 335 335
312 308 306 297 291 285 286 290 294 295 298 306 303 304 305 302 315 318 323 329 330 334 339 341 344 345 344 342 342 342 340 342 344 346 346 344 341 339 337 336 338 339 339 340 340 338 337 335 333
310 305 301 294 286 286 286 290 294 295 301 297 301 306 306 306 314 321 325 329 331 335 338 340 344 345 343 341 340 339 339 339 342 345 344 341 340 336 336 336 337 338 337 338 339 338 337 335 336
306 303 298 291 287 288 290 292 294 296 296 298 304 302 307 317 320 324 328 330 332 334 338 340 345 344 342 341 339 338 338 338 340 343 342 340 338 335 335 335 336 336 336 335 339 337 337 337 338
302 298 291 287 287 290 292 294 296 294 297 299 302 300 306 316 324 328 327 330 331 333 337 339 344 344 343 342 340 339 338 338 338 341 340 336 335 335 334 334 335 336 332 337 339 339 337 337 335
298 296 289 286 288 291 294 295 295 293 293 298 302 303 308 318 323 327 328 328 332 333 336 339 338 340 342 342 342 341 340 339 339 339 337 336 335 334 333 333 333 333 331 334 338 336 334 334 333
296 292 288 287 288 290 295 297 293 294 294 297 307 301 304 313 323 327 327 327 331 334 335 337 338 337 336 338 338 339 339 339 339 339 338 335 334 334 333 333 333 333 331 334 335 334 333 333 332
297 294 288 287 288 288 293 296 294 295 295 299 305 298 300 315 324 326 327 326 329 332 334 335 335 336 335 335 332 334 335 336 336 336 333 331 331 332 331 330 332 332 332 335 334 333 332 331 331
295 291 287 288 289 290 293 293 293 295 296 297 299 303 305 321 324 324 324 326 327 332 333 335 337 335 334 333 329 329 331 331 331 329 327 324 322 322 323 325 331 333 332 331 330 330 329 328 326
293 290 291 292 290 292 294 293 295 295 296 296 297 302 308 320 323 322 323 324 326 329 332 334 335 337 333 335 329 330 329 327 326 324 322 320 318 317 321 322 327 329 328 328 329 328 323 317 312
291 291 292 293 293 296 295 292 293 294 292 296 297 300 313 316 319 322 323 325 328 330 331 333 333 335 336 333 330 328 327 325 323 321 320 318 316 316 318 319 319 320 319 319 320 315 312 311 310
291 292 293 296 296 295 295 294 292 293 296 294 297 304 314 317 319 321 322 322 328 329 331 333 333 333 335 335 333 332 329 323 321 319 318 316 314 314 315 316 316 316 314 311 310 309 309 309 309
290 291 294 295 294 294 294 292 292 293 294 294 296 309 314 319 320 320 322 321 323 328 330 332 332 332 334 334 334 333 331 326 322 319 318 317 314 313 313 314 314 314 311 309 308 307 307 307 306
291 292 292 293 292 293 291 290 292 291 293 293 297 303 310 315 318 316 318 319 320 325 327 330 330 332 333 332 332 332 332 330 323 320 319 317 316 313 313 312 312 312 311 308 307 305 305 304 304
292 289 289 290 291 290 291 287 290 292 291 293 293 294 304 310 311 317 321 320 321 323 324 326 329 330 332 331 332 331 331 331 328 322 320 318 316 314 313 312 312 312 311 308 308 305 305 304 304
288 286 283 286 291 291 288 284 287 291 292 292 291 291 293 299 310 313 315 318 319 319 322 325 329 328 329 331 331 331 331 331 330 327 322 320 318 316 316 316 315 314 312 310 307 304 303 303 303
285 280 281 284 291 291 287 284 289 291 292 291 291 291 292 293 295 303 311 314 316 318 319 322 326 327 328 328 330 331 331 330 330 330 325 321 319 318 318 316 316 313 312 309 307 302 302 300 299
282 281 282 282 287 288 286 288 291 293 291 292 291 291 291 292 294 295 298 308 312 314 317 322 324 327 328 328 328 330 330 330 330 329 328 325 322 320 319 317 315 313 312 309 306 303 299 298 298
285 283 282 284 289 288 287 287 290 292 290 291 291 290 291 292 294 295 295 296 304 309 312 316 320 324 326 326 327 327 327 328 329 330 329 328 326 323 320 319 316 314 312 310 308 302 295 294 292
286 284 283 285 289 288 286 287 290 290 291 290 291 290 290 290 291 293 292 292 294 300 308 312 317 321 324 327 327 327 328 329 329 329 329 329 327 326 323 320 317 314 313 310 306 301 295 294 294
284 284 283 282 284 284 283 283 284 287 288 289 289 288 289 289 289 292 293 292 292 292 296 306 311 316 320 325 321 313 315 317 324 327 328 329 329 328 326 323 321 316 314 311 307 304 303 297 292
283 288 286 285 283 279 283 277 283 285 286 288 289 288 290 291 292 292 294 294 295 295 293 296 304 310 314 319 319 321 323 322 325 327 328 327 328 329 327 325 324 319 316 314 309 307 305 304 295
286 288 286 284 282 280 281 279 282 282 283 286 289 291 292 292 293 294 295 295 294 295 295 296 299 305 311 315 320 320 320 321 318 315 319 325 325 327 327 326 325 322 318 316 312 308 306 306 302
289 286 285 283 280 276 279 278 279 281 283 285 289 291 292 293 293 294 295 295 295 295 296 297 300 303 308 312 314 315 318 316 310 309 312 314 320 323 324 322 324 323 319 317 314 310 307 306 306
285 283 277 275 274 274 278 278 280 283 286 287 288 290 290 292 293 294 294 295 296 295 295 296 297 298 301 306 309 311 312 312 311 309 309 306 310 311 318 317 317 320 319 318 316 311 309 306 305
283 283 277 272 272 275 280 278 282 285 286 290 290 289 291 292 293 293 294 294 294 295 295 295 296 296 297 298 300 304 306 308 308 307 306 309 309 311 312 316 317 317 317 316 316 313 309 307 305
284 281 284 278 268 274 277 279 284 287 289 289 290 292 292 293 293 293 294 294 294 294 294 294 294 295 296 296 297 297 298 300 303 304 304 305 304 304 304 305 312 314 315 313 314 313 309 308 306
286 287 281 278 270 269 274 277 279 285 287 288 290 290 291 292 293 293 294 294 294 294 294 295 294 294 294 295 296 296 297 297 298 299 300 300 300 300 299 299 300 302 307 311 311 311 311 308 307
285 283 282 283 280 274 271 277 284 288 288 288 289 291 290 291 292 293 293 294 294 294 295 294 295 294 294 295 295 295 295 296 296 297 298 298 298 298 298 297 297 299 299 300 304 306 307 306 306
285 284 284 279 276 277 278 279 289 290 290 290 289 290 290 292 292 293 293 293 293 293 293 293 293 293 293 293 294 294 294 295 295 295 296 296 296 296 296 296 295 296 298 298 299 301 303 303 302

GFSSGP_sfc_thetae_081.txt.gz
Theta_e
317 311 311 308 299 295 292 295 299 299 299 303 307 307 308 308 306 298 326 333 333 338 341 343 344 346 345 345 345 346 346 347 348 347 345 343 340 338 339 339 341 340 339 340 337 336 336 336 336
312 311 309 301 295 290 290 295 298 300 304 309 307 308 308 308 321 320 327 332 337 339 342 343 344 346 345 344 344 344 345 346 348 347 344 343 338 338 338 339 341 340 340 340 337 337 335 337 337
311 307 304 296 290 290 290 294 299 300 306 303 307 310 311 312 321 324 330 332 336 339 342 343 344 346 342 342 342 342 344 345 347 345 343 341 337 336 337 339 339 339 340 339 339 336 336 335 338
308 306 300 295 293 294 294 297 299 301 302 303 308 306 314 322 323 327 331 332 335 339 342 343 344 345 342 343 340 340 340 343 345 343 341 337 336 336 336 339 338 338 337 340 338 337 337 337 336
303 301 294 291 293 295 295 298 299 299 300 303 305 305 313 323 327 329 330 332 334 338 340 344 343 343 343 342 340 340 340 341 343 342 339 336 336 335 335 337 337 334 336 338 339 337 338 336 335
300 299 292 290 292 295 298 299 299 299 300 302 306 310 315 322 327 328 331 331 336 337 339 343 337 339 341 341 341 341 342 341 342 341 336 335 335 334 334 335 334 332 338 339 338 336 335 335 334
298 295 292 291 291 295 298 299 298 298 299 301 310 306 311 321 327 329 330 332 335 338 339 342 342 338 335 338 338 339 340 340 340 340 338 336 336 335 334 335 334 332 334 337 335 335 334 333 333
298 296 292 291 291 293 297 299 298 299 299 306 310 302 307 321 327 328 329 331 334 336 338 340 340 340 340 339 332 333 336 337 337 336 333 331 332 332 331 330 334 332 334 336 335 333 333 332 332
299 293 290 292 292 294 296 297 297 299 299 301 307 306 311 324 327 327 326 328 331 333 336 338 339 338 338 338 332 330 331 332 331 330 326 325 330 329 328 327 331 333 334 334 333 331 329 329 328
296 292 293 294 294 294 296 296 297 297 297 299 301 305 316 324 326 325 324 324 327 329 332 335 337 337 337 336 334 335 332 334 332 330 328 326 326 326 326 325 327 329 327 331 330 328 324 321 325
295 293 294 294 295 296 296 295 297 296 295 299 299 302 316 321 323 324 325 326 327 330 331 333 334 337 336 336 334 334 332 331 330 328 326 324 322 325 326 328 328 328 322 326 326 324 321 320 321
293 294 294 297 296 296 295 296 295 296 298 298 299 306 317 319 321 323 324 325 327 329 331 332 333 334 336 336 334 333 331 329 327 326 325 322 321 322 324 325 326 325 325 324 322 319 318 318 318
293 293 295 296 295 295 296 294 295 295 297 297 299 310 317 321 322 323 325 326 329 329 331 332 333 333 335 335 335 333 331 329 327 325 324 322 320 321 322 323 324 323 321 320 317 317 316 316 315
293 294 294 295 294 295 293 292 294 294 295 295 299 304 313 318 320 320 322 323 326 330 331 332 332 333 333 334 334 333 333 331 327 325 324 322 321 320 321 321 321 321 320 316 316 315 315 315 313
293 291 291 292 293 293 293 289 292 293 293 294 295 298 305 313 317 320 324 324 325 328 331 332 332 332 332 333 333 333 333 331 328 326 324 322 321 319 319 320 319 320 318 315 314 312 311 310 310
289 288 286 289 292 292 290 286 289 293 292 293 294 294 295 299 312 317 321 323 323 325 326 330 331 331 331 331 332 332 332 332 330 327 325 323 321 320 319 318 318 317 316 314 310 309 309 308 307
286 283 283 285 292 291 289 287 291 293 293 293 294 294 294 294 296 300 313 319 322 323 325 326 330 330 330 331 331 331 331 331 331 330 326 323 322 320 319 318 317 316 315 313 310 307 307 305 304
283 283 283 282 288 290 288 289 291 293 293 293 293 293 293 294 296 297 298 307 316 319 322 325 327 329 330 331 330 330 330 330 330 330 328 325 322 321 320 320 318 316 314 312 310 308 305 305 304
285 283 283 285 290 289 288 288 291 292 292 292 292 292 292 293 295 295 296 297 302 312 317 321 323 327 329 328 327 327 326 328 329 329 329 327 325 322 320 320 317 315 314 312 311 307 302 300 300
286 284 284 286 289 288 286 288 290 290 291 291 290 291 291 291 292 294 295 295 297 301 310 315 320 324 327 329 329 329 329 329 329 329 329 329 326 324 322 321 319 316 315 313 310 307 300 302 299
284 285 284 284 285 285 283 284 285 288 289 290 290 290 292 292 293 294 296 296 297 296 296 305 313 319 324 328 325 320 323 322 327 327 328 328 328 327 324 323 321 317 317 314 312 308 305 302 297
284 287 287 286 283 281 284 278 283 285 287 289 290 291 292 293 295 295 295 296 297 298 299 298 302 311 317 323 324 324 324 323 326 327 328 328 329 328 326 325 323 320 317 316 313 311 309 309 299
285 288 286 284 283 282 282 280 282 283 285 288 290 292 293 294 294 295 296 297 297 298 299 301 304 307 311 317 322 322 323 325 324 323 326 327 327 328 328 326 324 322 319 318 315 311 309 309 307
289 286 284 283 281 277 281 279 280 282 285 288 290 292 293 294 294 295 296 297 297 297 298 300 301 301 309 314 316 318 319 319 317 316 317 322 325 326 326 325 325 324 322 319 318 315 311 310 309
285 283 278 277 275 275 279 278 281 284 287 290 290 291 292 293 294 294 295 295 296 296 296 298 298 298 300 303 308 311 314 315 315 315 314 313 313 315 320 320 320 322 323 321 319 315 312 309 308
284 283 278 273 272 275 279 278 282 286 288 290 291 292 292 292 293 293 294 294 295 295 296 297 297 297 297 298 300 301 303 307 309 310 312 312 312 314 316 317 318 318 317 317 317 316 312 312 309
285 282 284 278 268 274 278 280 285 288 289 290 291 291 292 292 293 293 294 294 294 294 294 295 296 296 296 297 298 298 299 300 301 302 305 306 307 307 308 308 311 315 315 316 316 314 312 310 309
285 287 281 278 270 270 275 277 280 285 287 289 290 290 291 292 293 293 294 294 294 294 294 295 294 294 294 295 296 297 297 298 299 299 300 301 302 302 303 303 304 305 308 311 312 312 312 310 309
284 283 282 282 279 273 271 277 283 288 288 288 289 290 290 292 292 293 293 294 294 294 294 294 294 294 293 294 294 294 295 296 296 297 297 298 299 299 299 300 300 301 302 303 305 307 308 308 309
285 284 284 279 276 276 277 279 288 289 289 290 290 290 291 292 292 292 292 293 293 293 293 293 293 293 292 292 292 292 292 292 292 293 294 295 295 296 296 297 297 298 299 300 300 301 303 303 303

GFSSGP_sfc_thetae_084.txt.gz
Theta_e
323 320 323 321 306 306 298 300 307 305 306 308 317 313 312 313 308 305 332 335 338 338 340 342 344 345 344 345 346 347 348 349 347 345 343 340 340 340 339 339 340 341 338 337 337 337 336 337 338
318 317 322 315 304 297 297 303 305 307 309 314 313 313 311 311 324 325 330 336 338 338 338 339 344 346 345 345 345 347 348 349 346 344 342 339 339 340 339 341 341 342 339 338 337 338 338 340 339
316 315 313 309 303 297 297 302 308 308 310 309 311 316 315 314 325 329 335 336 337 338 343 343 344 346 343 343 343 345 347 349 345 343 340 338 338 339 338 340 340 342 339 337 336 334 338 339 338
318 316 310 304 298 299 300 303 308 310 308 309 313 309 321 327 328 332 336 337 337 340 343 343 345 344 341 342 341 343 346 345 344 341 338 337 337 338 338 339 337 339 341 337 337 338 338 337 336
317 314 303 300 298 300 302 305 309 309 307 309 311 309 315 327 332 335 335 336 337 340 344 343 343 343 343 342 341 342 345 345 343 340 338 336 336 336 337 338 335 335 338 337 338 338 337 336 335
309 310 301 297 298 300 304 306 308 307 306 309 310 311 317 330 332 334 334 335 339 340 343 343 337 339 341 341 342 342 343 344 341 338 337 336 335 335 336 335 332 338 340 339 337 336 335 335 334
306 305 301 299 299 301 303 307 306 306 306 307 314 307 318 328 333 335 333 336 339 341 342 342 340 337 336 337 338 340 341 342 341 339 338 337 337 337 336 336 333 336 338 337 336 335 334 334 333
309 307 299 299 299 299 305 305 306 306 305 312 317 306 312 328 333 334 333 335 338 340 341 342 340 339 339 339 332 334 337 337 338 336 333 332 332 332 332 331 334 334 336 336 334 333 333 333 331
307 303 299 299 299 301 304 304 304 306 307 310 314 311 322 332 333 331 330 331 335 337 339 341 340 339 339 339 333 330 332 332 331 330 327 327 332 331 330 329 332 334 336 335 332 331 330 331 329
306 302 302 304 303 303 304 305 305 304 304 305 309 312 326 331 330 328 328 328 331 334 337 338 339 339 338 337 338 337 336 336 336 335 332 331 331 330 328 327 327 329 329 331 330 328 325 325 329
303 301 302 301 302 304 304 303 305 304 302 306 306 309 323 329 329 327 328 329 331 333 335 335 336 338 339 338 338 338 336 336 336 335 332 330 329 329 329 331 329 329 324 327 327 327 327 327 328
300 300 301 302 302 302 303 304 303 304 305 304 307 311 322 327 328 328 327 329 330 332 334 336 336 337 337 338 338 338 337 335 334 334 332 329 327 328 328 329 330 330 328 328 328 327 327 327 327
300 300 301 301 301 302 302 301 302 302 305 304 305 311 318 325 328 330 330 331 331 331 334 335 336 335 336 336 337 336 337 336 334 333 332 330 327 327 328 328 328 328 328 327 326 325 325 325 325
300 301 300 300 300 300 300 299 300 301 302 303 304 309 316 322 326 329 330 331 332 334 335 336 335 335 335 336 337 336 335 335 335 333 331 330 328 326 327 327 327 327 327 325 324 324 324 323 323
300 298 299 299 299 299 300 296 298 300 300 301 303 306 311 320 326 327 330 331 333 335 336 335 335 335 334 335 336 336 336 335 334 334 332 330 328 326 325 326 326 326 326 323 321 322 322 321 321
296 298 294 295 298 298 297 295 296 300 300 301 301 303 304 310 321 327 329 330 333 334 335 336 334 334 334 334 335 335 335 335 334 333 333 331 328 327 325 325 324 323 322 321 320 319 315 316 315
294 292 292 291 297 297 296 295 297 300 301 301 303 303 302 304 305 311 324 329 331 332 334 335 335 332 333 334 334 334 334 335 335 333 330 329 329 328 326 325 322 321 320 317 316 313 314 314 312
290 290 289 291 295 296 295 296 298 300 300 302 303 303 303 303 304 304 306 310 324 330 332 333 335 335 332 333 333 332 333 334 334 333 331 329 327 326 326 326 323 320 319 317 315 313 311 311 314
294 292 291 291 295 295 295 296 298 300 299 301 301 300 300 301 301 301 302 304 306 318 327 330 332 334 333 329 329 329 328 330 331 332 332 331 328 326 324 324 326 321 318 317 316 314 310 307 309
293 291 290 293 294 294 293 295 298 295 296 296 297 298 299 300 302 303 304 303 302 306 314 323 327 330 333 331 330 331 329 330 330 332 331 331 328 326 324 323 322 321 320 320 319 314 312 312 311
291 291 290 291 291 292 291 292 292 294 296 298 298 299 300 300 301 303 304 306 307 304 303 310 318 324 329 332 330 328 327 327 328 329 329 330 330 328 325 324 323 321 319 317 316 314 312 309 308
289 293 292 291 291 287 290 287 291 292 295 297 299 300 301 302 303 303 304 305 306 308 309 304 307 315 322 328 328 326 324 323 326 328 330 330 330 329 327 326 324 323 321 318 318 316 314 311 306
290 293 293 291 291 290 289 288 290 291 293 295 297 299 300 301 303 302 303 304 305 307 309 313 314 314 316 322 325 325 325 326 328 329 328 330 331 330 329 327 325 323 322 321 320 318 313 313 310
293 292 291 291 290 284 288 288 289 290 293 294 297 298 299 300 301 302 303 304 304 306 307 308 308 309 317 320 321 323 323 323 322 324 325 326 328 329 329 328 326 325 323 321 320 319 316 313 312
292 292 284 283 283 283 284 284 290 291 295 298 297 298 299 301 302 302 302 302 303 304 304 305 305 304 307 308 309 314 316 317 317 318 317 317 318 319 321 322 321 322 322 322 321 319 316 314 312
291 291 286 280 279 282 283 283 289 292 294 298 299 298 299 300 301 301 301 302 302 302 303 303 303 303 304 305 306 307 307 308 309 310 311 313 315 317 319 318 319 319 320 320 320 318 317 315 312
290 287 290 283 277 283 286 288 291 292 294 296 297 298 299 300 300 300 300 301 301 301 301 301 301 301 301 302 303 303 304 304 305 306 307 307 309 308 308 311 311 313 314 315 315 315 315 313 312
291 292 286 286 280 280 282 284 289 289 292 295 295 297 298 299 299 299 300 300 300 301 301 301 301 300 300 301 301 300 301 301 302 302 301 302 303 304 305 305 306 307 308 310 311 311 312 312 312
288 287 287 288 286 283 280 285 292 293 295 295 297 298 298 298 299 299 299 299 300 301 301 300 299 299 298 299 299 299 299 299 299 299 299 298 299 299 300 301 302 303 304 305 306 307 308 308 308
290 289 289 286 281 282 283 287 292 296 298 297 296 296 299 299 298 298 298 298 299 298 298 298 297 296 296 296 297 297 297 297 297 296 296 296 296 296 296 297 298 299 300 301 301 302 303 304 303

GFSSGP_sfc_thetae_087.txt.gz
Theta_e
325 322 323 320 307 305 300 302 311 309 310 314 319 314 311 313 309 310 334 337 340 339 339 342 346 345 345 345 345 347 347 347 345 342 340 341 340 339 338 341 342 340 337 338 337 338 339 341 341
321 319 321 315 304 297 298 305 306 308 311 318 316 313 311 314 325 328 331 337 338 337 339 338 344 345 344 345 347 347 347 347 344 341 340 340 340 341 341 341 342 339 338 338 340 340 340 340 339
320 318 313 308 304 298 298 304 308 311 312 312 312 316 313 315 327 330 336 337 337 337 339 341 344 345 343 344 346 348 347 347 344 340 339 339 339 339 340 341 342 339 337 337 336 341 339 339 339
318 317 313 304 300 302 302 306 310 311 310 311 313 310 320 327 329 334 337 337 335 340 341 343 344 343 342 342 344 347 346 345 342 339 338 338 339 338 339 337 341 340 338 338 339 339 338 337 337
316 314 304 302 301 302 304 309 310 309 309 310 311 309 317 328 334 336 335 335 336 340 341 342 343 343 342 341 342 345 346 343 341 338 337 337 338 337 338 335 337 339 338 339 339 338 336 335 335
309 311 301 299 300 303 306 310 311 309 308 310 308 310 318 331 333 334 335 336 339 340 340 340 337 340 341 342 342 343 345 343 340 338 337 336 337 337 335 334 335 340 339 338 337 336 335 335 333
308 306 302 302 301 302 305 311 308 307 307 308 313 307 319 328 334 334 334 337 339 340 339 339 338 336 336 338 339 341 343 342 340 339 338 338 338 338 337 335 338 339 338 337 336 335 334 334 332
310 308 302 303 300 300 307 308 309 307 307 315 317 307 313 327 334 333 334 337 338 339 339 337 337 337 338 338 333 335 337 338 338 336 333 332 332 332 332 331 333 337 336 336 334 334 334 333 330
311 303 300 301 301 303 307 306 308 310 309 312 314 314 322 332 334 330 331 334 335 335 338 340 337 337 338 337 333 331 332 333 331 330 328 327 330 330 330 329 331 336 336 334 332 331 331 330 328
306 303 303 306 306 304 307 307 307 306 307 307 311 319 329 331 331 327 327 329 333 334 335 338 339 338 338 336 336 337 336 336 336 334 331 331 330 330 329 327 327 329 330 331 331 329 326 326 327
307 303 305 304 305 308 307 306 308 306 304 307 307 313 326 328 328 328 327 329 332 335 336 338 338 338 338 336 337 337 336 336 336 335 332 330 330 328 329 330 328 329 324 327 327 326 327 326 327
302 303 305 304 304 306 305 307 305 307 306 309 311 314 323 325 326 327 328 329 331 333 335 337 337 337 339 337 337 336 336 336 335 335 333 330 328 329 329 329 330 330 328 328 328 327 327 327 327
303 303 304 304 303 305 306 304 304 305 308 308 308 312 319 323 325 327 328 330 332 332 334 336 337 337 338 337 337 336 336 336 335 334 334 331 329 329 329 329 329 329 328 327 327 326 325 326 326
304 304 303 303 303 302 303 302 303 304 306 306 306 310 315 320 324 326 327 328 330 332 333 336 336 337 335 335 335 336 337 337 335 335 333 332 330 329 328 328 328 328 328 327 326 325 325 324 324
304 298 301 301 302 301 302 299 300 303 303 304 305 308 312 317 323 325 328 328 330 332 334 335 336 336 334 334 335 335 336 334 335 334 334 332 330 329 327 328 327 328 328 326 325 324 324 323 323
299 300 295 299 301 301 300 297 301 302 302 303 305 307 309 314 320 325 327 329 331 332 334 336 336 335 334 335 336 336 336 335 334 334 334 333 331 330 328 327 327 328 327 324 322 322 321 321 320
297 293 295 294 300 300 299 298 299 303 302 302 304 305 306 307 311 321 326 328 330 332 333 334 336 333 334 335 335 336 335 334 334 333 334 333 331 331 329 328 328 327 324 321 320 319 318 317 317
292 293 294 295 297 298 297 297 300 302 302 303 304 305 306 305 306 308 311 320 328 331 332 334 335 335 332 334 334 335 334 334 334 333 333 332 331 329 328 329 328 326 321 321 319 316 316 316 315
298 294 293 296 297 297 296 297 299 301 302 302 304 304 304 304 305 304 305 307 309 319 329 331 332 335 334 331 330 330 329 331 332 333 334 333 330 328 326 326 325 326 322 320 319 318 316 314 314
296 294 293 294 296 296 296 296 299 300 300 300 301 302 302 303 304 305 306 306 306 308 316 325 329 332 334 331 331 331 331 331 332 332 332 332 331 329 326 325 324 323 321 320 319 317 314 312 313
294 293 293 293 294 295 294 294 296 296 299 300 301 301 302 303 304 306 307 309 309 306 309 314 323 328 331 333 331 330 328 328 329 330 330 331 331 329 326 325 324 324 322 320 320 318 314 311 312
290 295 295 293 292 288 293 288 294 295 296 299 301 302 303 303 305 306 307 307 310 311 308 307 315 320 325 330 330 327 325 323 325 327 330 330 331 330 329 326 325 324 323 320 320 320 317 314 311
293 296 295 295 293 291 291 289 293 294 294 296 300 301 302 304 304 304 305 306 308 311 314 313 312 315 319 323 326 326 323 325 326 326 326 328 330 330 330 328 326 324 324 322 321 320 318 316 314
296 295 294 295 293 285 291 289 291 291 295 297 299 301 301 302 303 304 305 306 307 309 310 312 314 318 320 320 323 323 322 321 320 320 320 321 322 324 324 325 325 326 324 323 322 321 320 317 315
295 292 285 284 284 283 287 287 292 293 298 299 298 300 302 303 304 304 304 305 306 306 307 307 308 307 310 311 312 315 317 317 316 316 317 317 318 320 321 322 322 322 322 320 320 319 318 317 315
292 292 287 280 281 284 285 284 290 296 300 301 301 301 302 302 303 304 304 304 304 305 305 305 305 305 306 307 307 308 309 309 308 309 309 310 310 311 311 311 314 315 316 317 316 316 316 317 315
292 288 293 285 281 285 287 290 292 294 297 298 299 300 301 302 302 302 303 303 303 303 303 304 303 303 303 304 304 304 304 304 304 304 305 305 306 305 306 307 308 309 310 311 312 313 313 312 312
293 295 286 288 282 282 285 287 289 289 293 296 297 299 301 302 301 302 302 302 303 303 303 303 303 302 302 303 302 302 302 302 302 302 301 301 302 301 302 302 303 304 305 307 308 308 310 310 310
289 289 289 290 289 285 282 286 294 293 296 296 298 300 300 301 301 301 301 302 302 303 302 301 301 300 300 300 300 300 300 300 300 299 299 298 299 299 298 298 299 300 300 302 302 303 304 304 305
293 291 291 286 283 285 285 288 295 297 298 300 299 300 301 301 301 301 301 301 301 300 300 298 298 297 297 298 298 297 297 297 297 296 296 297 296 297 297 297 297 297 297 298 298 298 300 300 300

GFSSGP_sfc_thetae_090.txt.gz
Theta_e
328 321 320 316 304 301 297 301 308 308 306 312 313 308 310 315 313 310 330 336 336 334 342 343 346 346 346 347 348 347 348 345 342 341 341 340 339 340 341 340 341 341 338 340 341 342 342 342 342
319 318 316 310 299 293 293 303 304 305 310 313 312 309 309 312 323 325 327 337 337 337 339 340 344 346 346 348 348 346 348 345 342 340 341 340 342 341 342 340 342 339 340 341 342 341 341 341 340
319 317 309 304 299 293 294 301 304 308 309 308 307 312 311 315 325 327 333 334 335 335 337 342 344 346 345 347 346 346 348 345 341 340 340 339 339 341 342 341 341 338 338 341 341 340 339 338 337
315 312 309 298 297 297 298 301 308 306 306 308 308 308 316 324 326 331 333 333 335 337 338 342 344 344 344 346 347 346 346 343 340 339 340 339 338 338 339 343 341 341 339 340 339 338 338 337 336
313 310 300 297 298 298 300 305 307 304 304 306 304 308 314 326 332 332 331 333 336 337 338 340 342 343 343 344 345 346 346 342 339 338 339 339 338 337 337 339 340 339 340 339 337 336 336 335 334
305 307 297 295 296 299 300 304 306 304 304 304 302 312 316 328 329 330 331 331 338 337 337 338 336 339 341 342 344 345 344 342 340 338 337 338 338 336 335 338 339 339 339 338 336 335 335 334 332
305 302 297 298 296 297 301 306 303 302 301 303 306 306 317 324 329 331 330 334 337 336 335 336 336 335 336 337 339 341 341 341 340 339 339 338 338 338 335 337 340 338 338 337 335 334 334 333 331
305 303 298 299 297 297 303 304 304 302 303 309 311 303 310 325 329 329 331 333 334 335 333 332 333 334 334 334 333 335 337 337 337 335 333 331 332 331 330 330 336 339 336 336 334 334 333 331 329
308 298 296 298 297 299 304 301 303 303 305 308 308 314 323 329 328 325 328 329 333 334 336 333 331 333 333 334 330 330 332 332 330 329 327 326 326 327 327 327 332 335 335 333 331 330 331 329 327
301 297 300 302 300 300 303 303 302 300 303 303 309 322 326 327 324 322 325 326 327 331 333 335 332 332 332 334 331 332 332 330 330 328 326 327 325 324 326 323 326 329 330 332 330 328 327 326 321
301 298 302 301 302 305 303 301 304 300 299 303 306 318 323 324 323 322 324 326 327 330 332 335 334 333 332 331 331 331 331 330 330 327 326 325 325 323 324 323 321 321 321 321 323 321 321 322 323
297 301 302 303 303 304 302 303 300 300 298 305 309 319 322 322 323 322 322 325 327 329 331 333 336 334 332 332 331 331 330 330 329 329 327 324 323 321 322 323 323 322 321 321 321 321 321 321 322
299 300 302 302 302 302 304 300 299 300 302 303 307 316 319 321 321 323 324 325 326 327 330 333 333 334 333 332 333 332 331 330 329 329 328 325 323 322 322 322 323 323 321 321 320 319 320 320 321
302 302 300 301 300 300 300 298 298 298 302 301 303 307 314 318 320 321 322 323 325 328 328 332 333 333 334 332 332 332 332 332 331 329 328 327 324 323 323 322 322 322 322 321 320 319 318 318 319
301 296 297 299 300 297 298 294 294 297 299 300 300 304 309 315 318 319 321 322 324 327 329 330 331 332 332 332 333 333 333 332 332 330 331 327 326 323 321 322 321 321 322 320 318 318 318 317 318
297 296 291 296 297 297 295 291 295 298 296 297 299 299 305 310 315 319 322 322 324 326 327 330 331 331 331 332 333 333 333 332 332 332 331 330 328 326 322 321 321 322 321 319 317 317 317 315 314
293 288 291 292 297 296 293 291 295 297 297 295 296 298 302 305 310 315 320 322 323 325 327 329 331 329 330 332 333 334 333 333 333 332 331 331 329 328 324 322 321 321 319 316 316 316 316 314 314
288 287 291 289 293 293 292 291 294 297 296 295 296 298 298 299 303 306 311 318 322 324 326 328 331 330 329 332 332 333 332 332 332 331 331 331 330 329 327 326 325 323 317 316 317 314 314 312 311
294 292 290 291 294 293 292 292 295 297 295 293 295 298 298 299 298 299 300 300 302 308 323 326 328 330 329 330 329 329 329 330 330 331 331 331 329 328 326 325 324 324 319 318 318 315 313 313 311
291 290 288 291 294 291 291 292 295 296 296 295 296 296 296 296 298 301 300 301 299 301 306 320 325 329 329 330 330 329 329 329 330 330 330 331 329 327 325 324 323 323 321 320 318 316 313 313 312
290 290 288 289 290 289 288 287 291 292 293 295 295 295 296 297 299 300 302 302 302 300 301 308 316 324 330 328 330 328 327 326 327 327 328 329 330 328 325 324 323 322 322 320 319 318 315 313 311
288 292 292 290 287 282 288 279 288 290 292 294 296 295 296 298 301 301 302 302 305 305 301 302 309 317 323 329 326 325 323 322 324 325 328 328 329 328 326 325 323 323 322 321 320 319 318 315 312
290 294 292 291 287 285 283 281 284 290 290 293 295 297 298 299 299 299 301 304 305 307 308 303 308 311 315 318 323 323 321 322 322 322 321 324 325 327 327 325 324 323 322 322 321 319 318 317 315
295 292 291 290 288 279 284 282 282 285 290 292 295 296 297 297 299 300 302 303 302 303 304 307 311 312 314 316 317 316 315 316 316 316 316 317 319 320 319 320 320 321 321 321 320 320 319 318 316
291 288 279 278 277 278 282 282 285 288 293 295 294 295 296 298 298 298 299 300 300 300 300 302 302 302 304 304 305 310 311 309 304 304 305 305 306 306 305 307 308 310 312 314 315 315 315 315 315
288 287 281 276 276 277 280 279 285 291 296 297 297 296 297 297 298 298 299 299 299 300 299 299 299 299 300 300 300 301 302 301 301 301 301 301 301 300 301 303 304 304 305 306 306 307 307 307 307
288 285 289 280 275 277 280 283 287 291 294 295 295 296 296 297 298 297 298 298 298 298 298 298 298 298 298 298 298 298 298 298 298 297 298 298 298 298 298 298 298 299 301 302 302 302 303 303 304
289 291 282 283 273 274 279 280 282 286 291 294 294 295 296 297 297 297 297 297 298 298 298 297 297 296 297 297 296 296 296 296 296 295 294 294 295 295 295 295 295 296 297 297 298 298 299 299 299
286 285 285 286 284 278 275 279 286 289 293 293 294 297 297 296 296 296 297 297 297 297 296 295 294 294 294 295 294 294 294 294 293 293 292 292 293 293 293 293 293 294 294 294 294 294 295 295 296
288 288 288 282 279 280 281 281 291 291 294 295 295 297 297 297 296 296 296 296 296 295 293 293 292 292 293 293 293 292 292 292 291 291 291 291 291 291 292 291 292 292 292 292 292 292 292 292 292

GFSSGP_sfc_thetae_093.txt.gz
Theta_e
324 314 313 308 299 295 292 297 304 304 302 306 307 311 312 313 313 306 330 336 339 339 342 344 347 348 348 349 348 348 346 343 342 342 340 341 342 340 339 339 342 341 341 342 342 342 342 342 341
316 315 309 303 294 289 289 298 299 304 307 309 309 310 310 312 321 324 327 334 338 339 341 342 344 347 348 349 347 348 346 343 342 340 342 342 343 341 339 339 341 341 342 341 341 340 340 339 340
316 314 303 299 293 289 291 297 301 304 307 306 305 310 312 316 323 326 333 336 337 337 340 341 344 347 347 347 346 347 345 343 341 341 340 342 343 341 340 338 340 341 341 340 340 339 338 337 336
309 307 302 294 291 294 295 300 302 301 304 306 308 308 315 324 327 330 333 334 334 337 340 341 344 346 346 346 346 346 345 341 340 340 338 339 340 343 341 340 340 340 340 338 338 338 337 336 334
306 303 295 292 294 294 297 304 303 301 301 302 307 308 315 324 330 330 334 335 333 336 338 340 342 344 346 346 346 346 344 341 339 340 339 338 337 339 340 340 340 340 339 337 336 336 335 334 332
301 301 292 290 291 295 298 302 303 299 301 304 311 312 314 326 326 327 335 334 336 336 337 338 335 338 342 344 345 344 343 342 341 340 339 337 336 337 340 339 340 340 338 336 335 335 334 332 331
299 296 292 291 291 293 298 302 300 299 299 301 311 308 316 322 327 327 334 335 335 335 334 334 335 334 334 337 339 340 340 340 340 340 339 338 337 336 336 340 340 338 337 336 335 334 333 331 329
300 297 292 291 291 293 300 301 300 301 301 306 311 308 311 322 327 327 334 332 332 332 332 331 332 333 332 333 332 334 336 337 336 335 332 331 330 330 331 330 337 338 335 335 335 334 332 330 328
302 294 292 294 294 295 300 298 300 302 304 306 311 312 320 326 326 326 330 328 329 329 330 329 330 331 331 331 329 330 331 331 330 329 326 325 325 324 325 327 332 336 334 332 330 330 330 328 326
297 293 295 298 298 297 299 299 299 300 301 304 316 322 324 324 322 323 327 326 326 328 328 328 328 330 331 333 330 329 329 327 327 326 324 325 323 324 324 322 326 329 330 332 329 328 327 325 319
297 295 298 298 300 302 300 298 300 299 297 304 315 319 321 320 319 322 323 326 327 328 331 331 328 330 328 329 329 328 327 326 326 323 323 323 322 322 321 319 320 319 320 320 321 320 319 320 321
295 298 299 301 300 301 299 300 298 298 298 305 319 322 321 319 319 321 322 325 326 328 328 333 333 331 330 328 329 328 327 327 326 324 324 321 319 318 321 320 319 319 319 318 318 318 319 319 320
296 297 300 300 299 300 301 297 297 297 299 307 319 321 319 320 319 320 323 325 327 328 329 331 333 331 332 331 331 330 330 328 327 326 325 322 320 319 320 320 320 320 318 319 318 318 318 318 319
298 299 298 299 297 298 297 295 298 296 299 304 315 316 318 319 320 320 320 322 326 328 330 331 331 331 331 330 331 330 330 331 330 327 325 324 321 320 320 320 320 320 320 319 318 317 317 317 317
298 294 294 296 297 296 297 294 294 297 298 299 302 308 314 317 319 319 320 320 324 327 330 331 331 331 330 329 331 331 331 332 330 330 329 325 324 321 320 319 319 319 320 319 317 316 316 315 316
295 293 288 293 296 296 294 290 295 296 296 296 297 298 305 312 316 317 319 320 323 324 327 331 332 331 329 329 331 332 332 331 331 331 331 329 327 324 320 319 319 319 319 317 315 314 314 313 314
289 285 288 290 295 294 292 290 294 295 294 293 294 296 301 305 310 315 319 319 321 324 324 327 329 329 327 329 333 333 332 331 331 331 330 330 329 327 323 320 319 319 317 315 315 314 314 313 314
284 285 288 287 292 292 289 290 293 295 293 292 293 294 299 303 306 307 312 316 320 322 324 326 329 328 327 328 332 332 332 332 332 331 330 330 329 328 327 326 324 322 319 316 317 316 315 313 312
289 288 288 289 292 292 290 290 292 294 293 291 291 293 295 296 296 297 299 299 302 310 321 326 328 327 327 325 328 328 328 329 330 330 330 330 329 328 327 325 325 324 320 318 317 316 313 313 312
289 287 285 288 291 290 290 291 292 293 293 294 294 293 294 294 297 299 299 299 298 299 302 316 327 327 327 327 327 330 329 329 330 330 330 330 329 328 326 325 324 323 322 321 318 316 313 313 313
288 287 286 287 289 288 286 285 289 292 293 294 294 294 295 295 297 298 300 301 300 298 299 303 316 327 327 327 329 327 326 326 326 327 328 329 330 328 325 325 323 322 321 320 319 317 315 314 312
286 291 290 288 286 281 284 278 285 288 290 292 293 293 294 296 298 300 300 301 301 304 299 300 309 322 328 330 328 326 324 322 325 325 327 327 328 327 326 324 323 322 321 320 319 318 318 315 313
289 292 290 288 286 282 282 279 282 287 287 290 292 293 294 296 297 298 300 302 303 305 299 303 309 313 319 327 327 324 322 322 321 319 319 319 320 317 317 320 322 322 321 321 320 319 317 317 315
293 291 290 288 285 278 282 280 279 284 289 289 292 294 295 296 297 298 300 301 300 301 302 304 306 307 313 315 318 318 316 315 313 311 310 307 309 306 305 306 307 308 310 312 315 315 313 314 314
291 285 278 278 277 276 280 278 282 287 290 292 293 293 294 295 295 296 297 297 297 297 298 300 302 300 301 304 305 306 304 303 302 301 300 300 299 299 299 301 301 302 302 303 304 304 304 305 305
286 285 278 274 274 277 279 279 284 288 291 294 295 294 294 294 296 296 296 296 296 296 296 297 298 297 298 299 299 299 299 298 298 297 297 296 296 296 296 296 297 298 298 299 299 299 300 301 300
286 283 287 280 272 275 278 280 286 290 291 292 293 294 293 294 295 295 296 295 295 295 295 295 296 296 296 296 297 297 296 295 294 294 294 294 294 295 294 294 294 294 295 296 295 295 295 296 296
287 290 282 280 272 272 276 277 280 285 289 291 292 292 293 294 294 295 295 295 295 295 294 294 295 295 294 295 295 294 293 293 292 292 291 291 292 292 292 291 292 292 292 293 293 293 293 293 293
285 283 284 285 281 275 273 278 285 288 291 291 293 294 294 294 294 294 295 295 294 293 293 292 293 293 292 293 292 291 291 291 291 290 290 290 290 290 290 290 290 290 290 290 290 290 291 290 290
287 286 286 281 278 279 279 280 290 288 292 294 294 295 295 295 294 294 294 293 292 291 291 291 291 292 291 291 290 290 290 289 288 288 288 288 288 288 288 288 288 288 288 289 288 288 289 288 287

GFSSGP_sfc_thetae_096.txt.gz
Theta_e
321 312 310 306 298 294 291 297 302 300 302 305 308 312 311 312 312 303 329 337 339 338 342 345 348 350 348 348 347 346 344 344 341 341 342 340 340 340 340 340 339 342 342 341 342 342 341 339 340
317 313 307 300 293 288 289 296 299 302 306 312 312 311 312 310 320 324 326 338 338 339 341 342 345 348 347 347 347 345 344 343 341 341 343 341 340 339 341 341 344 342 340 340 340 340 338 338 337
311 312 301 297 291 288 291 297 302 304 307 304 305 312 314 314 322 325 331 337 338 338 340 342 345 348 347 346 346 345 343 343 341 342 344 343 340 338 339 340 343 341 340 339 338 338 337 336 335
307 305 300 293 290 292 297 300 301 301 301 308 310 309 317 323 326 329 335 337 335 336 338 342 345 347 346 346 346 344 342 342 341 341 341 343 341 338 339 340 340 339 338 338 337 336 335 334 334
304 300 294 291 292 293 298 301 300 298 299 303 309 308 312 323 330 332 332 334 334 335 336 340 344 346 346 346 346 344 342 341 341 340 339 339 341 340 339 341 340 338 337 336 336 335 333 332 331
299 299 291 289 290 294 298 301 300 298 301 309 312 311 312 324 328 330 332 332 335 335 336 337 335 340 343 344 344 343 342 341 341 339 337 337 339 339 339 341 339 337 336 335 334 333 332 331 330
298 294 290 290 290 292 298 301 299 299 299 302 313 308 318 322 329 332 331 333 334 334 333 332 334 335 336 338 339 340 340 340 341 340 338 337 337 339 340 339 338 336 336 335 334 333 331 330 329
301 297 291 291 291 293 298 300 298 299 299 309 317 309 314 321 327 332 332 331 329 330 330 329 330 332 333 333 331 333 336 337 337 335 332 330 330 331 332 332 337 336 335 335 334 332 330 328 327
303 293 292 293 293 295 298 297 298 301 304 308 313 315 320 324 328 329 329 326 326 327 327 328 328 329 331 331 327 329 330 331 330 328 326 324 322 323 325 328 334 334 333 331 330 331 328 326 324
298 293 295 298 296 297 298 298 299 301 301 309 313 318 324 323 327 324 324 323 324 323 325 326 326 327 329 333 329 328 327 326 325 324 323 323 322 322 323 322 327 330 330 331 329 327 327 324 319
298 294 298 298 298 300 299 297 297 300 296 310 313 318 321 321 323 324 324 324 325 325 326 326 327 327 328 328 327 326 324 324 323 322 322 321 321 320 319 318 318 319 319 319 320 319 318 318 318
294 298 298 300 300 300 298 299 296 296 297 310 319 321 321 319 319 323 324 324 325 326 327 327 327 327 327 327 326 326 325 324 323 321 322 319 318 318 318 318 318 317 317 316 316 316 317 317 319
296 295 298 298 300 299 300 297 297 296 296 318 320 320 319 320 318 322 325 326 327 326 327 328 330 329 327 327 327 326 325 325 325 323 322 320 317 316 319 318 318 318 317 317 316 316 316 316 317
298 297 296 297 297 297 297 295 296 296 303 315 318 318 318 318 317 318 321 324 326 327 327 329 329 330 330 329 329 329 330 329 328 325 323 321 320 318 318 318 319 318 318 318 317 316 315 315 315
296 292 292 294 296 295 297 293 293 296 307 313 315 315 317 318 318 319 321 324 326 328 329 329 329 329 329 327 330 330 329 330 329 329 327 323 321 319 319 318 318 318 318 317 316 315 314 313 314
293 290 287 292 295 294 293 290 294 295 301 306 309 310 315 317 319 320 321 321 326 327 328 330 331 329 328 327 327 330 330 330 330 329 329 327 326 322 318 318 318 318 317 316 314 313 313 314 314
288 284 285 289 294 292 292 289 293 294 295 296 297 301 307 312 313 317 318 319 323 326 329 329 329 328 327 327 328 331 331 330 330 330 330 329 328 326 323 320 318 317 316 315 315 315 315 314 314
284 284 286 286 291 291 289 289 291 293 293 293 293 293 298 304 308 312 316 317 321 324 328 329 329 329 326 326 327 331 331 331 331 330 330 330 329 327 326 325 323 321 319 317 317 316 313 314 311
290 288 287 287 291 290 289 289 291 293 291 290 290 291 295 301 296 297 300 307 317 319 321 326 327 327 326 325 324 327 328 329 330 330 330 330 329 328 327 326 325 324 320 319 318 317 315 314 314
289 288 286 288 290 289 288 289 290 291 292 292 291 291 295 293 294 296 297 296 301 304 316 323 326 326 326 327 324 325 329 329 330 330 330 330 329 328 326 325 324 323 322 321 320 317 314 313 313
287 286 285 287 287 287 285 286 288 291 291 292 293 292 293 293 295 297 300 299 298 298 299 312 323 326 327 327 327 327 326 327 327 327 328 329 330 329 326 325 324 323 321 320 319 318 315 314 313
285 289 289 288 284 281 285 280 282 288 290 292 292 292 293 294 296 298 299 297 300 302 299 300 314 324 325 328 327 326 324 322 324 325 325 322 322 321 323 323 322 321 321 320 319 318 317 315 312
288 291 289 287 284 283 281 279 282 284 285 290 291 292 294 295 297 298 299 301 300 302 297 301 310 323 325 327 328 325 323 322 320 319 318 314 308 308 309 311 312 314 315 316 313 312 310 312 313
292 290 288 287 284 278 282 281 280 283 287 291 290 292 293 295 296 298 299 300 300 300 301 303 308 310 319 323 325 323 319 317 313 309 306 304 304 302 302 301 302 302 302 302 303 303 303 303 304
291 287 279 278 278 277 280 278 283 285 288 290 292 291 293 294 295 296 296 296 297 297 298 301 304 302 307 310 311 310 307 303 303 300 298 296 296 295 295 296 296 297 297 298 298 298 298 298 297
286 287 278 274 274 275 279 278 284 287 290 291 292 293 293 293 295 295 295 295 296 296 296 296 297 297 299 301 302 301 300 298 297 296 295 294 293 293 293 293 293 294 294 294 294 294 294 294 293
287 283 286 279 271 276 277 280 286 289 289 290 291 293 292 293 294 294 294 294 294 294 294 295 295 295 296 296 297 296 295 295 294 293 292 291 291 292 291 291 291 291 291 292 292 291 291 291 291
288 289 283 280 273 271 275 276 280 285 289 290 290 292 292 293 293 293 293 293 293 293 293 293 294 294 294 294 294 293 292 291 290 290 289 289 289 289 289 289 288 289 289 289 289 288 290 290 289
285 284 283 283 281 276 272 277 283 287 291 290 292 293 293 293 294 293 292 293 292 292 292 292 292 292 292 292 291 290 289 289 289 288 287 287 288 288 287 287 287 287 287 287 287 287 288 287 286
286 286 286 281 278 278 278 278 287 286 289 292 292 293 293 294 293 293 292 291 291 290 291 290 290 291 290 290 290 289 289 288 287 286 286 286 286 286 286 286 285 286 286 286 285 285 286 285 285

GFSSGP_sfc_thetae_099.txt.gz
Theta_e
319 310 309 306 296 293 289 295 301 299 299 306 311 310 309 311 308 301 327 335 338 338 343 343 347 347 346 346 345 344 343 341 342 341 340 340 340 340 339 341 344 343 341 343 342 340 339 337 337
313 310 306 298 292 288 289 293 299 300 306 313 310 311 310 308 319 325 328 337 338 340 340 343 345 347 347 346 345 344 343 343 342 343 340 339 341 340 343 341 343 342 341 340 340 338 337 336 336
310 308 301 296 290 288 289 296 300 303 310 303 308 313 312 312 321 324 332 336 338 338 340 341 345 347 346 345 344 344 343 344 344 344 341 339 339 340 342 341 341 340 338 337 338 337 336 335 336
306 304 299 293 289 292 295 299 302 300 301 309 311 309 315 322 324 328 336 337 335 336 338 342 346 347 346 345 343 343 342 340 341 342 343 339 338 339 341 339 338 338 337 336 336 335 334 333 333
303 299 293 290 290 291 295 301 299 299 299 303 308 308 311 322 329 333 333 336 333 333 336 340 344 345 346 345 343 343 342 341 339 340 342 340 338 339 342 339 337 336 336 335 335 333 331 331 332
299 297 290 288 289 294 298 300 299 297 303 308 310 311 310 323 328 329 333 332 333 333 335 338 337 341 343 344 343 342 343 341 339 338 338 339 339 339 340 338 337 335 335 334 333 332 331 330 332
298 293 289 289 288 291 297 301 296 300 304 304 314 308 314 319 326 330 330 333 333 333 332 333 335 337 336 338 339 340 341 341 340 339 337 338 339 341 340 339 337 335 335 334 333 332 330 329 329
299 295 290 290 290 291 296 299 299 299 298 312 315 308 312 320 328 329 331 329 328 328 328 328 330 334 333 333 332 334 336 337 337 334 331 330 331 332 334 332 336 335 334 334 332 331 329 328 327
302 292 289 292 291 293 297 296 297 301 303 306 312 314 319 325 328 327 326 326 325 326 325 326 328 329 330 329 326 328 330 331 330 328 324 322 322 323 326 329 333 333 332 331 331 329 327 325 323
296 292 295 298 295 295 298 297 299 301 306 306 310 316 321 326 326 324 324 323 321 321 323 324 325 327 328 331 327 326 326 325 324 323 321 321 321 321 323 323 327 329 329 330 329 327 326 322 318
296 294 297 299 297 299 298 296 298 300 298 308 310 316 319 324 323 323 323 323 321 321 324 324 324 325 327 326 325 324 323 321 321 321 321 320 320 318 318 318 318 318 318 317 318 317 316 317 317
295 298 297 300 300 299 297 298 299 297 298 307 316 320 319 322 322 322 322 321 321 321 323 325 324 325 324 325 324 323 322 321 319 320 321 318 317 316 316 316 316 316 316 315 315 315 316 316 317
296 296 297 299 297 297 298 295 297 297 298 316 319 320 318 320 322 323 323 323 323 322 323 324 325 325 325 324 324 323 323 323 321 320 320 318 317 316 317 316 316 316 315 316 315 315 315 315 315
297 297 297 296 295 295 296 292 294 294 309 315 317 317 318 318 320 320 322 322 324 324 324 325 326 326 325 324 324 325 324 325 324 322 320 319 317 316 317 317 317 317 316 316 315 315 314 314 314
300 294 293 293 294 294 295 291 292 294 312 314 314 315 317 318 318 320 324 323 325 326 326 325 327 327 325 324 326 326 326 328 328 327 324 320 319 318 317 316 316 316 316 316 314 314 313 312 313
293 292 286 291 294 293 292 289 294 297 311 311 311 311 314 315 317 320 323 325 326 327 326 328 328 326 325 325 325 329 329 329 329 328 327 325 324 321 317 317 316 316 316 315 314 313 313 313 315
294 286 285 290 293 291 291 289 293 293 309 309 309 310 312 315 315 316 319 323 326 327 327 327 327 326 326 326 325 326 329 329 329 329 328 327 326 325 322 320 318 316 315 314 316 316 315 314 313
292 286 286 287 291 289 288 289 289 292 299 305 303 305 307 312 316 317 317 318 323 326 328 328 329 328 326 325 325 326 330 329 330 330 329 329 328 326 325 324 323 321 319 318 317 316 316 315 315
295 289 288 288 291 289 288 289 290 290 288 291 292 294 298 303 309 304 312 315 316 321 326 328 327 327 325 322 322 326 326 329 329 329 329 329 329 328 326 325 325 324 321 320 319 317 316 316 314
289 288 287 289 290 289 287 288 288 290 290 291 291 290 293 295 296 297 298 304 314 318 323 326 327 327 326 327 323 323 324 329 330 329 329 330 329 328 327 325 324 323 322 321 320 318 315 314 314
287 289 286 287 287 286 285 285 287 290 290 291 292 290 292 296 296 295 297 297 298 306 315 322 325 326 327 326 325 326 326 327 327 327 328 328 328 327 325 324 323 322 321 320 319 318 316 313 314
286 289 289 287 286 282 285 279 283 287 289 290 292 290 292 292 294 296 298 300 299 299 299 302 320 323 325 325 327 325 323 322 324 325 320 313 314 315 317 319 320 320 320 318 317 316 316 314 311
289 290 289 288 285 282 280 279 282 284 286 288 291 291 291 292 294 296 299 300 301 304 299 298 308 322 324 326 328 326 322 322 320 318 309 307 306 307 308 308 308 307 308 307 306 304 303 304 305
292 290 288 287 284 278 282 281 280 281 286 290 290 291 292 293 295 298 299 300 300 300 299 300 306 320 322 325 327 325 320 318 314 310 305 303 301 301 300 300 299 299 298 298 298 298 298 297 298
290 287 280 279 277 278 279 278 286 284 287 289 292 293 292 293 295 297 297 297 298 299 299 302 305 314 321 321 320 321 318 315 309 304 301 298 296 294 294 294 294 294 294 294 294 293 294 293 292
287 288 280 275 276 276 280 277 283 287 287 289 291 292 292 293 295 296 296 297 298 298 298 299 301 304 309 312 309 309 307 303 298 298 295 293 293 292 292 291 291 291 291 291 291 291 291 290 289
287 284 287 280 272 277 278 280 285 286 289 291 291 291 293 294 295 295 295 295 296 295 295 296 296 297 300 302 302 301 299 296 294 292 292 291 290 290 289 289 288 289 289 289 289 289 289 288 287
289 291 283 281 274 272 275 276 280 283 288 290 290 291 292 294 294 294 294 294 293 294 293 294 294 294 294 297 299 297 295 293 291 290 289 288 288 288 287 286 287 287 287 287 287 287 288 286 286
287 283 284 286 281 277 273 277 284 287 290 290 292 292 292 293 294 294 293 293 293 292 292 291 291 291 292 293 293 293 291 289 288 288 287 287 287 286 286 285 285 285 285 285 285 286 286 285 284
291 286 286 282 278 278 278 278 285 285 286 291 290 291 292 293 293 292 292 292 291 291 290 290 290 289 289 289 289 288 288 287 286 285 285 286 285 285 285 284 284 284 284 284 284 284 284 283 283

GFSSGP_sfc_thetae_102.txt.gz
Theta_e
320 309 307 305 295 293 290 295 299 299 299 307 310 307 308 309 307 300 325 333 337 337 342 343 346 347 345 345 344 344 344 343 341 340 340 340 340 341 343 342 344 343 342 341 340 338 338 336 335
309 309 305 298 292 287 289 292 299 300 307 311 310 310 310 306 317 326 328 336 338 339 341 342 345 346 344 345 344 343 344 345 341 340 342 341 343 342 341 341 342 342 340 340 338 337 337 336 335
308 306 301 294 288 287 288 295 299 303 311 302 308 313 310 311 323 326 331 336 338 337 340 341 345 346 344 344 344 344 344 345 342 339 339 340 343 342 341 340 338 337 338 337 336 336 336 335 334
304 303 299 293 289 291 292 297 301 304 302 310 312 309 312 320 324 328 335 336 334 335 338 342 345 346 344 344 342 343 342 343 344 341 339 340 341 342 339 338 338 336 335 335 335 334 333 333 333
303 299 292 289 290 290 292 300 299 297 299 304 308 307 308 322 329 333 333 335 333 333 336 340 344 345 345 343 343 342 342 341 342 341 338 338 340 341 338 337 336 335 335 334 333 332 332 332 332
299 296 290 287 289 292 297 300 298 297 303 308 311 309 310 322 328 330 333 331 332 334 336 338 337 340 342 342 342 342 342 340 339 340 339 338 340 340 338 337 335 334 334 333 332 331 331 332 330
298 294 289 289 288 293 298 300 295 299 304 305 315 307 313 322 326 328 329 331 332 332 332 333 336 337 336 337 338 340 340 340 339 338 338 340 340 340 338 337 335 335 334 333 332 330 330 329 328
298 294 288 289 289 292 296 298 297 301 297 311 313 305 313 320 326 329 329 328 327 328 329 330 332 333 333 332 331 334 336 337 335 333 331 330 332 334 334 332 335 334 334 332 331 329 328 328 327
302 292 288 291 292 292 295 295 295 301 307 307 310 311 315 325 327 327 326 326 325 325 326 327 330 329 329 329 326 328 330 330 329 326 324 322 322 324 327 329 332 332 331 331 330 328 328 324 323
298 292 294 296 296 292 296 296 298 301 304 304 307 315 324 326 325 322 321 320 321 321 323 324 328 327 327 329 325 325 325 323 323 321 319 320 320 321 323 322 325 327 329 329 328 327 323 320 316
298 293 296 298 298 297 296 295 297 300 299 305 309 314 322 322 323 322 320 321 319 319 322 323 324 325 325 324 323 322 321 320 320 319 319 319 318 317 317 317 316 316 317 315 316 315 316 316 316
296 298 297 298 298 298 296 296 297 300 299 302 313 319 321 321 322 322 322 319 318 318 320 322 323 324 324 323 322 321 320 319 318 318 319 317 316 315 315 315 315 315 315 314 314 314 315 315 315
298 297 297 298 298 297 297 295 295 296 299 310 317 319 320 322 322 322 323 321 319 318 320 321 322 323 323 322 321 320 320 319 319 319 319 318 316 315 315 314 315 315 314 315 314 314 314 313 314
299 299 298 297 296 297 296 292 293 294 309 312 316 315 319 321 321 319 320 321 320 320 321 322 323 323 323 322 322 321 321 322 320 319 319 318 316 315 315 316 316 315 315 314 314 314 313 313 312
299 295 294 295 296 295 295 291 292 294 310 311 312 314 314 318 319 320 322 322 323 322 323 322 324 324 323 322 323 323 323 324 323 323 323 320 318 316 316 315 315 316 315 315 314 313 312 311 312
294 292 287 291 293 294 294 289 293 301 309 308 309 309 312 314 317 320 322 323 324 324 323 324 327 324 323 322 324 325 325 326 328 327 325 323 322 321 317 316 316 316 315 314 313 316 316 313 314
298 289 286 289 292 291 291 290 292 299 307 306 307 308 310 311 313 316 320 323 324 324 325 324 324 324 324 323 323 324 328 328 328 328 327 326 325 324 321 320 318 316 314 314 315 316 316 315 316
292 290 288 288 290 289 288 290 289 291 305 306 307 308 309 311 314 315 317 321 323 324 325 326 326 325 324 324 322 324 328 328 329 329 328 327 326 325 324 323 322 320 319 318 317 316 315 316 316
299 291 288 288 291 291 290 290 293 290 289 298 302 303 306 310 313 314 315 316 318 322 323 325 325 325 324 321 323 325 326 327 328 329 329 329 329 327 325 324 324 324 322 321 320 318 317 316 315
291 294 291 289 290 289 289 290 289 289 290 292 298 298 302 301 301 305 306 311 313 319 322 324 326 326 325 326 322 323 325 328 329 329 328 329 328 328 326 325 324 324 322 321 320 318 316 314 315
292 289 288 288 288 287 286 287 287 289 288 290 290 292 293 299 301 299 298 301 309 314 318 323 325 326 326 326 322 325 326 326 326 327 328 324 325 326 325 325 324 322 321 320 319 318 316 313 313
287 291 290 287 287 284 285 280 285 286 288 289 290 289 290 291 295 297 297 297 298 307 311 319 323 326 326 324 324 325 324 322 323 324 316 312 314 314 316 318 318 318 317 315 313 312 311 311 306
291 291 289 288 286 283 282 280 285 282 285 287 289 290 292 292 293 297 297 298 299 299 300 303 316 321 323 325 325 325 324 323 320 313 309 307 306 307 307 307 307 306 306 305 303 300 300 301 303
292 290 288 287 283 278 284 281 281 284 285 288 290 291 293 291 291 294 297 299 301 301 300 297 302 319 321 323 325 325 323 319 314 309 305 303 301 300 300 300 300 297 297 297 296 295 294 294 293
292 287 280 279 276 278 279 278 286 285 287 289 293 293 293 290 291 294 297 298 299 300 300 299 302 308 321 322 323 325 321 318 314 308 303 299 297 296 295 294 293 292 293 292 292 292 291 290 289
288 288 279 274 275 278 279 278 284 288 288 288 289 290 290 291 292 294 296 297 298 299 299 300 302 305 316 322 322 320 319 315 310 305 301 297 295 293 291 290 290 290 290 289 290 289 289 287 287
287 287 287 279 272 275 278 280 285 286 287 289 290 289 289 291 293 295 295 296 298 298 298 298 300 304 307 311 310 308 306 304 300 297 295 294 291 290 288 288 287 287 287 287 288 287 286 286 285
289 291 283 283 272 272 275 276 281 283 288 289 290 291 291 291 293 294 295 295 295 295 295 295 297 300 301 303 304 302 299 298 295 293 290 290 288 287 286 286 286 285 286 286 286 286 285 284 284
286 286 285 285 281 276 274 278 283 287 289 290 291 292 292 291 293 294 294 293 293 293 293 293 293 295 297 296 296 296 294 293 292 290 288 287 286 285 285 285 285 285 284 284 284 284 284 283 283
290 288 289 283 279 277 278 280 284 286 286 288 288 291 292 293 293 293 292 291 291 292 291 292 291 291 294 294 294 292 291 290 289 287 286 285 284 284 284 284 284 284 284 283 283 283 283 282 282

GFSSGP_sfc_thetae_105.txt.gz
Theta_e
319 312 310 309 299 298 295 299 303 302 303 312 313 311 312 314 310 305 330 335 339 342 344 345 346 346 346 345 345 344 344 343 341 341 341 344 345 344 343 345 344 343 341 339 337 337 336 335 334
312 311 309 302 295 291 293 297 302 303 312 313 312 312 313 313 321 325 330 337 341 342 344 345 344 346 345 344 344 345 344 342 342 341 343 343 343 341 342 341 343 340 340 337 336 337 336 335 333
311 307 304 297 292 292 293 298 303 307 312 307 312 316 315 315 324 327 334 340 341 342 343 344 344 345 345 344 344 345 345 343 341 341 342 344 341 341 341 340 338 338 337 335 336 336 335 334 333
308 306 301 295 294 296 296 301 304 309 308 312 314 312 319 325 326 331 338 340 339 341 343 344 345 345 344 344 344 344 345 343 340 340 342 343 341 340 339 337 335 334 335 335 334 334 334 333 332
305 302 295 293 295 295 296 303 306 303 304 308 312 312 316 325 331 335 336 337 337 339 343 344 344 344 344 343 343 344 343 344 342 340 340 342 340 338 337 336 335 335 334 333 333 333 334 332 331
302 300 292 291 293 296 301 303 302 302 306 312 313 314 317 328 330 333 336 335 336 337 341 343 338 340 341 342 342 342 342 342 342 340 340 342 340 338 337 336 335 334 334 333 332 333 332 331 330
300 297 293 292 292 296 301 301 300 303 307 310 317 312 318 324 330 332 333 334 334 336 338 340 342 339 335 338 338 340 340 340 341 340 341 341 340 339 337 337 335 334 333 332 331 331 330 330 329
299 297 293 294 293 296 299 300 301 305 304 315 317 309 314 323 329 330 332 331 332 334 336 338 339 339 337 338 331 334 336 336 335 334 331 331 333 334 333 332 335 334 333 331 330 329 329 328 327
303 294 293 295 293 295 298 298 300 305 311 311 314 314 318 327 329 328 326 328 328 330 332 336 336 335 335 334 330 330 330 329 328 326 324 325 331 332 332 329 332 332 332 331 330 329 326 324 323
300 295 296 299 299 296 298 298 299 305 307 310 313 319 325 326 327 323 321 321 323 325 328 333 332 332 332 331 331 331 329 328 326 325 326 326 327 328 327 323 323 326 327 329 328 326 322 322 324
298 296 298 298 299 299 298 297 301 303 303 307 310 316 322 323 324 322 321 322 322 324 326 331 331 331 331 329 329 328 327 327 325 324 325 325 324 325 325 324 323 323 319 322 321 322 323 323 323
297 298 298 300 299 300 298 298 299 302 303 305 313 320 321 323 321 321 320 321 320 323 325 328 330 329 329 328 327 326 325 324 324 324 324 324 323 323 323 323 323 323 323 323 323 323 322 322 321
299 299 299 299 298 299 298 297 298 300 301 309 317 320 320 322 321 323 324 322 320 321 324 327 328 329 328 327 326 325 324 324 324 324 324 324 323 322 322 322 323 324 323 323 323 323 322 321 321
301 300 299 299 297 298 297 295 297 299 311 312 316 318 320 321 322 322 323 321 320 320 322 324 327 328 327 327 326 325 325 324 324 324 324 323 323 322 323 323 323 324 324 323 323 322 322 321 320
297 296 297 296 297 296 297 294 295 299 312 311 312 315 319 320 322 321 323 322 322 321 322 323 325 326 326 326 326 326 326 326 325 325 325 324 322 321 322 323 323 324 324 322 322 322 321 321 320
297 294 290 295 295 295 294 292 296 301 310 310 311 312 316 318 321 322 323 324 324 323 322 324 325 325 325 325 326 326 327 328 328 328 327 324 323 322 322 323 323 323 322 322 321 321 320 320 319
297 290 289 291 294 293 292 292 296 302 307 307 309 311 313 315 315 320 323 324 325 325 323 323 326 325 325 325 326 327 327 328 330 330 327 325 324 324 322 322 321 320 321 321 319 319 319 322 322
291 292 289 288 292 291 290 291 294 294 306 306 307 309 311 313 316 318 321 324 325 326 326 326 325 326 326 326 325 327 329 329 330 329 328 327 326 326 324 325 324 322 322 320 320 319 320 321 321
298 295 294 290 292 290 290 291 295 293 298 303 305 308 309 311 316 316 318 321 323 325 325 326 326 326 325 325 324 325 325 327 328 329 329 328 328 327 326 325 325 324 323 324 322 321 320 319 320
298 295 292 293 291 290 289 290 294 291 291 295 303 305 308 309 309 314 315 316 319 323 325 325 326 326 326 327 326 329 328 328 329 329 330 330 329 328 328 328 326 325 324 323 322 321 318 317 317
293 295 294 294 289 290 288 288 290 291 290 291 293 301 304 309 310 308 309 313 317 318 322 325 326 327 327 328 326 326 327 327 327 327 328 325 328 328 326 326 326 324 323 321 320 320 318 314 314
291 295 291 289 288 287 287 281 288 289 290 289 291 291 296 301 302 307 307 305 310 316 319 323 326 327 327 328 327 327 326 324 325 325 319 316 318 319 321 322 321 320 318 316 313 313 313 313 308
292 295 292 289 286 282 282 282 286 286 286 289 290 291 292 294 297 301 304 305 304 306 313 318 322 326 327 327 328 327 326 327 321 316 312 309 309 310 310 311 311 309 308 307 306 305 305 307 304
293 292 290 289 286 281 283 284 282 290 288 290 291 293 294 294 292 293 296 299 301 302 303 306 316 322 325 326 327 326 325 320 315 312 309 306 304 303 303 302 302 302 302 301 300 300 299 298 297
293 289 281 280 278 278 280 281 288 288 289 292 294 294 295 294 292 292 295 297 300 302 302 300 302 316 322 324 326 326 325 321 317 313 308 302 300 298 298 297 297 297 297 297 296 295 294 293 292
290 289 282 276 276 277 278 279 284 289 293 290 290 291 291 292 291 292 295 297 300 301 302 301 300 303 319 322 324 325 323 322 317 311 306 302 299 296 295 294 293 293 293 293 293 292 291 291 291
287 285 287 281 271 274 278 281 287 287 288 288 290 290 291 292 292 294 294 297 299 300 301 301 300 302 308 320 322 323 321 317 311 306 303 298 295 293 292 292 291 291 291 292 291 290 289 289 289
288 292 284 284 275 271 276 277 282 284 288 290 289 291 293 292 291 293 295 296 298 299 299 299 300 302 304 313 314 314 313 310 304 300 296 294 292 291 290 289 289 288 289 290 290 288 288 288 288
287 286 287 286 281 275 272 278 283 287 289 289 290 291 292 293 292 293 295 295 297 297 296 296 297 299 301 304 303 301 299 300 299 297 293 291 290 289 288 288 287 287 287 288 287 287 287 286 286
289 287 288 284 279 279 278 279 286 286 287 288 289 289 292 293 293 294 294 295 294 295 294 294 295 296 299 298 299 298 296 295 293 292 290 289 288 287 287 286 286 286 286 286 286 286 286 285 284

GFSSGP_sfc_thetae_108.txt.gz
Theta_e
322 319 321 319 307 306 301 304 311 309 309 313 316 316 316 319 314 310 335 337 342 342 344 346 347 346 344 344 345 344 343 343 343 344 344 344 345 344 343 342 343 340 338 338 337 336 335 334 333
318 317 320 314 304 298 301 307 307 310 315 318 318 319 317 317 323 327 332 339 342 343 344 344 344 346 344 344 344 344 344 344 343 343 344 344 343 342 341 341 342 339 337 338 337 335 335 333 333
316 315 314 308 303 299 300 305 310 314 315 315 316 320 319 318 325 329 336 341 342 343 344 343 344 345 344 343 345 344 344 344 344 344 342 342 340 339 339 339 338 336 335 335 336 335 334 332 331
316 316 311 304 298 301 301 307 311 314 312 316 318 315 324 329 327 333 339 341 339 341 343 342 344 345 343 344 346 344 344 341 342 344 342 341 340 339 336 335 335 334 335 334 334 335 333 332 330
318 315 304 301 300 301 302 306 313 312 311 315 316 314 319 328 334 336 339 340 339 341 343 343 343 344 344 345 345 345 344 341 342 342 341 339 338 337 336 335 334 334 334 333 334 334 332 331 330
312 311 301 298 299 301 306 311 313 310 312 316 315 316 320 331 331 335 338 339 340 341 343 343 337 340 342 342 344 344 343 342 342 342 341 339 338 337 335 335 335 334 333 333 333 332 331 330 329
310 307 302 300 299 301 306 311 311 310 311 313 320 314 321 327 333 336 337 338 340 340 341 343 341 338 336 338 339 341 342 342 342 342 342 340 339 338 336 336 334 333 332 332 331 330 330 329 328
309 309 300 301 300 300 307 308 307 310 310 320 322 313 317 325 333 334 335 335 334 338 340 342 342 339 338 338 332 334 336 336 336 335 333 332 333 334 333 332 334 333 332 330 330 329 328 328 327
308 302 300 300 299 302 307 306 307 312 315 317 320 318 325 330 332 331 329 328 330 334 338 340 340 339 337 337 333 329 329 329 328 328 327 330 334 333 331 329 332 332 331 330 329 328 326 324 324
309 304 303 303 303 302 304 306 307 310 312 314 317 322 328 329 329 326 326 324 326 328 333 336 340 338 335 334 337 336 330 331 334 334 334 334 333 332 329 323 324 325 328 329 327 325 323 326 328
306 304 305 302 304 303 302 303 308 308 308 311 313 320 323 326 327 325 325 327 328 328 330 334 338 338 335 333 334 334 332 330 332 333 333 332 331 331 330 329 329 328 321 326 327 328 328 327 327
302 305 306 303 302 303 302 303 304 308 309 311 317 323 323 323 324 326 325 326 327 327 328 332 337 337 335 333 331 331 330 330 328 329 330 330 329 329 329 329 329 331 331 330 330 330 329 328 327
304 302 303 302 302 302 302 302 303 306 309 312 320 324 323 324 326 328 328 329 327 326 328 329 332 336 334 332 330 329 328 328 328 329 330 331 329 328 328 329 331 331 331 331 331 330 329 329 328
306 305 303 303 303 303 301 302 302 306 311 314 320 322 323 324 326 325 328 326 324 325 328 329 329 335 334 332 330 329 328 328 329 331 330 330 330 329 330 330 331 331 332 331 331 330 329 328 328
303 303 305 302 300 301 302 299 299 306 312 313 318 321 322 325 325 324 328 327 324 324 326 329 331 332 334 332 331 330 329 328 330 331 331 330 329 328 329 330 330 331 332 330 330 330 328 327 327
300 302 298 306 299 298 303 298 304 305 311 311 315 320 320 322 323 326 328 329 330 326 324 326 329 332 333 332 332 330 330 330 330 331 332 331 328 327 329 331 330 331 331 330 329 328 324 327 327
300 295 298 302 300 300 300 300 301 303 309 310 314 317 320 322 321 325 329 330 331 330 325 325 326 328 331 332 330 330 330 332 333 334 332 330 327 326 326 327 327 325 328 328 326 324 323 325 324
293 296 298 300 299 297 298 297 302 300 305 308 312 316 318 320 322 327 329 331 332 332 329 326 327 327 328 329 330 330 331 332 334 333 331 329 327 327 326 326 326 325 325 325 323 323 324 325 324
300 300 299 299 296 296 298 298 301 303 300 305 309 313 316 318 322 326 328 330 331 332 331 327 325 327 328 329 329 329 329 331 332 332 331 329 328 328 327 327 327 328 326 327 325 324 323 325 324
301 299 300 303 299 297 298 296 300 302 300 301 305 310 313 317 319 322 325 328 329 331 331 331 328 328 329 331 331 331 331 332 332 333 331 331 331 330 329 329 329 329 328 327 325 323 322 321 321
297 297 299 299 294 295 296 298 302 304 299 300 301 306 312 315 316 319 322 324 327 329 330 331 331 331 331 331 332 332 332 331 330 329 331 331 332 331 330 329 331 329 329 326 324 323 322 317 318
293 298 299 298 294 292 298 290 301 305 304 298 299 300 304 312 317 319 320 322 324 326 330 331 332 332 332 332 331 330 328 327 329 330 331 327 328 329 329 328 328 326 324 322 320 320 322 320 315
295 297 295 292 293 287 292 286 297 298 297 299 300 301 301 305 312 316 317 320 323 326 327 329 331 331 332 332 332 332 330 331 332 327 322 319 318 320 320 321 320 318 316 314 313 313 314 315 310
298 293 292 290 289 284 291 288 294 298 298 302 302 301 302 302 303 309 315 318 318 320 323 326 327 329 331 332 331 331 331 331 328 323 321 315 313 311 311 311 311 310 309 310 309 308 307 305 303
294 292 283 282 282 286 288 288 294 301 299 302 303 303 303 303 302 302 303 307 312 313 314 320 323 324 328 330 330 331 331 331 328 324 323 316 311 305 304 305 303 304 305 305 303 302 300 299 298
292 293 285 281 281 287 283 285 293 297 297 301 299 301 301 302 302 302 301 303 305 309 312 313 314 319 325 327 328 329 331 331 329 327 321 316 310 305 302 302 300 300 301 300 299 298 297 297 297
290 288 294 285 279 282 287 290 294 296 296 296 297 298 299 300 300 300 301 301 303 305 308 311 309 312 319 324 325 325 326 327 325 323 318 313 306 299 298 298 297 298 297 297 296 296 294 295 294
295 296 286 287 281 280 287 286 289 293 294 297 297 299 301 301 299 299 299 300 302 305 307 309 309 309 311 320 323 323 324 325 322 318 312 305 301 296 296 297 296 295 296 295 294 293 293 292 292
291 290 290 290 287 283 282 288 295 295 296 295 296 297 298 299 301 301 301 301 302 304 306 307 306 307 308 310 319 320 317 315 311 308 304 301 299 295 294 295 294 293 293 293 292 292 291 291 290
294 291 291 287 283 286 283 287 294 294 294 293 296 296 298 299 300 301 300 301 301 302 304 304 305 305 307 309 312 314 310 303 303 300 298 296 294 294 292 293 292 292 292 292 291 289 290 289 289

GFSSGP_sfc_thetae_111.txt.gz
Theta_e
329 323 322 320 309 307 304 304 311 309 310 315 320 318 318 321 317 312 333 339 342 340 343 345 345 344 343 344 345 344 344 345 346 344 344 345 343 342 342 340 341 339 338 337 336 336 335 334 333
322 320 321 315 305 302 303 308 307 311 316 319 320 319 318 319 326 328 330 339 342 341 343 343 344 344 344 345 344 343 344 345 344 342 343 344 342 342 341 338 339 338 338 336 335 335 334 333 333
318 318 314 310 305 301 302 307 311 315 317 317 317 322 320 320 327 330 335 338 340 341 342 342 344 344 343 344 344 344 344 344 344 343 342 341 340 338 339 338 336 336 336 336 335 334 332 332 332
317 317 314 305 303 304 304 308 313 314 314 318 318 316 324 331 328 333 338 339 340 341 341 342 344 343 343 344 343 343 343 344 344 343 342 340 338 337 336 335 334 334 334 335 335 333 332 331 330
317 315 306 303 304 304 306 307 313 314 314 316 317 314 320 328 334 335 337 338 336 338 340 340 343 344 345 345 344 344 343 343 345 342 340 339 338 336 335 334 333 334 334 334 333 332 331 330 329
312 313 303 301 303 304 307 311 313 314 314 316 314 315 321 331 333 334 336 336 337 339 339 338 337 340 342 343 343 343 342 342 343 341 339 337 336 336 335 334 333 333 334 333 332 331 331 330 328
310 307 302 304 303 303 306 314 313 312 313 313 318 312 323 327 333 335 335 337 338 339 339 339 337 337 336 338 339 341 342 342 342 342 340 338 338 337 336 335 333 333 332 332 331 331 330 329 327
312 310 303 304 303 302 309 312 313 312 311 321 321 312 317 326 333 334 334 335 337 338 338 339 337 336 336 338 332 334 335 337 337 336 334 332 333 333 333 332 334 332 330 330 330 328 328 327 326
312 305 303 303 304 305 310 309 310 315 315 317 320 318 325 332 332 331 330 331 331 334 336 339 338 335 334 335 332 330 329 331 330 330 328 328 332 331 330 329 332 331 330 330 328 327 325 325 326
308 305 305 308 306 304 308 310 310 310 312 314 317 323 330 329 329 328 327 325 327 329 333 337 338 334 333 333 334 332 332 334 335 334 334 333 332 330 327 324 326 328 330 328 326 325 325 325 328
309 306 310 305 306 306 305 305 310 309 308 311 313 320 327 325 327 327 326 327 327 330 331 335 339 335 332 331 332 331 329 331 333 334 333 332 330 329 329 328 327 326 322 326 327 328 328 328 328
303 310 312 306 305 305 304 306 305 308 310 313 315 322 325 324 325 327 327 328 327 328 329 333 336 335 332 332 331 331 329 328 330 332 332 331 329 329 329 328 330 331 330 330 330 329 329 328 328
303 309 307 306 304 305 305 304 304 306 312 313 318 323 324 323 325 329 329 329 330 328 329 331 333 334 333 330 329 329 328 328 327 329 330 330 329 328 329 329 330 331 330 330 330 329 329 329 328
309 308 305 305 306 305 305 304 303 308 311 312 318 321 324 325 325 329 329 328 329 329 329 330 331 333 334 329 329 328 328 328 328 329 330 330 330 330 329 329 330 330 331 331 330 329 328 327 328
307 303 304 304 306 306 306 305 302 308 310 311 315 319 323 325 328 329 330 330 330 329 329 329 330 331 334 330 329 328 328 328 329 331 331 330 330 329 329 329 329 330 331 330 330 329 328 326 326
303 304 298 306 305 306 304 301 309 309 308 309 313 317 321 324 327 329 330 331 331 329 326 329 331 331 333 331 330 329 329 328 330 330 331 331 331 330 330 329 329 331 330 330 328 327 326 326 325
301 297 299 303 308 307 302 303 310 307 307 308 311 314 319 321 325 328 330 330 329 325 324 325 329 331 332 331 331 330 330 329 329 331 332 331 330 329 329 328 330 329 328 328 327 325 325 325 323
295 297 300 301 304 302 302 302 308 305 305 307 310 313 316 319 322 325 329 330 331 330 326 324 326 327 330 331 331 330 330 330 331 332 332 331 330 329 328 328 328 327 326 325 325 324 326 325 322
303 298 301 304 304 300 302 303 307 309 305 305 307 310 314 316 322 325 328 331 331 332 330 324 323 325 327 328 327 327 327 329 332 334 333 331 330 329 329 328 328 327 326 327 327 327 324 322 323
302 301 300 304 298 298 302 301 304 306 308 306 306 307 310 315 317 322 325 329 330 331 331 328 324 325 326 328 329 330 331 332 332 335 334 332 331 330 330 329 329 329 328 328 326 324 323 322 321
301 300 301 301 300 301 301 300 304 308 307 306 305 306 309 311 315 318 322 326 330 331 332 331 329 326 326 328 330 332 332 332 332 332 332 331 331 332 332 330 330 329 329 328 327 324 322 320 319
296 301 302 299 297 294 300 292 302 307 308 307 306 305 306 309 314 317 320 323 327 330 333 333 333 331 329 329 330 330 329 327 330 331 332 332 333 332 332 331 330 330 329 325 322 322 323 322 318
297 303 300 295 294 293 296 292 298 304 303 306 309 307 306 308 312 316 319 322 325 329 331 333 333 333 332 332 332 331 329 331 332 331 330 331 331 331 328 327 327 324 322 319 315 316 319 319 316
300 295 294 294 293 287 294 294 294 299 302 304 307 309 310 308 309 314 319 322 324 327 329 331 331 331 333 333 333 331 330 330 330 330 328 326 324 321 320 319 320 318 316 313 314 315 313 310 308
296 295 286 284 285 285 292 293 295 302 305 305 303 307 309 309 308 310 314 319 321 323 326 327 329 329 332 333 331 332 332 332 331 330 327 324 321 316 316 314 313 312 311 310 310 308 305 303 301
293 294 288 282 283 288 287 288 295 302 302 299 305 304 304 306 309 309 309 314 318 321 323 325 325 326 329 331 332 332 332 332 332 330 327 325 321 319 317 310 307 307 306 305 305 302 300 300 299
292 289 297 288 283 285 290 293 298 301 300 302 301 302 303 303 304 306 308 308 308 312 317 319 321 323 326 328 330 331 332 331 330 329 329 327 322 314 309 306 302 303 303 301 300 298 296 297 296
297 298 288 290 283 282 288 291 292 296 298 301 301 301 303 304 304 303 303 304 306 307 309 312 316 317 320 324 327 328 328 328 329 327 325 323 315 305 305 301 300 300 300 298 297 296 296 295 294
292 291 293 294 291 285 284 289 297 299 299 299 298 298 300 301 302 303 304 305 305 306 307 308 310 312 314 317 323 325 324 324 326 322 319 315 307 302 300 299 299 298 297 296 295 294 293 292 291
297 293 293 289 285 289 288 288 297 298 298 298 298 299 301 302 303 303 304 304 304 304 305 306 309 310 311 313 316 322 321 316 317 312 307 304 302 300 298 297 295 295 294 294 293 291 292 291 290

GFSSGP_sfc_thetae_114.txt.gz
Theta_e
324 321 319 316 305 304 301 302 306 306 308 312 317 316 316 318 316 310 331 339 339 341 343 342 345 345 344 346 346 346 348 347 346 346 345 343 343 341 339 340 337 339 337 337 336 335 335 334 334
317 318 317 312 300 298 299 304 305 310 313 317 317 316 316 315 324 325 327 338 340 340 342 341 343 345 345 344 344 346 347 346 346 344 344 344 343 340 338 338 338 336 336 336 335 334 334 334 333
319 317 309 306 302 297 298 303 309 313 314 314 314 319 318 318 325 326 334 339 339 339 341 341 343 345 345 344 344 344 345 345 345 344 342 341 340 339 337 337 336 336 336 335 335 333 333 332 331
314 313 310 300 300 302 301 304 312 311 311 316 315 313 321 328 326 329 337 339 338 338 339 341 343 345 345 344 345 344 345 345 344 342 340 339 338 337 336 335 334 335 334 334 334 333 331 330 329
313 311 302 300 302 302 302 303 309 310 310 312 312 312 317 325 331 333 336 338 337 336 337 339 343 344 345 345 345 344 344 345 343 341 340 338 337 335 334 334 334 334 334 333 333 332 331 330 328
308 309 299 298 301 302 302 306 306 310 312 312 309 313 317 329 331 331 336 336 337 336 335 338 336 340 342 343 344 343 343 343 342 339 337 336 336 334 334 333 334 334 333 333 332 331 330 329 328
308 305 299 300 302 300 304 309 306 309 309 310 313 310 320 326 331 333 333 336 337 337 334 334 336 335 335 338 339 340 342 342 341 341 339 338 337 337 335 335 333 333 332 332 331 330 329 329 327
307 307 301 301 300 301 306 308 308 308 309 315 317 308 313 325 332 333 334 334 336 337 335 333 333 334 336 335 332 333 335 337 337 335 333 332 332 333 332 331 333 331 331 330 329 328 328 328 327
311 300 300 302 303 303 307 305 307 310 311 311 315 317 323 329 331 329 330 331 330 334 335 333 331 330 332 334 327 328 330 331 330 329 328 326 328 329 329 328 331 331 330 329 328 326 325 327 327
307 301 303 307 303 301 306 305 306 305 308 309 313 324 328 328 328 326 326 326 325 328 333 335 333 330 330 332 331 329 330 330 330 329 327 328 324 324 325 323 327 329 329 329 326 326 327 324 322
306 301 308 306 305 305 304 302 305 304 303 307 311 320 323 325 325 326 326 324 325 326 330 335 334 330 327 328 327 326 327 328 329 329 327 326 323 320 320 318 318 318 320 321 323 323 323 323 322
301 307 307 305 305 304 303 303 302 302 303 308 311 323 322 323 324 325 324 323 324 325 327 331 335 331 326 327 326 324 323 325 326 327 327 325 324 323 322 323 324 323 323 323 323 322 323 323 323
304 307 311 305 303 302 304 302 301 300 304 309 319 323 320 322 324 326 326 325 324 323 326 329 331 333 327 326 325 324 323 323 324 326 325 325 323 322 322 323 323 323 323 323 323 323 323 323 323
306 307 305 303 303 303 302 302 300 302 304 307 317 318 320 321 323 324 326 325 325 325 326 328 329 332 329 324 323 322 323 323 322 323 325 326 324 323 323 323 324 324 324 324 323 323 321 321 322
306 301 301 301 302 302 303 301 299 304 305 306 310 315 319 321 324 324 326 324 326 326 326 327 328 330 330 324 324 322 323 323 322 325 326 325 325 323 323 323 323 326 325 324 324 323 321 320 321
300 301 295 302 303 302 302 297 306 308 304 304 307 310 318 321 322 326 327 326 327 326 326 327 329 328 330 325 323 323 323 323 324 325 325 326 326 324 323 324 325 325 324 323 322 321 319 321 318
298 294 297 300 306 302 299 297 306 308 303 301 303 308 314 318 322 325 326 326 329 327 325 326 327 326 327 326 325 323 323 322 324 326 326 326 326 325 323 322 325 326 322 321 321 318 322 319 317
295 295 298 297 303 302 298 297 303 301 301 302 303 304 311 314 318 323 325 326 326 325 323 324 326 327 328 326 325 324 323 323 324 325 327 327 325 325 323 322 322 321 320 320 319 321 322 320 316
302 299 298 301 302 299 298 299 303 305 300 299 300 302 307 315 317 320 323 325 325 322 319 319 322 325 328 325 322 321 321 322 323 326 327 327 325 324 323 322 322 322 320 320 321 323 320 318 315
302 299 298 301 298 295 297 298 301 304 305 304 301 301 303 308 313 319 321 323 325 325 325 319 319 322 324 325 325 322 322 322 324 327 327 327 325 325 324 323 322 323 321 322 322 322 318 318 314
300 298 297 298 298 299 295 294 299 304 304 303 303 302 303 305 309 314 319 322 324 325 326 325 320 321 322 324 324 323 324 325 325 325 326 327 326 325 324 324 324 325 323 322 321 322 319 316 311
295 301 300 299 296 292 295 286 295 300 303 304 302 299 300 302 307 312 318 320 323 325 327 328 325 321 322 323 323 323 323 323 325 326 327 327 327 326 326 325 324 324 325 324 323 322 320 318 311
297 302 299 296 294 292 293 288 292 298 298 301 305 303 302 301 304 309 313 319 323 325 327 328 328 324 322 323 323 324 325 326 326 326 326 326 326 326 325 326 325 323 323 321 319 317 318 317 311
299 296 294 292 293 286 291 290 290 295 298 300 303 305 305 304 302 306 311 315 319 323 326 327 327 328 326 323 323 325 325 325 325 325 325 325 323 322 321 320 323 322 319 317 315 314 314 308 305
297 294 284 284 284 284 289 289 293 298 300 300 300 299 301 305 303 302 307 311 316 319 323 325 326 327 328 327 325 325 326 326 325 325 326 322 320 317 319 318 316 314 313 313 311 309 306 301 298
295 294 284 278 280 282 283 283 291 301 300 297 298 300 298 297 301 302 303 308 313 316 319 322 323 325 327 328 328 328 327 328 327 327 327 324 321 319 317 317 316 312 309 307 305 302 300 297 295
292 290 294 284 277 280 284 288 294 297 296 295 295 296 297 296 297 296 300 303 309 313 315 318 319 322 324 326 327 328 328 328 327 327 327 326 322 316 313 312 311 308 305 303 301 297 295 294 293
295 297 288 287 276 276 283 285 288 291 295 296 296 296 296 296 296 296 297 298 299 302 308 313 316 318 319 321 325 326 327 328 328 327 325 325 322 312 308 307 306 304 302 298 296 294 293 292 291
292 291 292 291 288 280 278 283 289 294 295 295 292 294 294 296 296 297 297 298 298 299 299 301 306 309 312 315 319 320 322 323 321 325 323 321 310 307 304 303 302 300 298 297 294 292 292 291 290
295 293 293 287 283 285 283 283 292 292 292 294 293 295 296 297 297 297 298 298 298 298 299 299 300 303 305 307 310 313 316 315 317 319 315 308 306 303 303 301 300 299 296 295 293 292 291 289 288

GFSSGP_sfc_thetae_117.txt.gz
Theta_e
319 313 311 310 300 298 294 298 303 304 305 311 314 315 316 316 314 307 332 337 339 341 342 342 345 346 345 347 348 347 347 347 346 344 344 342 340 340 338 339 339 337 337 336 336 336 335 333 334
317 315 312 305 295 292 294 299 304 306 310 314 315 316 315 314 322 323 332 340 341 340 340 340 343 345 345 346 347 347 346 347 345 345 344 341 339 338 337 336 336 336 336 335 336 335 334 333 332
315 313 304 302 297 293 294 303 306 309 313 313 311 318 316 317 322 323 336 339 340 338 338 340 343 345 345 345 346 346 346 346 345 343 341 341 339 338 337 337 335 336 335 334 334 333 331 331 332
310 308 304 296 296 298 298 306 308 306 310 314 314 312 320 325 324 331 338 339 337 337 338 340 344 345 345 344 345 345 345 345 344 341 340 339 337 336 335 336 335 335 334 334 333 332 330 330 331
308 305 298 298 297 298 298 305 308 306 307 309 312 312 316 323 329 336 337 338 335 335 337 340 343 344 345 345 345 345 346 345 343 339 338 337 335 335 335 335 334 334 334 333 333 331 330 329 329
304 304 295 293 297 298 300 304 306 307 309 309 312 314 313 325 329 333 337 335 335 333 337 339 336 339 342 343 344 343 344 343 341 338 337 336 334 334 334 334 334 334 333 332 332 331 330 328 328
303 302 297 294 296 296 302 307 303 306 308 308 312 312 316 323 330 333 336 335 334 333 334 335 336 335 335 337 338 341 342 341 340 339 338 337 336 335 334 335 334 333 332 331 331 330 329 328 328
303 302 299 296 296 297 304 304 305 307 307 313 314 311 313 321 330 333 335 335 334 332 332 332 333 335 334 333 331 334 337 337 337 335 333 331 332 332 332 330 333 332 331 329 329 328 328 327 327
308 296 296 299 299 299 304 301 305 307 310 312 315 316 320 327 330 331 330 332 332 332 329 330 330 332 332 330 327 329 331 331 330 329 327 325 326 327 328 327 330 331 330 329 328 326 326 326 325
307 296 299 302 298 300 305 303 304 304 306 308 317 322 325 326 326 326 327 326 329 330 328 329 327 329 331 332 327 327 328 327 326 325 325 326 324 324 326 324 327 329 328 329 327 327 327 323 320
302 299 305 301 301 302 302 300 304 303 301 308 313 319 322 322 324 325 326 327 326 326 331 330 329 328 327 328 326 326 326 326 325 325 325 321 320 319 320 319 320 319 320 319 322 321 321 320 320
299 304 304 304 303 302 300 302 299 301 302 306 320 323 322 323 324 325 325 323 324 325 328 330 330 327 326 327 323 323 324 325 324 325 324 320 318 317 317 316 316 317 318 319 320 320 321 321 321
301 303 307 302 301 300 302 299 299 298 301 311 323 322 320 320 323 326 326 324 324 322 326 328 330 326 325 324 323 321 320 323 324 325 324 323 321 320 320 320 321 321 321 321 320 320 321 321 321
305 305 304 301 300 300 300 299 300 300 302 316 320 318 318 320 322 324 324 322 323 324 325 327 329 331 324 323 322 321 320 321 322 322 322 323 321 320 321 321 321 321 321 321 322 321 319 319 322
306 299 303 300 300 300 301 299 298 303 304 312 314 316 317 319 321 322 325 323 323 324 326 326 327 329 325 322 322 321 321 321 320 321 323 323 323 320 321 321 321 323 322 322 322 321 319 317 319
298 298 294 300 300 301 301 295 302 304 302 302 309 313 316 318 320 322 324 326 326 324 325 326 329 327 328 323 321 320 320 320 320 322 323 323 323 322 320 321 321 325 323 322 320 319 317 317 317
298 292 295 299 302 300 298 295 303 304 301 300 301 308 315 317 319 321 325 323 324 324 325 325 326 325 327 325 321 321 320 320 321 323 323 323 323 323 321 321 322 325 321 319 319 316 317 317 317
291 295 297 297 300 298 295 295 301 300 299 299 299 302 315 317 319 322 325 325 326 325 325 325 326 325 325 325 321 320 319 319 321 322 323 323 324 323 321 320 322 322 319 318 317 316 319 318 317
298 296 295 297 301 298 298 296 298 302 299 297 299 299 308 315 320 322 324 324 323 324 323 325 324 325 325 324 320 319 319 319 319 321 324 324 324 323 321 320 320 318 318 318 318 318 319 318 316
300 296 297 300 299 299 295 295 299 301 302 299 299 299 300 310 312 319 320 322 322 323 323 323 324 324 325 326 325 321 319 320 322 323 325 325 324 323 321 320 319 319 317 317 317 318 317 317 315
297 297 298 299 295 297 293 292 296 301 302 303 302 300 301 302 312 315 318 321 322 320 319 319 323 324 325 325 324 320 320 320 320 322 324 325 325 323 322 321 320 320 320 318 318 318 317 314 313
293 301 299 296 295 290 294 284 292 298 300 302 301 299 299 301 307 314 317 319 321 322 322 318 319 322 323 325 323 323 321 319 322 323 326 325 324 323 323 323 323 322 322 320 320 322 320 317 312
295 301 297 296 292 289 290 287 290 295 295 299 304 301 300 300 302 307 316 319 321 323 324 324 318 318 321 322 323 322 321 322 323 324 324 325 325 324 323 323 322 322 321 322 319 318 319 318 313
299 296 295 294 293 287 290 290 288 293 297 298 301 305 304 300 299 303 312 318 319 322 324 323 323 318 319 319 321 321 320 321 322 322 323 324 324 324 323 322 322 322 321 320 320 320 318 315 312
298 295 285 284 284 282 289 288 293 296 298 299 300 300 303 301 299 301 303 309 314 318 322 323 324 323 320 318 320 320 321 322 323 323 324 323 323 319 322 321 321 320 319 316 315 314 314 311 308
295 294 282 277 279 280 283 283 289 300 303 301 302 302 298 297 300 299 301 307 312 317 320 321 322 324 324 322 319 320 322 325 324 324 325 324 324 323 323 321 322 319 317 315 313 307 305 302 301
293 291 291 282 274 278 282 286 293 295 297 295 295 294 296 296 295 299 299 302 309 312 316 320 322 324 324 325 325 322 322 323 325 325 325 324 323 322 315 318 320 317 314 312 308 306 300 297 294
296 297 288 284 275 275 280 282 285 290 293 295 295 295 293 294 294 295 295 296 299 307 311 315 319 321 322 324 326 325 325 325 325 325 324 324 323 319 316 315 316 314 311 308 305 300 296 295 293
292 292 290 290 284 279 276 281 290 292 296 294 292 293 293 294 294 295 295 296 296 296 297 301 309 313 315 317 322 323 323 324 325 325 324 325 322 317 316 314 311 309 307 304 301 297 294 294 292
296 293 294 287 283 284 282 282 290 291 292 291 292 293 294 295 295 296 296 296 296 297 297 297 297 299 304 308 311 313 316 315 320 323 325 320 317 313 313 310 308 307 304 301 300 296 296 295 291